[[{"header":{"parameterUnit":"m.s-1","parameterCategory":1,"la1":30.6,"la2":28.766,"lo1":-90.7593,"lo2":-88.6598,"dx":0.0162,"dy":0.0183,"nx":116,"ny":114,"refTime":"2023-01-27T06:00:00:Z","depth":0,"parameterNumber":2,"parameterNumberName":"U-component_of_WINDS"},"data":[0.0,0.0,0.0,0.0,0.0,0.0,0.0,0.0,0.0,0.0,0.0,0.0,0.0,0.0,0.0,0.0,0.0,0.0,0.0,0.0,0.0,0.0,0.0,0.0,0.0,0.0,0.0,0.0,0.0,0.0,0.0,0.0,0.0,0.0,0.0,0.0,0.0,0.0,0.0,0.0,0.0,0.0,0.0,0.0,0.0,0.0,0.0,0.0,0.0,0.0,0.0,0.0,0.0,0.0,0.0,0.0,0.0,0.0,0.0,0.0,0.0,0.0,0.0,0.0,0.0,0.0,0.0,0.0,0.0,0.0,0.0,0.0,0.0,0.0,0.0,0.0,0.0,0.0,0.0,0.0,0.0,0.0,0.0,0.0,0.0,0.0,0.0,0.0,0.0,0.0,0.0,0.0,0.0,0.0,0.0,0.0,0.0,0.0,0.0,0.0,0.0,0.0,0.0,0.0,0.0,0.0,0.0,0.0,0.0,0.0,0.0,0.0,0.0,0.0,0.0,0.0,0.0,0.0,0.0,0.0,0.0,0.0,0.0,0.0,0.0,0.0,0.0,0.0,0.0,0.0,0.0,0.0,0.0,0.0,0.0,0.0,0.0,0.0,0.0,0.0,0.0,0.0,0.0,0.0,0.0,0.0,0.0,0.0,0.0,0.0,0.0,0.0,0.0,0.0,0.0,0.0,0.0,0.0,0.0,0.0,0.0,0.0,0.0,0.0,0.0,0.0,0.0,0.0,0.0,0.0,0.0,0.0,0.0,0.0,0.0,0.0,0.0,0.0,0.0,0.0,0.0,0.0,0.0,0.0,0.0,0.0,0.0,0.0,0.0,0.0,0.0,0.0,0.0,0.0,0.0,0.0,0.0,0.0,0.0,0.0,0.0,0.0,0.0,0.0,0.0,0.0,0.0,0.0,0.0,0.0,0.0,0.0,0.0,0.0,0.0,0.0,0.0,0.0,0.0,0.0,0.0,0.0,0.0,0.0,0.0,0.0,0.0,0.0,0.0,0.0,0.0,0.0,0.0,0.0,0.0,0.0,0.0,0.0,0.0,0.0,0.0,0.0,0.0,0.0,0.0,0.0,0.0,0.0,0.0,0.0,0.0,0.0,0.0,0.0,0.0,0.0,0.0,0.0,0.0,0.0,0.0,0.0,0.0,0.0,0.0,0.0,0.0,0.0,0.0,0.0,0.0,0.0,0.0,0.0,0.0,0.0,0.0,0.0,0.0,0.0,0.0,0.0,0.0,0.0,0.0,0.0,0.0,0.0,0.0,0.0,0.0,0.0,0.0,0.0,0.0,0.0,0.0,0.0,0.0,0.0,0.0,0.0,0.0,0.0,0.0,0.0,0.0,0.0,0.0,0.0,0.0,0.0,0.0,0.0,0.0,0.0,0.0,0.0,0.0,0.0,0.0,0.0,0.0,0.0,0.0,0.0,0.0,0.0,0.0,0.0,0.0,0.0,0.0,0.0,0.0,0.0,0.0,0.0,0.0,0.0,0.0,0.0,0.0,0.0,0.0,0.0,0.0,0.0,0.0,0.0,0.0,0.0,0.0,0.0,0.0,0.0,0.0,0.0,0.0,0.0,0.0,0.0,0.0,0.0,0.0,0.0,0.0,0.0,0.0,0.0,0.0,0.0,0.0,0.0,0.0,0.0,0.0,0.0,0.0,0.0,0.0,0.0,0.0,0.0,0.0,0.0,0.0,0.0,0.0,0.0,0.0,0.0,0.0,0.0,0.0,0.0,0.0,0.0,0.0,0.0,0.0,0.0,0.0,0.0,0.0,0.0,0.0,0.0,0.0,0.0,0.0,0.0,0.0,0.0,0.0,0.0,0.0,0.0,0.0,0.0,0.0,0.0,0.0,0.0,0.0,0.0,0.0,0.0,0.0,0.0,0.0,0.0,0.0,0.0,0.0,0.0,0.0,0.0,0.0,0.0,0.0,0.0,0.0,0.0,0.0,0.0,0.0,0.0,0.0,0.0,0.0,0.0,0.0,0.0,0.0,0.0,0.0,0.0,0.0,0.0,0.0,0.0,0.0,0.0,0.0,0.0,0.0,0.0,0.0,0.0,0.0,0.0,0.0,0.0,0.0,0.0,0.0,0.0,0.0,0.0,0.0,0.0,0.0,0.0,0.0,0.0,0.0,0.0,0.0,0.0,0.0,0.0,0.0,0.0,0.0,0.0,0.0,0.0,0.0,0.0,0.0,0.0,0.0,0.0,0.0,0.0,0.0,0.0,0.0,0.0,0.0,0.0,0.0,0.0,0.0,0.0,0.0,0.0,0.0,0.0,0.0,0.0,0.0,0.0,0.0,0.0,0.0,0.0,0.0,0.0,0.0,0.0,0.0,0.0,0.0,0.0,0.0,0.0,0.0,0.0,0.0,0.0,0.0,0.0,0.0,0.0,0.0,0.0,0.0,0.0,0.0,0.0,0.0,0.0,0.0,0.0,0.0,0.0,0.0,0.0,0.0,0.0,0.0,0.0,0.0,0.0,0.0,0.0,0.0,0.0,0.0,0.0,0.0,0.0,0.0,0.0,0.0,0.0,0.0,0.0,0.0,0.0,0.0,0.0,0.0,0.0,0.0,0.0,0.0,0.0,0.0,0.0,0.0,0.0,0.0,0.0,0.0,0.0,0.0,0.0,0.0,0.0,0.0,0.0,0.0,0.0,0.0,0.0,0.0,0.0,0.0,0.0,0.0,0.0,0.0,0.0,0.0,0.0,0.0,0.0,0.0,0.0,0.0,0.0,0.0,0.0,0.0,0.0,0.0,0.0,0.0,0.0,0.0,0.0,0.0,0.0,0.0,0.0,0.0,0.0,0.0,0.0,0.0,0.0,0.0,0.0,0.0,0.0,0.0,0.0,0.0,0.0,0.0,0.0,0.0,0.0,0.0,0.0,0.0,0.0,0.0,0.0,0.0,0.0,0.0,0.0,0.0,0.0,0.0,0.0,0.0,0.0,0.0,0.0,0.0,0.0,0.0,0.0,0.0,0.0,0.0,0.0,0.0,0.0,0.0,0.0,0.0,0.0,0.0,0.0,0.0,0.0,0.0,0.0,0.0,0.0,0.0,0.0,0.0,0.0,0.0,0.0,0.0,0.0,0.0,0.0,0.0,0.0,0.0,0.0,0.0,0.0,0.0,0.0,0.0,0.0,0.0,0.0,0.0,0.0,0.0,0.0,0.0,0.0,0.0,0.0,0.0,0.0,0.0,0.0,0.0,0.0,0.0,0.0,0.0,0.0,0.0,0.0,0.0,0.0,0.0,0.0,0.0,0.0,0.0,0.0,0.0,0.0,0.0,0.0,0.0,0.0,0.0,0.0,0.0,0.0,0.0,0.0,0.0,0.0,0.0,0.0,0.0,0.0,0.0,0.0,0.0,0.0,0.0,0.0,0.0,0.0,0.0,0.0,0.0,0.0,0.0,0.0,0.0,0.0,0.0,0.0,0.0,0.0,0.0,0.0,0.0,0.0,0.0,0.0,0.0,0.0,0.0,0.0,0.0,0.0,0.0,0.0,0.0,0.0,0.0,0.0,0.0,0.0,0.0,0.0,0.0,0.0,0.0,0.0,0.0,0.0,0.0,0.0,0.0,0.0,0.0,0.0,0.0,0.0,0.0,0.0,0.0,0.0,0.0,0.0,0.0,0.0,0.0,0.0,0.0,0.0,0.0,0.0,0.0,0.0,0.0,0.0,0.0,0.0,0.0,0.0,0.0,0.0,0.0,0.0,0.0,0.0,0.0,0.0,0.0,0.0,0.0,0.0,0.0,0.0,0.0,0.0,0.0,0.0,0.0,0.0,0.0,0.0,0.0,0.0,0.0,0.0,0.0,0.0,0.0,0.0,0.0,0.0,0.0,0.0,0.0,0.0,0.0,0.0,0.0,0.0,0.0,0.0,0.0,0.0,0.0,0.0,0.0,0.0,0.0,0.0,0.0,0.0,0.0,0.0,0.0,0.0,0.0,0.0,0.0,0.0,0.0,0.0,0.0,0.0,0.0,0.0,0.0,0.0,0.0,0.0,0.0,0.0,0.0,0.0,0.0,0.0,0.0,0.0,0.0,0.0,0.0,0.0,0.0,0.0,0.0,0.0,0.0,0.0,0.0,0.0,0.0,0.0,0.0,0.0,0.0,0.0,0.0,0.0,0.0,0.0,0.0,0.0,0.0,0.0,0.0,0.0,0.0,0.0,0.0,0.0,0.0,0.0,0.0,0.0,0.0,0.0,0.0,0.0,0.0,0.0,0.0,0.0,0.0,0.0,0.0,0.0,0.0,0.0,0.0,0.0,0.0,0.0,0.0,0.0,0.0,0.0,0.0,0.0,0.0,0.0,0.0,0.0,0.0,0.0,0.0,0.0,0.0,0.0,0.0,0.0,0.0,0.0,0.0,0.0,0.0,0.0,0.0,0.0,0.0,0.0,0.0,0.0,0.0,0.0,0.0,0.0,0.0,0.0,0.0,0.0,0.0,0.0,0.0,0.0,0.0,0.0,0.0,0.0,0.0,0.0,0.0,0.0,0.0,0.0,0.0,0.0,0.0,0.0,0.0,0.0,0.0,0.0,0.0,0.0,0.0,0.0,0.0,0.0,0.0,0.0,0.0,0.0,0.0,0.0,0.0,0.0,0.0,0.0,0.0,0.0,0.0,0.0,0.0,0.0,0.0,0.0,0.0,0.0,0.0,0.0,0.0,0.0,0.0,0.0,0.0,0.0,0.0,0.0,0.0,0.0,0.0,0.0,0.0,0.0,0.0,0.0,0.0,0.0,0.0,0.0,0.0,0.0,0.0,0.0,0.0,0.0,0.0,0.0,0.0,0.0,0.0,0.0,0.0,0.0,0.0,0.0,0.0,0.0,0.0,0.0,0.0,0.0,0.0,0.0,0.0,0.0,0.0,0.0,0.0,0.0,0.0,0.0,0.0,0.0,0.0,0.0,0.0,0.0,0.0,0.0,0.0,0.0,0.0,0.0,0.0,0.0,0.0,0.0,0.0,0.0,0.0,0.0,0.0,0.0,0.0,0.0,0.0,0.0,0.0,0.0,0.0,0.0,0.0,0.0,0.0,0.0,0.0,0.0,0.0,0.0,0.0,0.0,0.0,0.0,0.0,0.0,0.0,0.0,0.0,0.0,0.0,0.0,0.0,0.0,0.0,0.0,0.0,0.0,0.0,0.0,0.0,0.0,0.0,0.0,0.0,0.0,0.0,0.0,0.0,0.0,0.0,0.0,0.0,0.0,0.0,0.0,0.0,0.0,0.0,0.0,0.0,0.0,0.0,0.0,0.0,0.0,0.0,0.0,0.0,0.0,0.0,0.0,0.0,0.0,0.0,0.0,0.0,0.0,0.0,0.0,0.0,0.0,0.0,0.0,0.0,0.0,0.0,0.0,0.0,0.0,0.0,0.0,0.0,0.0,0.0,0.0,0.0,0.0,0.0,0.0,0.0,0.0,0.0,0.0,0.0,0.0,0.0,0.0,0.0,0.0,0.0,0.0,0.0,0.0,0.0,0.0,0.0,0.0,0.0,0.0,0.0,0.0,0.0,0.0,0.0,0.0,0.0,0.0,0.0,0.0,0.0,0.0,0.0,0.0,0.0,0.0,0.0,0.0,0.0,0.0,0.0,0.0,0.0,0.0,0.0,0.0,0.0,0.0,0.0,0.0,0.0,0.0,0.0,0.0,0.0,0.0,0.0,0.0,0.0,0.0,0.0,0.0,0.0,0.0,0.0,0.0,0.0,0.0,0.0,0.0,0.0,0.0,0.0,0.0,0.0,0.0,0.0,0.0,0.0,0.0,0.0,0.0,0.0,0.0,0.0,0.0,0.0,0.0,0.0,0.0,0.0,0.0,0.0,0.0,0.0,0.0,0.0,0.0,0.0,0.0,0.0,0.0,0.0,0.0,0.0,0.0,0.0,0.0,0.0,0.0,0.0,0.0,0.0,0.0,0.0,0.0,0.0,0.0,0.0,0.0,0.0,0.0,0.0,0.0,0.0,0.0,0.0,0.0,0.0,0.0,0.0,0.0,0.0,0.0,0.0,0.0,0.0,0.0,0.0,0.0,0.0,0.0,0.0,0.0,0.0,0.0,0.0,0.0,1.5468,0.0,0.0,0.0,0.0,0.0,0.0,0.0,0.0,0.0,0.0,0.0,0.0,0.0,0.0,0.0,0.0,0.0,0.0,0.0,0.0,0.0,0.0,0.0,0.0,0.0,0.0,0.0,0.0,0.0,0.0,0.0,0.0,0.0,0.0,0.0,0.0,0.0,0.0,0.0,1.9108,1.9108,1.9108,1.9008,1.9008,1.9108,0.0,0.0,0.0,0.0,0.0,0.0,0.0,0.0,0.0,0.0,0.0,0.0,0.0,0.0,0.0,0.0,0.0,0.0,0.0,0.0,0.0,0.0,0.0,0.0,0.0,0.0,0.0,0.0,0.0,0.0,0.0,0.0,0.0,0.0,0.0,0.0,0.0,0.0,0.0,0.0,0.0,0.0,0.0,0.0,0.0,0.0,0.0,0.0,0.0,0.0,0.0,0.0,0.0,0.0,0.0,0.0,0.0,0.0,0.0,0.0,0.0,0.0,0.0,0.0,0.0,0.0,0.0,0.0,0.0,0.0,0.0,1.5531,0.0,0.0,0.0,0.0,0.0,0.0,0.0,0.0,0.0,0.0,0.0,0.0,0.0,0.0,0.0,0.0,0.0,0.0,0.0,0.0,0.0,0.0,0.0,0.0,0.0,0.0,0.0,0.0,0.0,0.0,0.0,0.0,0.0,0.0,0.0,1.9042,1.9031,1.9031,1.9031,1.9042,1.9008,1.8841,1.8841,1.9008,1.9008,0.0,0.0,0.0,0.0,0.0,0.0,0.0,0.0,0.0,0.0,0.0,0.0,0.0,0.0,0.0,0.0,0.0,0.0,0.0,0.0,0.0,0.0,0.0,0.0,0.0,0.0,0.0,0.0,0.0,0.0,0.0,0.0,0.0,0.0,0.0,0.0,0.0,0.0,0.0,0.0,0.0,0.0,0.0,0.0,0.0,0.0,0.0,0.0,0.0,0.0,0.0,0.0,0.0,0.0,0.0,0.0,0.0,0.0,0.0,0.0,0.0,0.0,0.0,0.0,0.0,1.5311,1.5613,1.5274,1.4496,1.5274,1.4873,1.3857,0.0,0.0,0.0,0.0,0.0,0.0,0.0,0.0,0.0,0.0,0.0,0.0,0.0,0.0,0.0,0.0,0.0,0.0,0.0,0.0,0.0,0.0,0.0,0.0,0.0,0.0,0.0,0.0,0.0,0.0,0.0,0.0,0.0,0.0,1.8741,1.8841,1.8841,1.8841,1.8741,1.8583,1.8549,1.8549,1.8583,1.8583,1.8583,1.8583,0.0,0.0,0.0,0.0,0.0,0.0,0.0,0.0,0.0,0.0,0.0,0.0,0.0,0.0,0.0,0.0,0.0,0.0,0.0,0.0,0.0,0.0,0.0,0.0,0.0,0.0,0.0,0.0,0.0,0.0,0.0,0.0,0.0,0.0,0.0,0.0,0.0,0.0,0.0,0.0,0.0,0.7672,0.9767,0.0,0.0,0.0,0.0,0.0,0.0,0.0,0.0,0.0,0.0,0.0,0.0,0.0,0.0,1.351,1.3711,1.4068,1.4566,1.4188,1.4272,1.4776,1.4852,1.481,1.465,1.4188,0.0,1.3737,1.4026,0.0,0.0,0.0,0.0,0.0,0.0,0.0,0.0,0.0,0.0,0.0,0.0,0.0,0.0,0.0,0.0,0.0,0.0,0.0,0.0,0.0,0.0,0.0,0.0,0.0,0.0,0.0,0.0,0.0,0.0,0.0,1.8516,1.8516,1.8583,1.864,1.864,1.864,1.8583,1.8516,1.8414,1.8381,1.8371,1.8279,1.8313,1.8516,1.8414,0.0,0.0,0.0,0.0,0.0,0.0,0.0,0.0,0.0,0.0,0.0,0.0,0.0,0.0,0.0,0.0,0.0,0.0,0.0,0.0,0.0,0.0,0.0,0.0,0.0,0.0,0.0,0.0,0.0,0.0,0.0,0.0,0.0,0.0,0.0,0.0,0.0,0.0,0.0,0.8744,0.9785,1.0423,1.0899,1.1347,0.0,0.0,0.0,0.0,0.0,0.0,0.0,0.0,0.0,1.3618,1.3322,1.3512,1.4237,1.3899,1.4026,1.4692,1.4405,1.4398,1.4692,1.4692,1.4692,1.4692,1.4398,1.4068,1.3737,1.3971,1.4426,1.4943,0.0,0.0,0.0,0.0,0.0,1.5026,0.0,0.0,0.0,0.0,0.0,0.0,0.0,0.0,0.0,0.0,0.0,0.0,0.0,0.0,0.0,1.8337,0.0,0.0,0.0,0.0,0.0,0.0,0.0,1.8381,1.8381,1.8414,1.8448,1.8448,1.8448,1.8414,1.8381,1.8279,1.8202,1.8212,1.8076,1.8032,1.809,1.8202,1.732,1.5869,0.0,0.0,0.0,0.0,0.0,0.0,0.0,0.0,0.0,0.0,0.0,0.0,0.0,0.0,0.0,0.0,0.0,0.0,0.0,0.0,0.0,0.0,0.0,0.0,0.0,0.0,0.0,0.0,0.0,0.0,0.0,0.0,0.0,0.0,0.0,0.0,0.0,1.0285,1.0856,1.0762,1.1291,1.1787,0.0,0.0,0.0,0.0,0.0,0.0,1.3102,1.3018,1.3428,1.4398,1.3633,1.3675,1.4692,1.4195,1.4272,1.4943,1.4943,1.5068,1.5193,1.5193,1.5193,1.5193,1.5026,1.465,1.4195,1.4216,1.409,1.3935,1.4685,1.4943,0.0,1.4566,1.444,1.4363,0.0,0.0,0.0,0.0,0.0,0.0,0.0,0.0,0.0,0.0,0.0,0.0,0.0,0.0,1.8144,1.8448,1.8371,1.8371,0.0,0.0,1.8303,1.8303,1.8144,1.8042,1.8042,1.8202,1.8303,1.8303,1.8303,1.8202,1.8008,1.8008,1.8008,1.8008,1.8008,1.7613,1.7044,1.7716,1.7054,1.5534,1.5534,0.0,0.0,0.0,0.0,0.0,0.0,0.0,0.0,0.0,0.0,0.0,0.0,0.0,0.0,0.0,0.0,0.0,0.0,0.0,0.0,0.0,0.0,0.0,0.0,0.0,0.0,0.0,0.0,0.0,0.0,0.0,0.0,0.0,0.0,0.0,0.0,0.0,0.0,1.0855,1.101,0.0,0.0,0.0,0.0,1.2662,1.2681,1.2681,1.2723,1.33,1.3688,1.3737,1.4321,1.465,1.4692,1.465,1.4985,1.565,1.565,1.5982,1.6607,1.6607,1.6607,1.6566,1.594,1.5609,1.5484,1.4237,1.3971,1.4322,1.3935,1.444,1.5228,1.4153,1.3737,1.3646,0.0,0.0,0.0,0.0,0.0,0.0,0.0,0.0,0.0,0.0,0.0,0.0,0.0,1.8042,1.811,1.8347,1.8414,1.8405,1.8371,0.0,1.8337,1.811,1.8042,1.8008,1.8008,1.8076,1.811,1.811,1.811,1.8076,1.8008,1.8008,1.8008,1.8008,1.8008,1.7295,1.6167,1.6975,1.6585,1.5463,1.4939,1.4474,0.0,0.0,0.0,0.0,0.0,0.0,0.0,0.0,0.0,0.0,0.0,0.0,0.0,0.0,0.0,0.0,0.0,0.0,0.0,0.0,0.0,0.0,0.0,0.0,0.0,0.0,0.0,0.0,0.0,0.0,0.0,0.0,0.0,0.0,0.0,0.0,0.0,1.159,1.1923,0.0,0.0,1.2705,1.2705,1.2705,1.2705,1.2705,1.2705,1.2918,1.3264,1.3695,1.3942,1.4482,1.5318,1.536,1.5692,1.636,1.636,1.6601,1.7088,1.7088,1.7199,1.7405,1.7141,1.6676,1.6062,1.5553,1.4788,1.3928,1.3773,1.3682,1.3626,1.3215,1.3045,1.3003,0.0,0.0,0.0,0.0,0.0,0.0,0.0,0.0,0.0,0.0,0.0,1.8008,1.8008,1.8008,1.8076,1.8269,1.8371,1.8371,1.8303,0.0,1.8202,1.7647,1.7613,1.7759,1.7974,1.8008,1.8008,1.8008,1.8008,1.8008,1.8008,1.8008,1.7974,1.7896,1.7896,1.7019,1.5578,1.6105,1.5675,1.4573,1.4222,1.3869,1.3433,0.0,0.0,0.0,0.0,0.0,0.0,0.0,0.0,0.0,0.0,0.0,0.0,0.0,0.0,0.0,0.0,0.0,0.0,0.0,0.0,0.0,0.0,0.0,0.0,0.0,0.0,0.0,0.0,0.0,0.0,0.0,0.0,0.0,0.0,0.0,1.1483,1.1735,1.2314,1.2705,1.2705,1.2705,1.2705,1.2705,1.2705,1.2705,1.2705,1.2918,1.3349,1.4026,1.4279,1.4901,1.6023,1.6186,1.6456,1.6921,1.7032,1.7215,1.7488,1.7488,1.7607,1.7814,1.7814,1.7427,1.6794,1.6794,1.6007,1.4685,1.3979,1.3307,1.2705,1.2705,1.2705,1.2705,0.0,0.0,0.0,0.0,0.0,0.0,0.0,0.0,0.0,0.0,1.7545,1.8008,1.8008,1.8008,1.8076,1.8269,1.8303,1.8303,1.8269,1.8269,1.7842,1.6932,1.6932,1.726,1.7974,1.8008,1.8008,1.8008,1.8008,1.8008,1.8008,1.8008,1.7896,1.7706,1.7672,1.6768,1.5204,1.5161,1.4266,1.2936,1.3462,1.3127,1.2342,0.0,0.0,0.0,0.0,0.0,0.0,0.0,0.0,0.0,0.0,0.0,0.0,0.0,0.0,0.0,0.0,0.0,0.0,0.0,0.0,0.0,0.0,0.0,0.0,0.0,0.0,0.0,0.0,0.0,0.0,0.0,0.0,0.0,0.9274,1.0356,1.1052,1.1235,1.21,1.2705,1.2705,1.2705,1.2705,1.2705,1.2705,1.2705,1.2705,1.3349,1.399,1.4664,1.5374,1.6046,1.6688,1.7119,1.7337,1.7337,1.7663,1.7822,1.783,1.783,1.7838,1.7846,1.7846,1.7795,1.7787,1.7787,1.7386,1.6557,1.4572,1.3332,1.2772,1.2729,1.2729,1.2729,0.0,0.0,0.0,0.0,0.0,0.0,0.0,0.0,0.0,0.0,1.7545,1.8008,1.8008,1.8008,1.8076,1.8269,1.8303,1.8056,1.7467,0.0,1.7285,1.6932,1.7398,1.7794,1.8008,1.8008,1.8008,1.8008,1.8008,1.8008,1.8008,1.8008,1.7896,1.7672,1.7129,1.6263,1.5161,1.4438,1.3571,1.2709,1.2849,1.2989,1.3098,0.0,0.0,0.0,0.0,0.0,0.0,0.0,0.0,0.0,0.0,0.0,0.0,0.0,0.0,0.0,0.0,0.0,0.0,0.0,0.0,0.0,0.0,0.0,0.0,0.0,0.0,0.0,0.0,0.0,0.0,0.0,0.0,0.6482,0.7621,0.9357,1.0529,1.0577,1.1832,1.2705,1.2705,1.2705,1.2705,1.2705,1.2705,1.2705,1.2705,1.3349,1.3907,1.4319,1.5497,1.634,1.6782,1.7365,1.7679,1.7679,1.7767,1.795,1.8152,1.8152,1.8295,1.8541,1.8541,1.8075,1.7356,1.7356,1.6803,1.5859,1.5293,1.4659,1.3996,1.3468,1.329,1.329,0.0,0.0,0.0,0.0,0.0,0.0,0.0,0.0,0.0,0.0,1.6585,1.7157,1.751,1.7545,1.7716,1.8134,1.7886,1.7535,1.7044,1.6689,1.6759,1.7329,1.7476,1.7681,1.7974,1.8008,1.8008,1.8008,1.8008,1.8008,1.8008,1.7896,1.7794,1.7588,1.6724,1.5842,1.4903,1.3998,1.3135,1.2342,1.2342,1.2556,1.2806,1.2261,1.204,1.2003,1.1706,1.1558,1.1521,1.1223,0.0,0.0,0.0,0.0,0.0,0.0,0.0,0.0,0.0,0.0,0.0,0.0,0.0,0.0,0.0,0.0,0.0,0.0,0.0,0.0,0.0,0.0,0.0,0.0,0.5819,0.6086,0.7139,0.8746,0.9918,1.0096,1.166,1.2705,1.2705,1.2705,1.2705,1.2705,1.2705,1.2753,1.2874,1.352,1.416,1.4757,1.5908,1.6743,1.7195,1.7738,1.7993,1.7993,1.8144,1.8319,1.8518,1.8518,1.8637,0.0,1.8781,1.8441,1.7842,1.756,1.7029,0.0,0.0,0.0,0.0,0.0,1.3513,1.3513,0.0,0.0,0.0,0.0,0.0,0.0,0.0,0.0,0.0,0.0,0.0,1.6053,1.6689,1.6932,1.726,1.7828,1.7295,1.6828,1.6655,1.6053,1.6306,1.7691,1.7295,1.7329,1.7974,1.7906,1.7872,1.7872,1.7794,1.7725,1.7725,1.7535,1.7373,1.7185,1.6184,1.5251,1.4422,1.3673,1.2842,1.2003,1.1966,1.1966,1.1966,1.1781,1.1706,1.1669,1.1484,1.1335,1.1223,1.0999,0.0,0.0,0.0,0.0,0.0,0.0,0.0,0.0,0.0,0.0,0.0,0.0,0.0,0.0,0.0,0.0,0.0,0.0,0.0,0.0,0.0,0.0,0.0,0.0,0.5688,0.6127,0.7356,0.848,0.9387,0.9966,1.1617,1.2705,1.2705,1.2735,1.2753,1.2753,1.2777,1.2904,1.3107,0.0,0.0,0.0,0.0,1.7272,1.789,1.82,1.8359,1.8359,1.8676,1.8781,1.8781,1.8781,1.8781,1.8781,1.8735,1.8643,1.8496,1.7738,1.7451,1.7306,1.6056,1.5179,1.4508,1.3826,1.3604,0.0,0.0,0.0,0.0,0.0,0.0,0.0,0.0,0.0,0.0,1.4338,1.5561,1.6289,1.5983,1.7044,1.7613,1.7148,1.6966,1.6367,1.5136,1.5463,1.5816,1.6132,1.7192,1.7872,1.8008,1.7432,1.7113,1.7113,1.6446,1.6132,1.6132,1.5991,1.5824,1.5594,1.4573,1.3998,1.368,1.2879,1.2335,1.2003,1.1818,1.1744,1.1744,1.1706,1.1706,1.1669,1.1484,1.0962,1.0363,1.0013,0.9329,0.8609,0.8423,0.0,0.0,0.0,0.0,0.0,0.0,0.0,0.0,0.0,0.0,0.0,0.0,0.0,0.0,0.0,0.0,0.0,0.0,0.0,0.0,0.5733,0.5688,0.6171,0.757,0.8567,0.9605,1.0654,1.1918,1.2705,1.2705,1.291,1.2999,1.2999,1.3236,1.3381,1.3435,1.4634,0.0,1.6046,1.7334,1.8192,1.8621,1.8692,1.8678,1.8678,0.0,0.0,1.8781,1.8781,1.8781,1.8781,1.8164,1.7559,1.6958,1.619,1.5859,1.5798,1.5544,1.4986,1.4331,1.4195,1.4147,1.4147,0.0,0.0,0.0,0.0,0.0,0.0,0.0,0.0,0.0,0.0,1.4358,1.4922,1.5002,1.5781,1.6306,1.6306,1.5948,1.5384,1.451,1.4895,1.5313,1.5675,1.6837,1.7432,1.7432,1.7079,1.6897,1.6897,1.6088,1.5675,1.5604,1.5436,1.5223,1.5018,1.4034,1.3564,1.3426,1.2512,1.204,1.1818,1.1632,1.1484,1.1409,1.1409,1.1409,1.1335,1.0812,1.0325,0.9793,0.9216,0.83,0.7421,0.7349,0.6742,0.6093,0.0,0.0,0.0,0.0,0.0,0.0,0.0,0.0,0.0,0.0,0.0,0.0,0.0,0.0,0.5688,0.0,0.0,0.5688,0.5688,0.5994,0.6779,0.8305,0.9218,1.0091,1.1052,1.2172,1.2916,1.2916,1.3157,1.332,1.332,1.3441,1.3574,1.3707,1.4708,1.5428,1.5765,1.7215,1.808,1.8257,1.8643,1.8781,1.8781,1.8781,1.8781,1.8781,1.8781,1.8589,1.821,1.7878,1.7271,1.6534,1.5724,1.5201,1.4867,1.4867,1.4867,1.4819,1.4442,1.4298,1.4298,0.0,0.0,0.0,0.0,0.0,0.0,0.0,0.0,0.0,0.0,1.3119,1.3477,1.3977,1.443,1.4887,0.0,1.4859,1.4402,1.4049,1.4322,1.4752,1.5357,1.6123,1.6585,1.6585,1.6585,1.6585,1.6585,1.5921,1.5463,1.5215,1.5018,1.4768,1.4438,1.3564,1.3208,1.3135,1.2144,1.1663,1.1595,1.1298,1.1149,1.1111,1.1111,1.1111,1.0999,1.0137,0.9642,0.9216,0.8342,0.7234,0.6276,0.6237,0.578,0.5207,0.5054,0.5129,0.0,0.0,0.0,0.0,0.0,0.0,0.0,0.0,0.0,0.5688,0.5688,0.5688,0.5688,0.5688,0.5688,0.5733,0.5908,0.6432,0.743,0.917,0.9951,1.0686,1.157,1.2502,1.3101,1.3149,1.3435,1.3592,1.3592,1.364,1.3761,1.3972,1.468,1.5197,1.5378,1.6756,1.7505,1.7505,1.821,1.8496,1.8357,1.8496,1.8496,1.8357,1.8357,1.8025,1.7458,1.7311,1.685,1.6109,1.5439,1.4819,1.4298,1.4298,1.4675,1.5099,1.4532,1.4298,1.4298,0.0,0.0,0.0,0.0,0.0,0.0,0.0,0.0,0.0,0.0,0.0,0.0,0.0,0.0,0.0,1.425,1.4266,1.3977,1.3112,1.3688,1.4114,1.4186,1.4958,1.5376,1.5376,1.5401,1.5374,1.5374,1.5303,1.4911,1.423,1.4049,1.3579,1.2856,1.2372,1.2187,1.2114,1.1093,1.0944,1.1372,1.0625,1.0625,1.1111,1.1111,1.1111,1.0962,0.9976,0.9178,0.8342,0.7115,0.616,0.5398,0.5207,0.5093,0.5015,0.5018,0.0,0.5015,0.5018,0.5091,0.0,0.5361,0.545,0.5534,0.0,0.0,0.5688,0.5688,0.5688,0.5688,0.5688,0.5688,0.5908,0.6561,0.6735,0.761,0.9874,1.0446,1.1196,1.2721,1.3015,1.3173,1.3447,1.3707,1.3863,1.3863,1.4081,1.422,1.425,1.4959,1.5358,1.5384,1.6244,1.6723,1.6723,1.7458,1.7505,1.6864,1.7512,1.7466,1.6864,1.6864,1.6817,1.6676,1.5961,1.5248,1.4532,1.4436,1.4388,1.4298,1.4298,1.4346,1.4394,1.4346,1.4298,1.4298,0.0,0.0,0.0,0.0,0.0,0.0,0.0,0.0,0.0,0.0,0.0,0.0,0.0,0.0,1.3673,1.3215,1.3368,1.3258,1.2746,1.3112,1.3361,1.3361,1.4106,1.4494,1.4494,1.451,1.451,1.451,1.4086,1.3651,1.3222,1.3142,1.2813,1.2224,1.2077,1.1929,1.1781,1.1248,1.118,1.1372,1.0925,1.085,1.1037,1.0464,1.0239,1.0126,0.9216,0.8223,0.0,0.0,0.5512,0.5129,0.5015,0.5018,0.5018,0.5018,0.5018,0.0,0.5097,0.0,0.0,0.0,0.5524,0.5626,0.5677,0.5688,0.5688,0.5688,0.5688,0.5688,0.5688,0.6038,0.6432,0.0,0.7698,0.8915,1.0318,1.1219,1.2154,1.3401,1.358,1.3622,1.3731,1.3978,1.4135,1.4135,1.4238,1.4298,1.4298,1.458,1.4771,1.4771,1.5486,1.5913,1.5913,1.6669,1.6911,1.6588,1.6911,1.6904,1.6588,1.6588,1.6346,1.5866,1.5105,1.458,1.4298,1.4298,1.4298,1.425,1.3968,1.3823,1.3871,1.4202,1.4298,1.4298,0.0,0.0,0.0,0.0,0.0,0.0,0.0,0.0,0.0,0.0,0.0,0.0,0.0,0.0,1.2746,1.2526,1.2709,1.2716,1.2526,1.2636,1.2716,1.2716,1.3251,1.3535,1.3535,1.3753,1.3861,1.3861,1.3542,1.3178,1.2776,1.2776,1.2445,1.1892,1.1855,1.1744,1.1595,1.1186,1.0999,1.0962,1.0582,1.0432,1.0357,0.9556,0.9102,0.8761,0.8114,0.7268,0.0,0.0,0.5132,0.5018,0.5018,0.5018,0.5018,0.5018,0.504,0.5083,0.5165,0.0,0.0,0.5486,0.5599,0.5688,0.5688,0.5688,0.5688,0.5688,0.5688,0.5688,0.5688,0.6387,0.7,0.7085,0.8615,1.009,1.085,1.1836,1.2858,1.3805,1.3972,1.4014,1.4014,1.4183,1.4298,1.4298,1.4298,1.4298,1.4298,1.4298,1.4298,1.4298,1.4819,1.5105,1.5105,1.5866,1.6157,1.5967,1.6157,1.6157,1.5967,1.5967,1.5629,1.5057,1.4538,1.4298,1.4298,1.4154,1.4058,1.401,1.3485,1.3147,1.3044,1.342,1.3763,1.4058,0.0,0.0,0.0,0.0,0.0,0.0,0.0,0.0,0.0,0.0,0.0,0.0,0.0,0.0,1.2526,1.2342,1.2489,1.2526,1.2335,1.2305,1.2335,1.2335,1.2335,1.2342,1.2342,1.3135,1.3535,1.3535,1.4214,1.4099,1.3164,1.3164,1.2652,1.1706,1.1521,1.1409,1.1335,1.0368,0.9954,0.9879,0.9084,0.8775,0.8737,0.8537,0.7851,0.6938,0.6661,0.0,0.0,0.0,0.5018,0.5018,0.5018,0.5018,0.0,0.5018,0.5094,0.0,0.0,0.0,0.5502,0.5505,0.5599,0.5688,0.5688,0.5688,0.5688,0.5688,0.5688,0.5688,0.5688,0.6656,0.7529,0.7746,0.9183,1.0614,1.1528,1.2304,1.3049,1.3829,1.4129,1.4286,0.0,1.4292,1.4298,1.4298,1.4298,1.4298,1.4298,1.4298,1.4298,1.4298,1.4346,1.4346,1.4346,1.5057,1.5057,1.4394,1.5105,1.5057,1.4394,1.4394,1.4346,1.4346,1.4298,1.4298,1.425,1.3727,1.3539,1.3491,1.3007,1.236,1.1663,1.1658,1.2452,1.3437,0.0,0.0,0.0,0.0,0.0,0.0,0.0,0.0,0.0,0.0,0.0,0.0,0.0,0.0,0.0,0.0,1.2378,1.2378,1.2305,1.2305,1.2305,1.2305,1.2305,1.2305,1.2305,1.2556,1.2703,1.2703,1.2952,1.2915,1.2592,1.2475,1.2144,1.1706,1.1484,1.1335,1.1186,1.085,1.0406,0.9884,0.9614,0.9117,0.8423,0.7702,0.7084,0.6546,0.0,0.0,0.0,0.0,0.0,0.0,0.5018,0.0,0.0,0.5108,0.0,0.0,0.0,0.0,0.5526,0.5607,0.5659,0.5688,0.5688,0.5688,0.5688,0.5688,0.5688,0.5688,0.5688,0.7044,0.8177,0.8265,0.9531,1.0718,1.1373,1.1938,1.2548,1.3048,1.3801,0.0,0.0,0.0,0.0,1.4298,1.4298,1.4298,1.4298,1.4298,1.4298,1.4298,1.4298,1.4298,1.4298,1.4532,1.4532,1.4298,1.4532,1.4532,1.4298,1.4298,1.4298,1.4298,1.4298,1.4112,1.3775,1.3588,1.2996,1.2204,1.1668,1.0979,1.0293,1.0293,1.0538,1.093,0.0,0.0,0.0,0.0,0.0,0.0,0.0,0.0,0.0,0.0,0.0,0.0,0.0,0.0,0.0,0.0,0.0,1.2077,1.2077,1.215,1.2194,1.2194,1.2261,1.2305,1.2305,1.2305,1.2305,1.2305,1.2305,1.2224,1.2077,1.1966,1.1744,1.1484,1.1335,1.1223,1.1074,1.0775,1.0175,0.9339,0.9041,0.8309,0.7314,0.6591,0.6047,0.0,0.481,0.0,0.0,0.0,0.0,0.0,0.0,0.0,0.0,0.0,0.0,0.0,0.0,0.5508,0.5591,0.5669,0.5688,0.5688,0.5688,0.5688,0.5688,0.5688,0.5688,0.5688,0.5688,0.7088,0.8328,0.8613,0.9953,1.1219,1.1872,1.2439,1.2862,1.3219,1.3902,0.0,0.0,0.0,0.0,1.4298,1.4298,1.4298,1.4298,1.4298,1.4298,1.4298,1.4298,1.4298,1.4298,1.4298,1.4298,1.4298,1.4298,1.4298,1.4298,1.4298,1.4298,1.4298,1.4112,1.3673,1.3039,1.27,1.1863,1.0828,1.0293,0.9604,0.8867,0.8867,0.8768,0.8718,0.0,0.0,0.0,0.0,0.0,0.0,0.0,0.0,0.0,0.0,0.0,0.0,0.0,0.0,0.0,0.0,0.0,0.0,1.1706,1.1892,1.2003,1.2003,1.215,1.2268,1.2268,1.2268,1.2268,1.2268,1.2268,1.2077,1.1706,1.1706,1.1484,1.1111,1.1074,1.1037,1.0962,1.0175,0.9226,0.8266,0.7506,0.6553,0.5559,0.5359,0.481,0.4107,0.3871,0.0,0.0,0.0,0.0,0.0,0.0,0.0,0.0,0.0,0.0,0.5475,0.5409,0.5553,0.5688,0.5688,0.5688,0.5688,0.5688,0.5688,0.5688,0.5688,0.5688,0.5688,0.0,0.0,0.8015,0.8718,1.0359,1.1862,1.2804,1.3403,1.3837,0.0,0.0,0.0,0.0,0.0,0.0,1.4298,0.0,1.4298,1.4298,1.4298,1.4298,1.4298,1.4298,1.4298,1.4298,1.4298,1.4298,1.4298,1.4298,1.4298,1.425,1.425,1.4202,1.4154,1.3582,1.2894,1.2096,1.1121,1.0243,0.946,0.8913,0.8266,0.7518,0.7512,0.7217,0.6921,0.0,0.0,0.0,0.0,0.0,0.0,0.0,0.0,0.0,0.0,0.0,0.0,0.0,0.0,0.0,0.0,0.0,0.0,1.1942,1.1966,1.1929,1.1781,1.1818,1.1855,1.1855,1.1855,1.1855,1.1855,1.1855,1.1781,1.1706,1.1558,1.1409,1.1298,1.0556,1.0137,0.9938,0.9145,0.8194,0.728,0.7053,0.6325,0.5359,0.5321,0.5087,0.4701,0.4027,0.0,0.0,0.0,0.0,0.0,0.0,0.5037,0.5069,0.0,0.0,0.5428,0.5445,0.5572,0.5688,0.5688,0.5688,0.5688,0.5688,0.5688,0.5688,0.5688,0.5688,0.5777,0.0,0.0,0.0,0.8022,0.8641,0.0,0.959,1.0716,0.0,1.1815,0.0,1.4298,1.4298,1.4298,0.0,0.0,1.4298,1.4298,1.4298,1.4298,1.4298,1.4298,1.4298,1.4298,1.4298,1.4298,1.4298,1.4298,1.4298,1.4106,1.3684,1.3275,1.2829,1.2247,1.1712,1.1028,1.0293,0.9998,0.9209,0.8113,0.7902,0.7329,0.6643,0.6497,0.6415,0.632,0.0,0.0,0.0,0.0,0.0,0.0,0.0,0.0,0.0,0.0,0.0,0.0,0.0,0.0,0.0,0.0,0.0,0.0,0.0,1.1857,1.1744,1.1706,1.1706,1.1706,1.1706,1.1706,1.1706,1.1706,1.1706,1.1632,1.1558,1.1074,1.0769,1.0576,0.9642,0.915,0.8874,0.808,0.7353,0.0,0.0,0.5786,0.5168,0.5168,0.4659,0.3834,0.0,0.0,0.0,0.0,0.0,0.5018,0.5018,0.505,0.5094,0.5108,0.0,0.5427,0.5453,0.5518,0.5621,0.5675,0.5688,0.5688,0.5688,0.5688,0.5688,0.5688,0.5688,0.0,0.6038,0.0,0.0,0.0,0.0,0.0,0.989,1.075,1.1554,0.0,1.336,0.0,1.4286,1.4298,1.41,0.0,1.4052,1.4298,1.4298,1.4298,1.4298,1.4298,1.4298,1.4202,1.3968,1.3968,1.3667,1.3125,1.3125,1.278,1.2145,1.1843,1.1453,1.1014,0.0,0.98,0.8946,0.8754,0.7986,0.6955,0.6879,0.6616,0.6181,0.6111,0.6086,0.6086,0.0,0.0,0.0,0.0,0.0,0.0,0.0,0.0,0.0,0.0,0.0,0.0,0.0,0.0,0.0,0.0,0.0,0.0,0.0,0.0,1.1484,1.1595,1.1632,1.1632,1.1632,1.1632,1.1632,1.1632,1.1632,1.1484,1.126,1.0556,0.9986,0.9485,0.8685,0.8156,0.7851,0.7011,0.6549,0.6237,0.5431,0.5051,0.4979,0.0,0.0,0.0,0.0,0.0,0.0,0.0,0.4343,0.5018,0.5018,0.5086,0.5143,0.5045,0.5173,0.5385,0.5385,0.5445,0.5532,0.564,0.5677,0.5688,0.5688,0.5688,0.5688,0.5688,0.0,0.5777,0.6038,0.6257,0.678,0.8076,0.0,0.9272,1.1121,1.1678,1.2242,1.3304,1.3718,1.3996,1.422,1.413,1.3709,1.2732,1.3366,1.3859,1.3908,1.3854,1.3854,1.3956,1.3956,1.3721,1.3244,1.3141,1.2549,1.1463,1.1463,1.1014,1.0271,1.0196,1.0085,0.9987,0.0,0.0,0.7907,0.7481,0.6843,0.6083,0.6067,0.6062,0.6059,0.5902,0.5943,0.604,0.0,0.0,0.0,0.0,0.0,0.0,0.0,0.0,0.0,0.0,0.0,0.0,0.0,0.0,0.0,0.0,0.0,0.0,0.0,0.0,0.0,1.1223,1.1186,1.1186,1.1186,0.0,0.0,0.0,0.0,1.1037,1.0663,1.0519,0.9986,0.9074,0.8275,0.7468,0.6734,0.5935,0.5437,0.5207,0.438,0.4421,0.4937,0.0,0.0,0.0,0.0,0.0,0.262,0.3519,0.4343,0.5018,0.5018,0.5031,0.5042,0.5023,0.5113,0.5219,0.5219,0.5382,0.5513,0.5534,0.5615,0.5688,0.5688,0.5688,0.0,0.0,0.5688,0.5777,0.6038,0.6127,0.6311,0.6729,0.7002,0.0,0.0,0.0,1.0675,0.0,0.0,0.0,0.0,0.0,0.0,0.0,0.0,0.0,1.1707,1.1512,1.1609,1.2047,1.2052,1.2004,1.1907,1.1258,1.0814,1.0618,1.0618,1.028,0.9698,0.9158,0.856,0.7973,0.0,0.0,0.6445,0.6398,0.6244,0.6075,0.5975,0.5934,0.5831,0.4917,0.5115,0.5658,0.0,0.0,0.0,0.0,0.0,0.0,0.0,0.0,0.0,0.0,0.0,0.0,0.0,0.0,0.0,0.0,0.0,0.0,0.0,0.0,0.0,0.0,0.0,0.0,0.0,0.0,0.0,0.0,0.0,0.0,0.0,0.0,0.0,0.0,0.0,0.0,0.0,0.0,0.5093,0.0,0.0,0.0,0.0,0.0,0.0,0.0,0.0,0.0,0.1996,0.2854,0.3677,0.4462,0.4859,0.5018,0.5018,0.5018,0.5056,0.511,0.517,0.5271,0.5348,0.5475,0.5551,0.561,0.5675,0.0,0.0,0.0,0.5688,0.5777,0.6038,0.6083,0.0,0.6387,0.652,0.6741,0.0,0.0,0.0,0.0,0.0,0.0,0.0,0.0,0.0,0.0,0.0,0.0,1.0769,1.0672,1.0721,1.0965,1.0965,1.0818,1.0538,1.0186,0.9596,0.887,0.887,0.8493,0.7746,0.7436,0.712,0.6736,0.0,0.0,0.5944,0.5474,0.521,0.5112,0.4559,0.4359,0.4264,0.3774,0.3851,0.4164,0.0,0.0,0.0,0.0,0.0,0.0,0.0,0.0,0.0,0.0,0.0,0.0,0.0,0.0,0.0,0.0,0.0,0.0,0.0,0.0,0.0,0.0,0.0,0.0,0.0,0.0,0.0,0.0,0.0,0.0,0.0,0.0,0.0,0.0,0.0,0.0,0.0,0.0,0.0,0.0,0.0,0.0,0.0,0.0,0.0,0.0,0.0,0.0,0.0,0.0,0.3207,0.4185,0.4818,0.5018,0.5018,0.5018,0.5018,0.5037,0.5127,0.5167,0.5233,0.5383,0.5296,0.5221,0.5331,0.5206,0.0,0.0,0.5267,0.5463,0.5683,0.5905,0.6169,0.0,0.6387,0.6647,0.7394,0.0,0.0,0.0,0.0,0.0,0.0,0.0,0.0,0.0,0.0,0.0,0.9583,0.9784,0.9882,0.9784,0.9792,0.9584,0.9158,0.8973,0.8306,0.718,0.718,0.6697,0.58,0.5774,0.562,0.543,0.0,0.0,0.0,0.4443,0.4087,0.3941,0.3181,0.2911,0.2867,0.2644,0.2732,0.2867,0.0,0.0,0.0,0.0,0.0,0.0,0.0,0.0,0.0,0.0,0.0,0.0,0.0,0.0,0.0,0.0,0.0,0.0,0.0,0.0,0.0,0.0,0.0,0.0,0.0,0.0,0.0,0.0,0.0,0.0,0.0,0.0,0.0,0.0,0.0,0.0,0.0,0.0,0.0,0.0,0.0,0.0,0.0,0.0,0.0,0.0,0.0,0.0,0.0,0.0,0.0,0.4898,0.4979,0.5018,0.5018,0.5018,0.0,0.0,0.5029,0.5108,0.5192,0.5214,0.4711,0.4228,0.4238,0.0,0.0,0.3144,0.3844,0.4433,0.4476,0.5369,0.6127,0.0,0.6299,0.6428,0.6517,0.7261,0.0,0.0,0.0,0.0,0.0,0.0,0.0,0.0,0.0,0.0,0.0,0.7836,0.8131,0.7875,0.7794,0.7724,0.7676,0.6837,0.6348,0.6242,0.6242,0.576,0.4845,0.4709,0.416,0.3279,0.0,0.0,0.0,0.3099,0.3051,0.3001,0.2913,0.2911,0.2778,0.1883,0.2107,0.2777,0.0,0.0,0.0,0.0,0.0,0.0,0.0,0.0,0.0,0.0,0.0,0.0,0.0,0.0,0.0,0.0,0.0,0.0,0.0,0.0,0.0,0.0,0.0,0.0,0.0,0.0,0.0,0.0,0.0,0.0,0.0,0.0,0.0,0.0,0.0,0.0,0.0,0.0,0.0,0.0,0.0,0.0,0.0,0.0,0.0,0.0,0.0,0.0,0.0,0.0,0.0,0.0,0.4701,0.5018,0.0,0.0,0.5018,0.5018,0.5018,0.469,0.4377,0.44,0.3821,0.3295,0.3353,0.0,0.2891,0.2904,0.3188,0.3441,0.3441,0.4297,0.5013,0.5013,0.5547,0.5994,0.5994,0.6435,0.0,0.0,0.0,0.0,0.0,0.0,0.0,0.0,0.0,0.0,0.0,0.6662,0.6807,0.6707,0.6655,0.6387,0.5809,0.5436,0.4913,0.4247,0.4247,0.4037,0.3623,0.3549,0.3308,0.2944,0.0,0.0,0.0,0.224,0.2017,0.1928,0.139,0.1166,0.1122,0.0718,0.0808,0.1077,0.0,0.0,0.0,0.0,0.0,0.0,0.0,0.0,0.0,0.0,0.0,0.0,0.0,0.0,0.0,0.0,0.0,0.0,0.0,0.0,0.0,0.0,0.0,0.0,0.0,0.0,0.0,0.0,0.0,0.0,0.0,0.0,0.0,0.0,0.0,0.0,0.0,0.0,0.0,0.0,0.0,0.0,0.0,0.0,0.0,0.0,0.0,0.0,0.0,0.0,0.0,0.0,0.4623,0.5018,0.5018,0.0,0.5018,0.4937,0.4701,0.4226,0.3769,0.3554,0.2864,0.2317,0.0,0.0,0.2063,0.2039,0.2267,0.2466,0.2475,0.3239,0.3868,0.3892,0.4433,0.4882,0.4882,0.528,0.5547,0.0,0.0,0.0,0.0,0.0,0.0,0.0,0.0,0.0,0.0,0.5139,0.5307,0.5653,0.5341,0.4853,0.4192,0.4169,0.3757,0.2972,0.2972,0.277,0.2464,0.2464,0.2286,0.0,0.0,0.0,0.0,0.1256,0.0987,0.0942,0.0269,0.0,0.0,0.0,0.0,-0.0045,0.0,0.0,0.0,0.0,0.0,0.0,0.0,0.0,0.0,0.0,0.0,0.0,0.0,0.0,0.0,0.0,0.0,0.0,0.0,0.0,0.0,0.0,0.0,0.0,0.0,0.0,0.0,0.0,0.0,0.0,0.0,0.0,0.0,0.0,0.0,0.0,0.0,0.0,0.0,0.0,0.0,0.0,0.0,0.0,0.0,0.0,0.0,0.0,0.0,0.0,0.0,0.0,0.0,0.5018,0.5018,0.5018,0.5018,0.4818,0.4027,0.3791,0.3597,0.2738,0.1914,0.1332,0.0,0.0,0.0042,0.0041,0.0787,0.1397,0.1428,0.2258,0.2928,0.2902,0.2913,0.2913,0.2913,0.3717,0.0,0.0,0.0,0.0,0.0,0.0,0.0,0.0,0.0,0.0,0.0,0.0,0.3469,0.4699,0.3637,0.3044,0.2998,0.2942,0.2914,0.2913,0.2913,0.2376,0.1436,0.1436,0.0,0.0,0.0,0.0,0.0,0.0,0.0,0.0,0.0,0.0,0.0,0.0,0.0,-0.0135,0.0,0.0,0.0,0.0,0.0,0.0,0.0,0.0,0.0,0.0,0.0,0.0,0.0,0.0,0.0,0.0,0.0,0.0,0.0,0.0,0.0,0.0,0.0,0.0,0.0,0.0,0.0,0.0,0.0,0.0,0.0,0.0,0.0,0.0,0.0,0.0,0.0,0.0,0.0,0.0,0.0,0.0,0.0,0.0,0.0,0.0,0.0,0.0,0.0,0.0,0.0,0.0,0.0,0.0,0.0,0.5018,0.4621,0.0,0.3871,0.2973,0.2035,0.1761,0.1025,0.0396,0.0393,0.0199,0.0,0.0,0.0245,0.0455,0.0424,0.1247,0.1871,0.1884,0.2442,0.2911,0.0,0.0,0.0,0.0,0.0,0.0,0.0,0.0,0.0,0.0,0.0,0.0,0.0,0.0,0.2344,0.3424,0.313,0.2623,0.19,0.1889,0.1569,0.0898,0.0898,0.0404,-0.0493,-0.0493,0.0,0.0,0.0,0.0,0.0,-0.1973,-0.1973,-0.2017,-0.215,-0.2193,-0.2193,-0.2415,-0.2458,-0.2458,0.0,0.0,0.0,0.0,0.0,0.0,0.0,0.0,0.0,0.0,0.0,0.0,0.0,0.0,0.0,0.0,0.0,0.0,0.0,0.0,0.0,0.0,0.0,0.0,0.0,0.0,0.0,0.0,0.0,0.0,0.0,0.0,0.0,0.0,0.0,0.0,0.0,0.0,0.0,0.0,0.0,0.0,0.0,0.0,0.0,0.0,0.0,0.0,0.0,0.0,0.0,0.0,0.0,0.0,0.0,0.0,0.4423,0.0,0.3402,0.2543,0.1566,0.0862,0.0275,0.0,0.0,-0.0432,-0.0709,-0.06,-0.0842,-0.0969,-0.0662,-0.0084,0.0468,0.0824,0.1406,0.0,0.0,0.0,0.0,0.0,0.0,0.0,0.0,0.0,0.0,0.0,0.0,0.0,0.0,0.0,0.0628,0.1254,0.1613,0.1525,0.0898,0.0538,0.0045,-0.0539,-0.0898,-0.1391,-0.1973,0.0,0.0,0.0,0.0,0.0,0.0,-0.3132,-0.3175,-0.3175,-0.3307,-0.335,-0.335,-0.3527,-0.3614,-0.3614,0.0,0.0,0.0,0.0,0.0,0.0,0.0,0.0,0.0,0.0,0.0,0.0,0.0,0.0,0.0,0.0,0.0,0.0,0.0,0.0,0.0,0.0,0.0,0.0,0.0,0.0,0.0,0.0,0.9468,0.9208,0.0,0.0,0.0,0.0,0.0,0.0,0.0,0.0,0.0,0.0,0.0,0.0,0.0,0.0,0.0,0.0,0.0,0.0,0.0,0.0,0.0,0.0,0.0,0.0,0.0,0.0,0.0,0.0,0.0,0.0,0.0,0.0,0.0,0.0,0.0,-0.1138,0.0,-0.1646,-0.2232,-0.2561,-0.1815,-0.1541,-0.1112,-0.0301,0.0,0.0,0.0,0.0,0.0,0.0,0.0,0.0,0.0,0.0,0.0,0.0,0.0,0.0,0.0,0.0,0.0,-0.1524,-0.0673,-0.0225,-0.0225,-0.1077,-0.1524,-0.1524,-0.2464,-0.2956,-0.3001,0.0,0.0,0.0,0.0,0.0,0.0,-0.3705,-0.3792,-0.3792,-0.3879,-0.3926,-0.3926,-0.4013,-0.4057,-0.419,0.0,0.0,0.0,0.0,0.0,0.0,0.0,0.0,0.0,0.0,0.0,0.0,0.0,0.0,0.0,0.0,0.0,0.0,0.0,0.0,0.0,0.0,0.0,0.0,0.0,0.0,0.0,0.9435,0.9051,0.836,0.7476,0.7472,0.0,0.0,0.0,0.0,0.0,0.0,0.0,0.0,0.0,0.0,0.0,0.0,0.0,0.0,0.5018,0.0,0.0,0.0,0.0,0.0,0.0,0.0,0.0,0.0,0.4859,0.0,0.0,0.0,0.0,0.0,0.0,0.0,0.0,-0.1256,-0.1882,-0.1842,-0.2349,-0.2744,-0.2563,-0.2363,-0.2157,-0.1934,0.0,0.0,0.0,0.0,0.0,0.0,0.0,0.0,0.0,0.0,0.0,0.0,0.0,0.0,0.0,0.0,0.0,-0.2553,-0.2331,-0.2196,-0.2196,-0.2419,-0.2553,-0.2553,-0.2955,-0.3489,-0.4204,0.0,0.0,0.0,0.0,0.0,-0.5669,-0.5714,-0.5758,-0.5847,-0.6763,-0.7112,-0.7244,-0.8114,-0.842,-0.842,0.0,0.0,0.0,0.0,0.0,0.0,0.0,0.0,0.0,0.0,0.0,0.0,0.0,0.0,0.0,0.0,0.0,0.0,0.0,0.0,0.0,0.0,0.0,0.0,0.0,0.0,0.0,0.0,0.0,0.8318,0.0,0.0,0.0,0.0,0.0,0.0,0.0,0.0,0.0,0.0,0.0,0.0,0.0,0.0,0.0,0.0,0.5018,0.5018,0.0,0.5018,0.5018,0.5018,0.0,0.0,0.0,0.0,0.5018,0.0,0.0,0.0,0.0,0.0706,0.0039,-0.0589,-0.1216,-0.2077,-0.2818,-0.3012,-0.3599,-0.3951,-0.3482,-0.3321,-0.3082,0.0,0.0,0.0,0.0,0.0,0.0,0.0,0.0,0.0,0.0,0.0,0.0,0.0,0.0,0.0,0.0,0.0,-0.3537,0.0,-0.4072,-0.3894,-0.2911,-0.3315,-0.3582,-0.3714,-0.4291,-0.4825,-0.545,0.0,0.0,0.0,0.0,0.0,-0.6612,-0.6697,-0.6959,-0.7441,-0.8097,-0.8619,-0.9052,-0.9662,-0.9879,-0.9879,0.0,0.0,0.0,0.0,0.0,0.0,0.0,0.0,0.0,0.0,0.0,0.0,0.0,0.0,0.0,0.0,0.0,0.0,0.0,0.0,0.0,0.0,0.0,0.0,0.0,0.0,0.0,0.0,0.0,0.0,0.0,0.0,0.0,0.0,0.0,0.0,0.0,0.0,0.0,0.0,0.0,0.0,0.0,0.0,0.0,0.0,0.0,0.0,0.0,0.5018,0.5018,0.5018,0.5018,0.0,0.0,0.0,0.0,0.0,0.0,0.36,0.2113,0.0706,-0.0118,-0.0864,-0.1961,-0.3015,-0.3908,-0.4373,-0.5043,-0.5323,-0.4499,-0.4263,0.0,0.0,0.0,0.0,0.0,0.0,0.0,0.0,0.0,0.0,0.0,0.0,0.0,0.0,0.0,0.0,0.0,0.0,0.0,-0.5048,-0.603,-0.5714,-0.3887,-0.4516,-0.4961,-0.5181,-0.6163,-0.6741,-0.6912,-0.6912,0.0,0.0,0.0,0.0,-0.7272,-0.7445,-0.8013,-0.8715,-0.889,-0.9405,-1.0139,-1.0269,-1.0313,-1.0356,0.0,0.0,0.0,0.0,0.0,0.0,0.0,0.0,0.0,0.0,0.0,0.0,0.0,0.0,0.0,0.0,0.0,0.0,0.0,0.0,0.0,0.0,0.0,0.0,0.0,0.0,0.0,0.0,0.0,0.0,0.7373,0.7173,0.6356,0.0,0.0,0.0,0.0,0.0,0.0,0.0,0.0,0.0,0.0,0.0,0.0,0.0,0.0,0.0,0.0,0.5018,0.5018,0.5018,0.5018,0.0,0.0,0.0,0.0,0.0,0.368,0.2817,0.2189,0.1917,0.0627,-0.0864,-0.1961,-0.3015,-0.3947,-0.453,-0.5162,-0.5559,-0.5401,-0.509,-0.4862,0.0,0.0,0.0,0.0,0.0,0.0,0.0,0.0,0.0,0.0,0.0,0.0,0.0,0.0,0.0,0.0,0.0,0.0,-0.8424,-0.8646,-0.8555,-0.8241,-0.7603,-0.7302,-0.7346,-0.8488,-0.91,-0.91,-0.927,-0.9353,0.0,0.0,-0.9444,-0.9444,-0.9444,-0.9575,-0.9749,-1.0539,-1.0977,-1.1192,-1.1966,-1.2272,-1.2394,0.0,0.0,0.0,0.0,0.0,0.0,0.0,0.0,0.0,0.0,0.0,0.0,0.0,0.0,0.0,0.0,0.0,0.0,0.0,0.0,0.0,0.0,0.0,0.0,0.0,0.0,0.0,0.0,0.0,0.8102,0.7492,0.6826,0.6472,0.6321,0.0,0.0,0.0,0.0,0.0,0.0,0.0,0.0,0.0,0.0,0.0,0.0,0.0,0.0,0.0,0.0,0.4659,0.4623,0.4428,0.0,0.0,0.0,0.0,0.0,0.321,0.2506,0.1918,0.1448,0.0274,-0.1177,-0.2701,-0.3441,-0.4066,-0.5004,-0.5401,-0.5559,-0.544,0.0,-0.5388,-0.5528,0.0,0.0,0.0,0.0,0.0,0.0,0.0,0.0,0.0,0.0,0.0,0.0,0.0,0.0,0.0,0.0,0.0,0.0,-0.9348,-0.9396,-0.9396,-0.9618,-0.9405,-0.8794,-0.9318,-0.9666,-0.9749,-0.9879,-0.9879,-0.9879,0.0,-0.9879,-0.9879,-0.9879,-1.0188,-1.0712,-1.1149,-1.1918,-1.2857,-1.3789,-1.4174,-1.4216,0.0,0.0,0.0,0.0,0.0,0.0,0.0,0.0,0.0,0.0,0.0,0.0,0.0,0.0,0.0,0.0,0.0,0.0,0.0,0.0,0.0,0.0,0.0,0.0,0.0,0.0,0.0,0.7949,0.8063,0.7991,0.7765,0.6903,0.6861,0.0,0.0,0.0,0.0,0.0,0.0,0.0,0.0,0.0,0.0,0.0,0.0,0.0,0.0,0.0,0.0,0.0,0.0,0.0,0.0,0.0,0.0,0.3802,0.3802,0.3604,0.274,0.1996,0.1214,0.0274,-0.0392,-0.1295,-0.3246,-0.3713,-0.4066,-0.5398,-0.5676,-0.5595,0.0,-0.544,0.0,0.0,0.0,0.0,0.0,0.0,0.0,0.0,0.0,0.0,0.0,0.0,0.0,0.0,0.0,0.0,0.0,0.0,0.0,0.0,-1.0221,-1.0318,-1.0318,-1.1187,-1.1058,-1.0019,-1.0231,-1.0404,-1.0572,-1.0572,-1.0654,-1.0864,-1.0864,-1.0994,-1.1203,-1.1203,-1.1601,-1.2254,-1.2254,-1.3105,-1.442,-1.5137,-1.5394,-1.5436,0.0,0.0,0.0,0.0,0.0,0.0,0.0,0.0,0.0,0.0,0.0,0.0,0.0,0.0,0.0,0.0,0.0,0.0,0.0,0.0,0.0,0.0,0.0,0.0,0.0,0.7991,0.791,0.7561,0.791,0.7991,0.7804,0.7526,0.7446,0.0,0.0,0.0,0.0,0.0,0.0,0.0,0.0,0.0,0.0,0.0,0.0,0.0,0.0,0.0,0.0,0.0,0.0,0.0,0.0,0.0,0.3802,0.3802,0.3802,0.3487,0.2077,0.0939,-0.0156,-0.1409,-0.102,-0.0902,-0.2971,-0.3437,-0.3906,-0.5547,-0.5864,0.0,0.0,-0.544,0.0,0.0,0.0,0.0,0.0,0.0,0.0,0.0,0.0,0.0,0.0,0.0,0.0,0.0,0.0,0.0,0.0,0.0,0.0,0.0,0.0,-1.2485,-1.2485,-1.2577,-1.21,-1.1192,-1.2057,-1.2485,-1.2485,-1.2485,-1.2948,-1.3698,-1.3698,-1.4203,-1.5005,-1.5005,-1.5047,-1.5095,-1.5095,-1.5179,-1.5311,-1.5394,-1.5394,-1.5519,0.0,0.0,0.0,0.0,0.0,0.0,0.0,0.0,0.0,0.0,0.0,0.0,0.0,0.0,0.0,0.0,0.0,0.0,0.0,0.0,0.0,0.0,0.0,0.7522,0.7603,0.768,0.7638,0.7484,0.7638,0.768,0.7603,0.7522,0.0,0.0,0.0,0.0,0.0,0.0,0.0,0.0,0.0,0.0,0.0,0.0,0.0,0.0,0.0,0.0,0.0,0.0,0.3606,0.3528,0.3136,0.2979,0.2979,0.2979,0.2743,0.2234,0.1255,0.051,-0.0196,-0.1059,-0.1177,-0.1646,-0.375,-0.4217,-0.4491,-0.5515,-0.5825,0.0,0.0,0.0,0.0,0.0,0.0,0.0,0.0,0.0,0.0,0.0,0.0,0.0,0.0,0.0,0.0,0.0,0.0,0.0,0.0,0.0,0.0,0.0,0.0,-1.2954,-1.3499,-1.3499,-1.3626,-1.3824,-1.3082,-1.2705,-1.2705,-1.3245,-1.3711,-1.4041,-1.4636,-1.5054,-1.5394,-1.5394,-1.5394,-1.5436,-1.6008,-1.6453,-1.6895,-1.744,-1.7876,-1.8252,0.0,0.0,0.0,0.0,0.0,0.0,0.0,0.0,0.0,0.0,0.0,0.0,0.0,0.0,0.0,0.0,0.0,0.0,0.0,0.0,0.0,0.0,0.0,0.7633,0.7863,0.7863,0.7748,0.7484,0.7561,0.7603,0.7603,0.0,0.0,0.0,0.0,0.0,0.0,0.0,0.0,0.0,0.0,0.0,0.0,0.0,0.0,0.0,0.0,0.0,0.0,0.0,0.3102,0.3023,0.2628,0.2511,0.247,0.2275,0.1921,0.1411,0.0549,-0.0078,-0.0706,-0.1491,-0.2155,-0.301,-0.4688,-0.4841,-0.4844,-0.5634,-0.5828,-0.575,-0.5556,0.0,0.0,0.0,0.0,0.0,0.0,0.0,0.0,0.0,0.0,0.0,0.0,0.0,0.0,0.0,0.0,0.0,0.0,0.0,0.0,0.0,0.0,0.0,-1.4104,-1.4104,-1.4433,-1.5053,-1.3816,-1.3333,-1.3591,-1.4174,-1.4587,-1.4873,-1.5545,-1.5966,-1.6221,-1.6221,-1.6221,-1.6296,-1.7107,-1.7715,-1.8198,-1.8975,-1.9569,-1.9904,0.0,0.0,0.0,0.0,0.0,0.0,0.0,0.0,0.0,0.0,0.0,0.0,0.0,0.0,0.0,0.0,0.0,0.0,0.0,0.0,0.0,0.0,0.0,0.7863,0.8665,0.8699,0.8322,0.7522,0.7684,0.7804,0.7804,0.0,0.0,0.0,0.0,0.0,0.0,0.0,0.0,0.0,0.0,0.0,0.0,0.0,0.0,0.0,0.0,0.0,0.0,0.0,0.3102,0.3023,0.2628,0.247,0.2353,0.1763,0.1568,0.1293,0.0039,-0.094,-0.1916,-0.3093,-0.4068,-0.4921,-0.5705,-0.5115,-0.4763,-0.6022,-0.5909,-0.5521,-0.5321,0.0,0.0,0.0,0.0,0.0,0.0,0.0,0.0,0.0,0.0,0.0,0.0,0.0,0.0,0.0,0.0,0.0,0.0,0.0,0.0,0.0,0.0,0.0,-1.4287,-1.4318,-1.4326,-1.4326,-1.4326,-1.4692,-1.5387,-1.5387,-1.5869,-1.669,-1.6683,-1.7188,-1.7991,-1.7983,-1.7983,-1.8063,-1.8745,-1.8984,-1.9063,-1.9668,-1.9924,-1.9924,0.0,0.0,0.0,0.0,0.0,0.0,0.0,0.0,0.0,0.0,0.0,0.0,0.0,0.0,0.0,0.0,0.0,0.0,0.0,0.0,0.0,0.0,0.0,0.0,0.0,0.0,0.8016,0.836,0.7829,0.7642,0.0,0.0,0.0,0.8327,0.0,0.0,0.0,0.0,0.0,0.0,0.0,0.0,0.0,0.0,0.0,0.0,0.0,0.0,0.0,0.0,0.0,0.0,0.1921,0.1529,0.102,0.0274,-0.0274,-0.0743,-0.1095,-0.215,-0.3049,-0.2665,-0.3638,-0.4763,-0.4999,-0.516,-0.5359,-0.5715,-0.5482,-0.521,-0.5282,0.0,0.0,0.0,0.0,0.0,0.0,0.0,0.0,0.0,0.0,0.0,0.0,0.0,0.0,0.0,0.0,0.0,0.0,0.0,0.0,0.0,0.0,0.0,-1.5204,-1.5204,-1.5512,-1.6149,-1.6149,-1.5591,-1.4641,-1.5268,-1.5693,-1.5968,-1.6569,-1.7012,-1.7252,-1.7611,-1.7802,-1.784,-1.8496,-1.8986,-1.9443,-2.0079,-2.0637,-2.1083,0.0,0.0,0.0,0.0,0.0,0.0,0.0,0.0,0.0,0.0,0.0,0.0,0.0,0.0,0.0,0.0,0.0,0.0,0.0,0.0,0.0,0.0,0.0,0.0,0.0,0.7978,0.8208,0.0,0.0,0.0,0.0,0.0,0.0,0.8513,0.0,0.0,0.0,0.0,0.0,0.0,0.0,0.0,0.0,0.0,0.0,0.0,0.0,0.0,0.0,0.0,0.0,0.0,0.09,0.0431,-0.0078,-0.1171,-0.1757,-0.2148,-0.2383,-0.3125,-0.3713,-0.3405,-0.4066,-0.4846,-0.5004,-0.5398,0.0,0.0,-0.5285,-0.5132,0.0,0.0,0.0,0.0,0.0,0.0,0.0,0.0,0.0,0.0,0.0,0.0,0.0,0.0,0.0,0.0,0.0,0.0,0.0,0.0,0.0,0.0,0.0,0.0,-1.5671,-1.5671,-1.5939,-1.6473,-1.6473,-1.591,-1.4939,-1.5737,-1.6239,-1.6497,-1.7241,-1.7587,-1.7587,-1.7905,-1.8054,-1.8128,-1.9029,-1.9574,-2.0022,-2.097,-2.154,-2.1954,0.0,0.0,0.0,0.0,0.0,0.0,0.0,0.0,0.0,0.0,0.0,0.0,0.0,0.0,0.0,0.0,0.0,0.0,0.0,0.0,0.0,0.0,0.0,0.0,0.0,0.0,0.0,0.0,0.0,0.0,0.0,0.0,1.0094,0.8737,0.0,0.9846,0.0,0.0,0.0,0.0,0.0,0.0,0.0,0.0,0.0,0.0,0.0,0.0,0.0,0.0,0.0,0.0,-0.0274,-0.0781,-0.1171,-0.2575,-0.3005,-0.312,-0.374,-0.3941,-0.4181,-0.4833,-0.5035,-0.516,-0.5521,-0.5712,-0.5747,-0.5359,0.0,0.0,0.0,0.0,0.0,0.0,0.0,0.0,0.0,0.0,0.0,0.0,0.0,0.0,0.0,0.0,0.0,0.0,0.0,0.0,0.0,0.0,0.0,0.0,0.0,0.0,-1.5797,-1.5805,-1.5805,0.0,-1.5805,-1.5832,-1.5893,-1.6581,-1.7182,-1.7713,-1.8248,-1.8478,-1.8478,-1.8551,-1.8624,-1.8797,-2.0007,-2.0491,-2.0691,-2.1981,-2.2478,-2.25,0.0,0.0,0.0,0.0,0.0,0.0,0.0,0.0,0.0,0.0,0.0,0.0,0.0,0.0,0.0,0.0,0.0,0.0,0.0,0.0,0.0,0.0,0.0,0.0,0.0,0.0,0.0,0.0,0.0,0.0,0.0,0.0,0.0,0.8703,0.0,0.9311,0.0,0.0,0.0,0.0,0.0,0.0,0.0,0.0,0.0,0.0,0.0,0.0,0.0,0.0,0.0,0.0,-0.1289,-0.2187,-0.3281,-0.4258,-0.453,-0.4552,-0.4581,-0.516,-0.5607,-0.4998,-0.5278,-0.567,-0.5598,-0.5518,-0.5359,-0.5129,-0.5054,0.0,0.0,0.0,0.0,0.0,0.0,0.0,0.0,0.0,0.0,0.0,0.0,0.0,0.0,0.0,0.0,0.0,0.0,0.0,0.0,0.0,0.0,0.0,0.0,-1.562,-1.5805,-1.5805,-1.5805,0.0,-1.5805,-1.6035,-1.6447,-1.6572,-1.6971,-1.7462,-1.7612,-1.7647,-1.7681,-1.8168,-1.8674,-1.9232,-1.9893,-2.049,-2.1078,-2.187,-2.2293,-2.2493,0.0,0.0,0.0,0.0,0.0,0.0,0.0,0.0,0.0,0.0,0.0,0.0,0.0,0.0,0.0,0.0,0.0,0.0,0.0,0.0,0.0,0.0,0.0,0.0,0.0,0.0,0.0,0.0,0.0,0.0,0.0,0.0,0.0,0.8589,0.0,0.9501,0.0,0.0,0.0,0.0,0.0,0.0,0.0,0.0,0.0,0.0,0.0,0.0,0.0,0.0,0.0,0.0,0.0,0.0,-0.4535,-0.5395,-0.5547,-0.5477,-0.5407,-0.5694,-0.5962,-0.5501,-0.5641,-0.5864,-0.5634,-0.544,-0.5243,-0.5054,0.0,0.0,0.0,0.0,0.0,0.0,0.0,0.0,0.0,0.0,0.0,0.0,0.0,0.0,0.0,0.0,0.0,0.0,0.0,0.0,0.0,0.0,0.0,0.0,-1.5576,-1.5805,-1.5805,-1.5805,-1.5938,-1.6167,-1.6167,-1.6621,-1.7398,-1.7398,-1.7579,-1.7862,-1.809,-1.8385,-1.871,-1.9021,-1.9573,-2.0215,-2.0814,-2.1259,-2.1647,-2.2341,-2.272,-2.2914,0.0,0.0,0.0,0.0,0.0,0.0,0.0,0.0,0.0,0.0,0.0,0.0,0.0,0.0,0.0,0.0,0.0,0.0,0.0,0.0,0.0,0.0,0.0,0.0,0.0,0.0,0.0,0.0,0.0,0.0,0.0,0.0,0.0,0.8441,0.0,0.0,0.0,0.0,0.0,0.0,0.0,0.0,0.0,0.0,0.0,0.0,0.0,0.0,0.1993,-0.0703,0.0,0.0,0.0,0.0,-0.5586,-0.6444,-0.6563,-0.6392,-0.6367,-0.6168,-0.5982,-0.6168,-0.6118,-0.6024,-0.6015,-0.5864,-0.5628,-0.5476,0.0,0.0,0.0,0.0,0.0,0.0,0.0,0.0,0.0,0.0,0.0,0.0,0.0,0.0,0.0,0.0,0.0,0.0,0.0,0.0,0.0,0.0,-1.5805,-1.5805,-1.5805,-1.5832,-1.5938,-1.5938,-1.6202,-1.6742,-1.6846,-1.7398,-1.8303,-1.8539,-1.8539,-1.8472,-1.9031,-1.9584,-2.0096,-2.0226,-2.0677,-2.1345,-2.1885,-2.2206,-2.2402,-2.2944,-2.3348,-2.3628,0.0,0.0,0.0,0.0,0.0,0.0,0.0,0.0,0.0,0.0,0.0,0.0,0.0,0.0,0.0,0.0,0.0,0.0,0.0,0.0,0.0,0.0,0.0,0.0,0.0,0.0,0.0,0.0,0.0,0.0,0.0,0.0,0.0,0.8403,0.0,0.0,0.0,0.0,0.0,0.0,0.0,0.0,0.0,0.0,0.0,0.0,0.0,0.0,0.0,-0.1054,-0.2929,0.0,0.0,0.0,0.0,-0.8127,-0.8211,-0.7974,-0.7843,-0.7162,-0.658,-0.694,-0.6775,-0.6716,0.0,0.0,-0.7195,0.0,0.0,0.0,0.0,0.0,0.0,0.0,0.0,0.0,0.0,0.0,0.0,0.0,0.0,0.0,0.0,0.0,0.0,0.0,0.0,0.0,0.0,-1.5805,-1.5805,-1.5805,-1.5805,-1.6035,-1.6508,-1.6508,-1.6751,-1.7304,-1.7818,-1.8168,-1.8337,-1.9386,-1.9551,-1.9031,-1.9682,-2.0009,-2.0139,-2.0741,-2.1365,-2.199,-2.2082,-2.2555,-2.3241,-2.333,-2.3839,-2.4538,0.0,0.0,0.0,0.0,0.0,0.0,0.0,0.0,0.0,0.0,0.0,0.0,0.0,0.0,0.0,0.0,0.0,0.0,0.0,0.0,0.0,0.0,0.0,0.0,0.0,0.0,0.0,0.0,0.0,0.0,0.0,0.7165,0.7591,0.0,0.0,0.0,0.0,0.0,0.0,0.0,0.0,0.0,0.0,0.0,0.0,0.0,0.0,0.0,0.0,0.0,0.0,0.0,0.0,0.0,0.0,0.0,-0.8336,-0.8106,-0.7781,-0.7468,-0.7254,-0.7425,-0.7447,-0.7479,-0.7792,-0.7774,-0.7651,0.0,0.0,0.0,0.0,0.0,0.0,0.0,0.0,0.0,0.0,0.0,0.0,0.0,0.0,0.0,0.0,0.0,0.0,0.0,0.0,0.0,-1.577,-1.5805,-1.5805,-1.5805,-1.5805,-1.607,-1.6603,-1.6603,-1.7054,-1.7896,-1.8472,-1.8965,-1.932,-1.9868,-1.9944,-1.9715,-2.0355,-2.0858,-2.1227,-2.1553,-2.2063,-2.2689,-2.2781,-2.3275,-2.3897,-2.3985,-2.4509,-2.5203,0.0,0.0,0.0,0.0,0.0,0.0,0.0,0.0,0.0,0.0,0.0,0.0,0.0,0.0,0.0,0.0,0.0,0.0,0.0,0.0,0.0,0.0,0.0,0.0,0.0,0.0,0.0,0.0,0.0,0.0,0.5893,0.6044,0.6472,0.0,0.7053,0.0,0.0,0.0,0.0,0.0,0.0,0.0,0.0,0.0,0.0,0.0,0.0,0.0,0.0,0.0,0.0,0.0,0.0,0.0,0.0,0.0,0.0,-0.8438,-0.7848,-0.7758,-0.7856,-0.7976,-0.8025,-0.8105,0.0,0.0,0.0,0.0,0.0,0.0,0.0,0.0,0.0,0.0,0.0,0.0,0.0,0.0,0.0,0.0,0.0,0.0,0.0,0.0,0.0,0.0,0.0,0.0,-1.5805,-1.5805,-1.5805,-1.5805,-1.5938,-1.6272,-1.6811,-1.7192,-1.7808,-1.864,-1.9131,-1.9682,-2.0323,-2.0484,-2.0634,-2.0762,-2.1239,-2.1741,-2.2224,-2.2421,-2.2781,-2.3258,-2.3556,-2.3985,-2.4423,-2.4681,-2.5259,-2.5864,0.0,0.0,0.0,0.0,0.0,0.0,0.0,0.0,0.0,0.0,0.0,0.0,0.0,0.0,0.0,0.0,0.0,0.0,0.0,0.0,0.0,0.0,0.0,0.0,0.0,0.0,0.0,0.0,0.0,0.0,0.5082,0.5082,0.5118,0.5157,0.5535,0.6153,0.6903,0.0,0.0,0.0,0.0,0.0,0.0,0.0,0.0,0.0,0.0,0.0,0.0,0.0,0.0,0.0,0.0,0.0,0.0,0.0,0.0,0.0,-0.869,-0.8306,-0.8266,-0.8714,-0.8557,-0.859,0.0,0.0,0.0,0.0,0.0,0.0,0.0,0.0,0.0,0.0,0.0,0.0,0.0,0.0,0.0,0.0,0.0,0.0,0.0,0.0,0.0,0.0,0.0,0.0,-1.5805,-1.5805,-1.5805,-1.5805,-1.6307,-1.6821,-1.7339,-1.8764,-1.9473,-1.9539,-1.9879,-2.0312,-2.089,-2.1534,-2.2051,-2.247,-2.2359,-2.2421,-2.2634,-2.3275,-2.3526,-2.3616,-2.4205,-2.4538,-2.4766,-2.5315,-2.6014,-2.6642,0.0,0.0,0.0,0.0,0.0,0.0,0.0,0.0,0.0,0.0,0.0,0.0,0.0,0.0,0.0,0.0,0.0,0.0,0.0,0.0,0.0,0.0,0.0,0.0,0.0,0.0,0.0,0.0,0.0,0.4999,0.4222,0.4222,0.4068,0.3802,0.4535,0.5157,0.5664,0.5234,0.0,0.0,0.0,0.0,0.0,0.0,0.0,0.0,0.0,0.0,0.0,0.0,0.0,0.0,0.0,0.0,0.0,0.0,0.0,-0.9571,-0.9245,-0.9242,-0.9323,-0.9185,-0.9394,-0.9635,-0.9651,0.0,0.0,0.0,0.0,0.0,0.0,0.0,0.0,0.0,0.0,0.0,0.0,0.0,0.0,0.0,0.0,0.0,0.0,0.0,0.0,0.0,0.0,0.0,-1.5805,-1.5805,-1.5973,-1.6307,-1.6508,-1.7148,-1.8307,-1.9375,-2.0107,-2.0452,-2.057,-2.1101,-2.2009,-2.2224,-2.2738,-2.3437,-2.3378,-2.3318,-2.3275,-2.3497,-2.3822,-2.4205,-2.4509,-2.5119,-2.5892,-2.6203,-2.6721,-2.728,0.0,0.0,0.0,0.0,0.0,0.0,0.0,0.0,0.0,0.0,0.0,0.0,0.0,0.0,0.0,0.0,0.0,0.0,0.0,0.0,0.0,0.0,0.0,0.0,0.0,0.0,0.0,0.0,0.0,0.0,0.0,0.3366,0.3212,0.2943,0.3645,0.4268,0.0,0.0,0.0,0.4898,0.0,0.0,0.2464,0.0,0.0,0.0,0.0,0.0,0.0,0.0,0.0,0.0,0.0,0.0,0.0,0.0,0.0,0.0,-0.983,0.0,-1.0376,0.0,-1.02,-1.0267,-0.9898,0.0,0.0,0.0,0.0,0.0,0.0,0.0,0.0,0.0,0.0,0.0,0.0,0.0,0.0,0.0,0.0,0.0,0.0,0.0,0.0,0.0,0.0,0.0,-1.607,-1.607,-1.6412,-1.7157,-1.7285,-1.7891,-1.9044,-2.0031,-2.0709,-2.108,-2.1353,-2.1947,-2.2859,-2.2859,-2.3275,-2.3979,-2.3979,-2.4024,-2.4086,-2.4086,-2.4408,-2.4951,-2.5259,-2.5864,-2.6616,-2.6945,-2.7306,-2.772,0.0,0.0,0.0,0.0,0.0,0.0,0.0,0.0,0.0,0.0,0.0,0.0,0.0,0.0,0.0,0.0,0.0,0.0,0.0,0.0,0.0,0.0,0.0,0.0,0.0,0.0,0.0,0.0,0.0,0.0,0.0,0.0,0.2511,0.2511,0.2904,0.3528,0.4345,0.0,0.4621,0.482,0.0,0.2543,0.1876,0.0,0.0,0.0,-0.4302,-0.5004,0.0,0.0,0.0,0.0,0.0,0.0,0.0,0.0,0.0,0.0,0.0,0.0,0.0,0.0,0.0,0.0,0.0,0.0,0.0,0.0,0.0,0.0,0.0,0.0,0.0,0.0,0.0,0.0,0.0,0.0,0.0,0.0,0.0,0.0,0.0,0.0,0.0,0.0,0.0,-1.6035,-1.6568,-1.6638,-1.7192,-1.8303,-1.8677,-1.911,-1.9638,-2.0816,-2.142,-2.1482,-2.2237,-2.2902,-2.3433,-2.3433,-2.3671,-2.4083,-2.4083,-2.4447,-2.5005,-2.5005,-2.5314,-2.5892,-2.6484,-2.6736,-2.6814,-2.7549,-2.7831,-2.7936,0.0,0.0,0.0,0.0,0.0,0.0,0.0,0.0,0.0,0.0,0.0,0.0,0.0,0.0,0.0,0.0,0.0,0.0,0.0,0.0,0.0,0.0,0.0,0.0,0.0,0.0,0.0,0.0,0.0,0.0,0.0,0.0,0.0,0.0,0.247,0.2588,0.286,0.3954,0.0,0.0,0.2698,0.1721,0.0,0.0,0.0,0.0,0.0,-0.4877,0.0,0.0,-0.7116,-0.8438,0.0,0.0,0.0,0.0,0.0,0.0,-1.1087,0.0,0.0,0.0,0.0,0.0,0.0,0.0,0.0,0.0,0.0,0.0,0.0,0.0,0.0,0.0,0.0,0.0,0.0,0.0,0.0,0.0,0.0,0.0,0.0,0.0,0.0,0.0,-1.6175,-1.6438,-1.6603,-1.7619,-1.8465,-1.9011,-1.9704,-2.0366,-2.0912,-2.1471,-2.2137,-2.2866,-2.3078,-2.345,-2.3907,-2.3907,-2.3966,-2.4083,-2.4083,-2.4447,-2.5005,-2.5005,-2.5564,-2.6484,-2.6733,-2.7111,-2.7524,-2.7815,-2.8258,-2.8697,0.0,0.0,0.0,0.0,0.0,0.0,0.0,0.0,0.0,0.0,0.0,0.0,0.0,0.0,0.0,0.0,0.0,0.0,0.0,0.0,0.0,0.0,0.0,0.0,0.0,0.0,0.0,0.0,0.0,0.0,0.0,0.0,0.0,0.0,0.0,0.0,0.0,0.0,0.0,0.0,0.1838,0.0,0.0,-0.2192,-0.321,0.0,0.0,0.0,-0.6576,-0.6481,-0.7345,0.0,0.0,0.0,0.0,0.0,0.0,0.0,0.0,0.0,0.0,0.0,0.0,0.0,0.0,-1.0591,0.0,0.0,0.0,0.0,0.0,0.0,0.0,0.0,0.0,0.0,0.0,0.0,0.0,0.0,0.0,0.0,0.0,0.0,0.0,0.0,-1.6533,-1.7079,-1.7687,-1.8757,-1.9431,-1.9639,-2.0269,-2.086,-2.1388,-2.1939,-2.2598,-2.3403,-2.3611,-2.3848,-2.4083,-2.4083,-2.4083,-2.4112,-2.4216,-2.4694,-2.5439,-2.5564,-2.6082,-2.6826,-2.7163,-2.7509,-2.7905,-2.8014,-2.8505,-2.9139,0.0,0.0,0.0,0.0,0.0,0.0,0.0,0.0,0.0,0.0,0.0,0.0,0.0,0.0,0.0,0.0,0.0,0.0,0.0,0.0,0.0,0.0,0.0,0.0,0.0,0.0,0.0,0.0,0.0,0.0,0.0,0.0,0.0,0.0,0.0,0.0,0.0,0.0,0.0,0.1523,0.0782,0.0039,0.0,0.0,-0.4258,0.0,-0.5886,-0.667,-0.7265,-0.7375,-0.7976,0.0,0.0,0.0,0.0,0.0,-1.1516,0.0,0.0,0.0,0.0,0.0,0.0,0.0,-1.1757,-1.1156,-1.0548,0.0,0.0,0.0,0.0,0.0,0.0,0.0,0.0,0.0,0.0,0.0,0.0,0.0,0.0,0.0,0.0,0.0,-1.6175,-1.6638,-1.7113,-1.7949,-1.9375,-1.9901,-2.0172,-2.0226,-2.056,-2.1019,-2.1545,-2.2298,-2.2962,-2.3492,-2.3907,-2.4083,-2.4083,-2.4141,-2.4171,-2.4245,-2.4494,-2.5161,-2.6038,-2.6416,-2.6733,-2.7071,-2.7625,-2.793,-2.8044,-2.8253,-2.8746,-2.946,0.0,0.0,0.0,0.0,0.0,0.0,0.0,0.0,0.0,0.0,0.0,0.0,0.0,0.0,0.0,0.0,0.0,0.0,0.0,0.0,0.0,0.0,0.0,0.0,0.0,0.0,0.0,0.0,0.0,0.0,0.0,0.0,0.0,0.0,0.0,0.0,0.0,0.0,0.0,-0.2186,-0.0898,0.0,-0.2699,-0.4183,-0.4846,-0.5029,-0.5774,-0.6939,-0.8212,0.0,-0.8997,-0.869,0.0,0.0,0.0,0.0,0.0,0.0,0.0,0.0,0.0,0.0,0.0,0.0,-1.2451,-1.2205,-1.1927,0.0,0.0,0.0,0.0,0.0,0.0,0.0,0.0,0.0,0.0,0.0,0.0,0.0,0.0,0.0,0.0,0.0,-1.7139,-1.7242,-1.8254,-1.9299,-2.0302,-2.0442,-2.0635,-2.0999,-2.142,-2.1877,-2.2359,-2.2944,-2.348,-2.3966,-2.4067,-2.4083,-2.4112,-2.4305,-2.4637,-2.4992,-2.5273,-2.5687,-2.6213,-2.6771,-2.7291,-2.7815,-2.8039,-2.8137,-2.8223,-2.8912,-2.9592,-3.0268,0.0,0.0,0.0,0.0,0.0,0.0,0.0,0.0,0.0,0.0,0.0,0.0,0.0,0.0,0.0,0.0,0.0,0.0,0.0,0.0,0.0,0.0,0.0,0.0,0.0,0.0,0.0,0.0,0.0,0.0,0.0,0.0,0.0,0.0,0.0,0.0,0.0,0.0,-0.3632,-0.3945,-0.2538,0.0,-0.3984,-0.4627,-0.5143,-0.5585,-0.6227,-0.7341,-0.8618,-0.9436,-0.9391,0.0,0.0,-0.9983,-1.0263,0.0,-1.2012,-1.2228,0.0,0.0,0.0,-1.3511,0.0,0.0,0.0,-1.2512,-1.232,0.0,0.0,0.0,0.0,0.0,0.0,0.0,0.0,0.0,0.0,0.0,0.0,0.0,0.0,0.0,0.0,0.0,-1.7649,-1.82,-1.9293,-2.0095,-2.0477,-2.0767,-2.1083,-2.1557,-2.1765,-2.2249,-2.3005,-2.3271,-2.3717,-2.429,-2.429,-2.4376,-2.4563,-2.4679,-2.4992,-2.5425,-2.5728,-2.6201,-2.6794,-2.7251,-2.775,-2.8217,-2.8186,-2.8449,-2.8836,-2.9239,-3.0119,-3.1187,0.0,0.0,0.0,0.0,0.0,0.0,0.0,0.0,0.0,0.0,0.0,0.0,0.0,0.0,0.0,0.0,0.0,0.0,0.0,0.0,0.0,0.0,0.0,0.1648,0.0,0.0,0.0,0.0,0.0,0.0,0.0,0.0,0.0,0.0,0.0,0.0,0.0,0.0,0.0,-0.5115,0.0,-0.457,-0.4911,-0.513,-0.5606,-0.6261,-0.6996,-0.7847,-0.8754,-0.9324,0.0,-0.9798,-1.0333,-1.0579,0.0,0.0,0.0,0.0,0.0,0.0,0.0,0.0,0.0,-1.3351,0.0,0.0,0.0,0.0,0.0,0.0,0.0,0.0,0.0,0.0,0.0,0.0,0.0,0.0,0.0,0.0,0.0,0.0,0.0,0.0,-1.837,-1.9402,-2.0247,-2.064,-2.0572,-2.0942,-2.1389,-2.1877,-2.2106,-2.258,-2.3403,-2.3539,-2.3897,-2.4509,-2.458,-2.4736,-2.5005,-2.5146,-2.5425,-2.5837,-2.6242,-2.6849,-2.754,-2.7835,-2.8162,-2.8444,-2.8284,-2.8762,-2.9502,-2.9626,-3.0623,-3.1967,0.193,0.1391,0.0,0.0,0.0,0.0,0.0,0.0,0.0,0.0,0.0,0.0,0.0,0.0,0.0,0.0,0.0,0.0,0.0809,0.0,0.0,0.0,0.0,0.0,0.0589,0.0,0.0,0.0,0.0,0.0,0.0,0.0,0.0,0.0,-0.4686,0.0,0.0,0.0,-0.7109,0.0,-0.7479,-0.689,0.0,-0.639,-0.6726,-0.6956,-0.8083,-0.8499,-0.8625,0.0,-0.9888,-1.039,0.0,-1.0912,0.0,0.0,0.0,0.0,0.0,0.0,0.0,0.0,-1.3511,0.0,0.0,0.0,0.0,0.0,0.0,0.0,0.0,0.0,0.0,0.0,0.0,0.0,0.0,0.0,0.0,0.0,0.0,0.0,0.0,0.0,0.0,-2.0905,-2.0997,-2.1073,-2.1118,-2.112,-2.1341,-2.1896,-2.2763,-2.3271,-2.3403,-2.4044,-2.4436,-2.4509,-2.4793,-2.4977,-2.5033,-2.5674,-2.6188,-2.6599,-2.7316,-2.7865,-2.8284,-2.851,-2.8614,-2.8653,-2.8453,-2.8943,-2.9831,-3.0438,-3.1334,-3.237,0.0987,0.1615,0.0,0.0,0.0,0.0,0.0,0.0,0.0,0.0,0.0,0.0,0.0,0.0,0.0,0.0,0.0,0.105,0.0,0.0,0.0,0.0,0.0,0.0,0.0,0.0,0.0,0.0,-0.1881,0.0,0.0,0.0,0.0,0.0,-0.5819,0.0,-0.597,0.0,0.0,0.0,0.0,0.0,0.0,-0.7224,-0.7806,-0.8487,-0.8986,-0.9376,-0.9773,0.0,-1.0598,0.0,0.0,0.0,0.0,0.0,0.0,0.0,0.0,0.0,0.0,0.0,0.0,0.0,0.0,0.0,-1.4321,0.0,0.0,0.0,0.0,0.0,0.0,0.0,0.0,0.0,0.0,0.0,0.0,0.0,0.0,0.0,0.0,0.0,0.0,0.0,0.0,-2.0997,-2.1027,-2.1344,-2.189,-2.2701,-2.3488,-2.4057,-2.4319,-2.465,-2.4878,-2.5061,-2.5216,-2.5481,-2.5892,-2.6176,-2.6707,-2.7367,-2.7795,-2.8204,-2.8581,-2.8842,-2.8936,-2.8983,-2.932,-2.9923,-3.0712,-3.1404,-3.2276,-3.3208,0.0493,0.0,0.0,0.0,0.0,0.0,0.0,0.0,0.0,0.0,0.0,0.0,0.2604,0.2243,0.0,0.0,0.0,0.0604,0.0,0.0,-0.0205,0.0,0.0,0.0,0.0,0.0,0.0,0.0,0.0,0.0,0.0,0.0,0.0,0.0,0.0,-0.6759,-0.7125,0.0,0.0,-0.7866,-0.7704,-0.8015,-0.8589,-0.8289,-0.8843,-0.9786,-0.9786,-1.0205,-1.0818,-1.1118,-1.1156,0.0,-1.1609,0.0,0.0,0.0,0.0,0.0,-1.3511,0.0,0.0,0.0,0.0,0.0,0.0,0.0,0.0,0.0,0.0,0.0,0.0,0.0,0.0,0.0,0.0,0.0,0.0,0.0,0.0,0.0,0.0,0.0,0.0,0.0,0.0,0.0,-2.0617,-2.0905,-2.0896,-2.1467,-2.2255,-2.3266,-2.4084,-2.465,-2.5005,-2.5103,-2.5257,-2.5494,-2.5578,-2.5921,-2.651,-2.668,-2.7188,-2.79,-2.8238,-2.8527,-2.8842,-2.9098,-2.9213,-2.9309,-3.0291,-3.0999,-3.1499,-3.2149,-3.3077,-3.405,0.0673,-0.0359,0.0,0.0,0.0,0.0,0.0,0.0,0.0,0.0,0.0,0.0,0.0,0.0,0.0,0.0,0.0,-0.1302,-0.1345,0.0,-0.1416,0.0,0.0,0.0,0.0,0.0,0.0,0.0,0.0,0.0,-0.6222,-0.6261,0.0,0.0,0.0,-0.7097,-0.8432,-0.8512,-0.8755,-0.9226,-0.9956,-1.0542,-1.0804,0.0,-0.9862,-1.0485,-1.0485,0.0,0.0,-1.073,-1.1375,0.0,0.0,0.0,0.0,0.0,0.0,0.0,0.0,0.0,0.0,0.0,0.0,0.0,0.0,0.0,-1.4893,0.0,0.0,0.0,0.0,0.0,0.0,0.0,0.0,0.0,0.0,0.0,0.0,0.0,0.0,0.0,0.0,0.0,0.0,-2.09,-2.0884,-2.0903,-2.0909,-2.1481,-2.2264,-2.3255,-2.4399,-2.4977,-2.5005,-2.5313,-2.5494,-2.5494,-2.5771,-2.6096,-2.6537,-2.7159,-2.769,-2.8125,-2.8779,-2.9075,-2.9098,-2.938,-2.9493,-2.9637,-3.1297,-3.1972,-3.2045,-3.2497,-3.3534,-3.4723,0.0,0.0,0.0,0.0,0.0,0.0,0.0,0.1211,0.0,0.0,0.0,0.0,0.0,0.0,-0.0716,0.0,0.0,-0.1552,-0.235,-0.174,0.0,0.0,0.0,-0.1489,0.0,0.0,0.0,0.0,0.0,0.0,-0.5434,-0.6025,-0.6718,-0.7476,0.0,-0.779,0.0,0.0,0.0,0.0,0.0,-1.083,-1.0892,0.0,0.0,-1.2151,-1.2058,-1.2182,0.0,-1.262,-1.2612,-1.2573,-1.3009,-1.3321,-1.3511,-1.3511,-1.3511,0.0,0.0,0.0,-1.3541,-1.37,0.0,0.0,0.0,0.0,0.0,0.0,0.0,0.0,0.0,0.0,0.0,0.0,0.0,0.0,0.0,0.0,0.0,0.0,0.0,0.0,0.0,0.0,0.0,-2.0566,-2.1022,-2.127,0.0,-2.2592,-2.3499,-2.3755,-2.4943,-2.5591,-2.5591,-2.5716,-2.5798,-2.588,-2.5989,-2.6498,-2.7302,-2.753,-2.8052,-2.8779,-2.9175,-2.9357,-2.9396,-2.9643,-3.0022,-3.0538,-3.1693,-3.2389,-3.2853,-3.3534,-3.4227,-3.5012,0.0403,0.0,0.0,0.0,0.0,0.0,0.0,0.0,0.0,0.0,-0.0537,0.0,-0.1074,0.0,-0.1522,0.0,-0.1657,-0.1928,-0.2331,-0.2301,0.0,-0.3063,-0.2702,0.0,0.0,0.0,0.0,0.0,0.0,-0.5312,-0.5896,-0.6483,-0.7292,-0.8351,0.0,-0.8606,-0.9961,0.0,-0.9867,0.0,0.0,-1.1955,0.0,0.0,-1.2642,0.0,0.0,-1.3009,-1.326,-1.339,-1.323,-1.3047,-1.339,-1.3511,-1.3511,-1.3511,-1.3511,-1.3511,-1.3511,-1.3511,0.0,0.0,-1.421,0.0,0.0,0.0,0.0,0.0,0.0,0.0,0.0,0.0,0.0,0.0,0.0,0.0,0.0,0.0,0.0,0.0,0.0,0.0,0.0,0.0,-2.0952,-2.0563,-2.1159,-2.1521,0.0,0.0,-2.3917,-2.4037,-2.5255,-2.5893,-2.5893,-2.5948,-2.6002,-2.6084,-2.6338,-2.6904,-2.7705,-2.8002,-2.8535,-2.9259,-2.9531,-2.9665,-2.9694,-2.9858,-3.0368,-3.1128,-3.1952,-3.2677,-3.3355,-3.4097,-3.4809,-3.5543,0.0,0.0,0.0,0.0,0.0493,0.0,0.0,0.0,-0.1166,0.0,-0.1613,-0.1879,-0.1925,-0.2552,-0.2509,-0.1345,-0.2285,0.0,-0.1659,-0.3044,0.0,0.0,-0.4449,-0.4884,-0.5299,0.0,0.0,0.0,0.0,0.0,-0.7484,-0.7561,-0.8399,-0.9873,-0.8995,0.0,-1.1365,-1.1177,-1.173,-1.2777,-1.3726,-1.3876,-1.3567,-1.4118,0.0,-1.1989,-1.2787,-1.3472,-1.3881,-1.3139,-1.3299,-1.3769,-1.3571,-1.3511,-1.3511,-1.3511,-1.3511,-1.3511,-1.3511,-1.3511,-1.3631,-1.407,0.0,0.0,0.0,0.0,-1.5807,0.0,0.0,0.0,0.0,0.0,0.0,0.0,0.0,0.0,0.0,0.0,0.0,0.0,0.0,0.0,0.0,-2.2053,-2.1921,-2.0919,-2.1326,-2.1619,0.0,0.0,-2.3618,-2.4092,-2.5274,-2.5921,-2.5921,-2.6056,-2.6111,-2.6165,-2.6826,-2.7352,-2.7805,-2.8559,-2.9136,-2.9538,-2.9792,-2.9946,-2.9995,-2.9995,-3.0538,-3.1423,-3.2128,-3.2849,-3.357,-3.4307,-3.523,-3.6224,-0.0269,-0.0269,-0.0448,0.0,-0.0897,-0.1076,0.0,0.0,0.0,0.0,-0.2868,-0.327,-0.3626,-0.3807,-0.3807,-0.3492,-0.3451,0.0,0.0,0.0,0.0,-0.5628,-0.5203,-0.505,-0.5299,-0.5228,0.0,-0.5306,0.0,0.0,-0.7522,-0.8093,-0.8927,-0.9911,0.0,0.0,-1.2501,-1.2579,-1.322,-1.4172,-1.4117,-1.3967,0.0,0.0,-1.3799,-1.3017,-1.37,-1.4079,-1.4207,-1.3989,-1.392,-1.392,-1.3761,-1.3731,-1.3731,-1.3731,-1.361,-1.3541,-1.367,-1.3731,-1.3761,-1.386,-1.4579,-1.5294,0.0,0.0,0.0,0.0,0.0,0.0,0.0,0.0,0.0,0.0,0.0,0.0,0.0,0.0,0.0,0.0,0.0,0.0,0.0,-2.1756,-2.142,-2.153,-2.1729,-2.1808,0.0,0.0,0.0,-2.4408,-2.5578,-2.6206,-2.6206,-2.6233,-2.6498,-2.699,-2.7185,-2.7775,-2.8748,-2.8958,-2.9341,-2.9886,-2.993,-3.0055,-3.0146,-3.0146,-3.092,-3.2144,-3.2383,-3.3314,-3.4594,-3.5391,-3.5907,-3.6295,-0.0897,0.0,0.0,-0.1345,0.0,0.0,-0.1705,0.0,0.0,-0.2823,-0.3317,0.0,-0.3942,-0.4166,-0.4342,-0.4429,-0.4389,0.0,0.0,0.0,0.0,-0.6489,-0.6466,-0.6489,-0.662,-0.6448,0.0,-0.6645,0.0,0.0,-0.8546,-0.9117,-0.9911,-1.0956,0.0,-1.2197,0.0,-1.3937,-1.4613,-1.527,-1.5115,0.0,0.0,-1.4947,-1.4633,-1.4166,-1.4805,-1.4763,-1.4396,-1.4327,-1.4207,-1.4109,-1.395,-1.389,-1.389,-1.389,-1.3992,-1.4154,-1.4252,-1.446,-1.4667,-1.4667,-1.5177,-1.5728,-1.5958,-1.6492,-1.6965,0.0,0.0,0.0,0.0,0.0,0.0,0.0,0.0,0.0,0.0,0.0,0.0,0.0,0.0,0.0,0.0,0.0,-2.1575,-2.1898,-2.2366,0.0,0.0,0.0,0.0,-2.4508,-2.5902,-2.6525,-2.6313,-2.6811,-2.7159,-2.7323,-2.7898,-2.8519,-2.9198,-2.9454,-2.976,-3.0081,-3.0081,-3.0167,-3.0307,-3.0635,-3.1468,-3.2599,-3.3278,-3.4107,-3.4977,-3.5655,-3.6015,-3.6298,0.0,0.0,0.0,0.0,0.0,0.0,0.0,-0.2243,0.0,-0.2868,0.0,-0.3676,-0.3676,-0.4121,-0.452,-0.4694,0.0,-0.5455,-0.5354,-0.6688,-0.7356,-0.7044,-0.7884,-0.8398,-0.8501,-0.7934,0.0,0.0,0.0,-0.8799,-0.9954,-1.0363,-1.118,-1.2378,0.0,0.0,0.0,-1.5215,-1.5843,0.0,-1.6264,-1.6158,-1.5924,-1.5868,-1.569,-1.5507,-1.6041,-1.55,-1.4476,-1.4446,-1.4446,-1.4407,-1.4219,-1.421,-1.427,-1.427,-1.4628,-1.5021,-1.5051,-1.5439,-1.5843,-1.5843,-1.5901,-1.6102,-1.651,-1.6652,-1.6747,-1.6944,-1.7151,0.0,0.0,0.0,0.0,0.0,0.0,0.0,0.0,0.0,0.0,0.0,0.0,0.0,0.0,0.0,0.0,0.0,0.0,0.0,0.0,0.0,0.0,-2.4568,-2.6196,0.0,-2.6486,0.0,-2.7834,-2.7585,-2.8685,-2.9289,-2.9441,-2.9951,-3.021,-3.0248,-3.0248,-3.0295,-3.0467,-3.1209,-3.2051,-3.2984,-3.4352,-3.4899,-3.4954,-3.5453,-3.5868,-3.6277,0.0,0.0,0.0,0.0,0.0,-0.2555,-0.2243,-0.2511,-0.2823,-0.2867,-0.3628,0.0,-0.4166,-0.479,-0.5238,-0.5235,-0.5855,0.0,0.0,0.0,0.0,-0.8252,-0.8448,-0.8832,-0.9423,-0.9186,-0.9187,0.0,-1.0057,-1.0291,-1.018,-1.1724,-1.2469,-1.2599,0.0,0.0,-1.6105,-1.6324,0.0,-1.6736,-1.6416,-1.6623,-1.7067,-1.6718,-1.6901,-1.7339,-1.7462,-1.6196,-1.4565,-1.5049,-1.5216,-1.5177,-1.503,-1.5332,-1.5728,-1.5728,-1.5699,-1.5671,-1.5833,-1.5977,-1.6044,-1.6044,-1.6489,-1.6978,-1.7062,-1.7473,-1.7826,-1.7854,-1.792,-1.7975,-1.8057,0.0,0.0,0.0,0.0,0.0,0.0,0.0,0.0,0.0,0.0,0.0,0.0,0.0,0.0,0.0,0.0,0.0,0.0,0.0,0.0,0.0,0.0,0.0,0.0,0.0,0.0,-2.9027,-2.8873,-2.9234,-3.0038,-3.0146,-3.0253,-3.0359,-3.0359,-3.0401,-3.0534,-3.1279,-3.2376,-3.3673,-3.4551,-3.4899,-3.4954,-3.5487,-3.5959,-3.6422,0.0,0.0,0.0,0.0,0.0,0.0,0.0,-0.3671,0.0,-0.3448,-0.4249,-0.4917,-0.5003,-0.5542,-0.6077,-0.6476,-0.6782,-0.7268,-0.8025,-0.8072,-0.8248,-0.8568,-0.9043,0.0,-0.9795,-1.0062,-1.03,-1.0484,-1.0796,-1.1136,0.0,0.0,0.0,-1.4013,0.0,-1.5982,0.0,0.0,0.0,-1.6777,-1.7054,-1.7408,-1.7746,-1.7891,-1.8013,-1.8145,-1.8468,-1.7564,-1.6256,-1.6548,-1.6638,-1.6597,-1.6286,-1.6382,-1.6564,-1.6288,-1.6358,-1.6557,-1.6631,-1.6894,-1.714,-1.714,-1.739,-1.7667,-1.7667,-1.7881,-1.8084,-1.8084,-1.8166,-1.841,-1.8946,-1.963,0.0,0.0,0.0,0.0,0.0,0.0,0.0,0.0,0.0,0.0,0.0,0.0,0.0,0.0,0.0,0.0,0.0,0.0,0.0,0.0,0.0,0.0,0.0,0.0,0.0,-2.8631,-2.8989,-2.9416,-2.9913,-3.0194,-3.0401,-3.0443,-3.0443,-3.0679,-3.1168,-3.2282,-3.3375,-3.4402,-3.475,-3.5078,-3.5345,-3.5604,-3.6176,-3.6845,0.0,-0.1704,0.0,0.0,-0.3358,0.0,0.0,-0.4959,-0.5142,-0.4251,-0.4917,-0.5536,-0.5755,-0.6248,-0.6827,-0.7445,-0.7625,-0.8069,-0.8823,-0.8867,-0.8955,-0.9174,-0.9816,-1.0289,-1.0506,-1.1255,-1.1746,0.0,-1.176,0.0,0.0,0.0,0.0,0.0,0.0,0.0,0.0,0.0,-1.6846,-1.6985,-1.7867,-1.8297,-1.8499,-1.9034,-1.9133,-1.9062,-1.9528,-1.9194,-1.8529,-1.8529,-1.8298,-1.7912,-1.7564,-1.7529,-1.7573,-1.7151,-1.7348,-1.7705,-1.7584,-1.7918,-1.8249,-1.8118,-1.8084,-1.8084,-1.8084,-1.8139,-1.8166,-1.8166,-1.834,-1.8759,-1.9604,-2.0156,0.0,0.0,0.0,0.0,0.0,0.0,0.0,0.0,0.0,0.0,0.0,0.0,0.0,0.0,0.0,0.0,-2.3854,-2.5158,0.0,0.0,0.0,-2.7629,-2.756,0.0,-2.8376,0.0,-2.9104,-2.9611,-2.981,-3.0279,-3.0506,-3.0506,-3.0671,-3.1255,-3.2205,-3.3348,-3.4283,-3.4994,-3.5048,-3.5345,-3.5781,-3.5964,-3.6531,-3.7229,0.0,0.0,0.0,0.0,0.0,0.0,0.0,-0.5802,-0.6432,-0.5053,-0.5364,-0.5766,-0.6035,-0.6653,-0.7139,-0.7489,-0.8116,-0.8867,-0.9728,-0.9772,-1.0164,-1.1025,-1.1111,-1.158,-1.24,-1.3279,-1.3924,0.0,0.0,0.0,0.0,0.0,0.0,0.0,0.0,0.0,0.0,-1.7373,-1.7706,-1.7935,-1.8633,-1.9309,-1.9901,-1.9966,-2.0398,-2.0951,-2.0994,-2.096,-2.0882,-2.0882,-1.9885,-1.8602,-1.8559,-1.897,-1.9461,-1.9404,-1.9422,-1.9377,-1.8857,-1.8788,-1.8713,-1.8226,-1.8084,-1.8084,-1.8084,-1.8232,-1.8367,-1.8367,-1.8583,-1.9093,-2.0131,-2.0181,-2.0584,0.0,0.0,0.0,0.0,0.0,0.0,0.0,0.0,0.0,0.0,0.0,0.0,0.0,0.0,0.0,-2.5483,-2.5628,-2.6066,-2.6814,0.0,-2.7483,-2.874,-2.7934,0.0,-2.9617,-2.9303,-2.9595,-3.0405,-3.0468,-3.0506,-3.0539,-3.1217,-3.2343,-3.3767,-3.3786,-3.4376,-3.5291,-3.5549,-3.5737,-3.5981,-3.6829,-3.7194,-3.7378,0.0,0.0,0.0,0.0,0.0,0.0,0.0,-0.6605,-0.6918,-0.634,-0.6567,-0.6877,-0.7146,-0.754,-0.8017,-0.8711,-0.9161,-0.9777,-1.0679,-1.0722,-1.0895,-1.1278,-1.2334,-1.3093,-1.348,-1.49,-1.5572,0.0,0.0,0.0,0.0,0.0,0.0,0.0,0.0,-1.6864,-1.7407,-1.774,-1.8172,-1.8667,-1.9375,-1.9835,-2.0139,-2.0592,-2.0924,-2.119,-2.119,-2.119,-2.119,-2.119,-2.0757,-2.0141,-1.9817,-1.989,-2.0067,-1.978,-1.9688,-1.9643,-1.9436,-1.9378,-1.935,-1.92,-1.9171,-1.92,-1.9314,-1.9165,-1.901,-1.901,-1.9147,-1.9552,-2.0472,-2.082,-2.1251,0.0,0.0,0.0,0.0,0.0,0.0,0.0,0.0,0.0,0.0,0.0,0.0,0.0,0.0,0.0,-2.5286,-2.5811,-2.6399,-2.6987,0.0,-2.768,-2.8519,-2.786,-2.7993,-2.8904,-2.9051,-2.9438,-3.0092,-3.0363,-3.0796,-3.134,-3.2541,-3.3439,-3.4135,-3.4541,-3.4931,-3.5321,-3.5683,-3.6045,-3.6446,-3.7061,-3.7524,-3.7862,-0.4652,0.0,-0.5003,0.0,-0.6118,-0.634,-0.7007,-0.7316,-0.7489,-0.7489,-0.7933,-0.8201,-0.8201,-0.8328,-0.8807,-0.9802,-1.0111,-1.0636,-1.1542,-1.1671,-1.1843,-1.21,-1.3607,0.0,-1.4399,-1.6191,-1.6936,-1.6605,-1.6261,0.0,0.0,0.0,0.0,0.0,-1.7097,-1.751,-1.8104,-1.8476,-1.89,-1.9408,-2.0128,-2.0431,-2.0463,-2.0999,-2.119,-2.119,-2.119,-2.119,-2.1221,-2.1368,-2.14,-2.131,-2.0807,-2.063,-2.0561,-2.0228,-2.0125,-2.0102,-1.9941,-1.9907,-1.989,-1.9906,-1.9901,-1.996,-2.0147,-1.9951,-1.9764,-1.9977,-2.0269,-2.0669,-2.1186,-2.1678,-2.2034,0.0,0.0,0.0,0.0,0.0,0.0,0.0,0.0,-2.3782,-2.3674,0.0,0.0,0.0,0.0,0.0,0.0,-2.602,0.0,0.0,0.0,0.0,0.0,-2.8052,-2.8125,-2.874,-2.9127,-2.9572,-3.007,-3.0679,-3.152,-3.2572,-3.3606,-3.4258,-3.4622,-3.5096,-3.5337,-3.5435,-3.5929,-3.6381,-3.6825,-3.7377,-3.7827,-3.8227,-0.5518,-0.5675,-0.5985,-0.6918,-0.7095,-0.7095,-0.7095,-0.7885,-0.85,-0.85,-0.9274,-0.9618,-0.8978,-0.889,-0.9371,-1.0506,-1.0809,-1.137,-1.232,-1.2577,-1.3094,0.0,0.0,-1.5394,-1.5394,-1.7107,-1.7997,-1.7989,0.0,0.0,-1.8649,0.0,-1.7452,-1.7969,-1.7774,-1.8172,-1.9044,-1.977,-2.0063,-2.0139,-2.0892,-2.119,-2.119,-2.119,-2.119,-2.119,-2.119,-2.119,-2.1285,-2.1733,-2.1877,-2.1827,-2.1336,-2.119,-2.119,-2.1178,-2.1178,-2.1063,-2.0538,-2.04,-2.0316,-1.997,-1.9901,-1.996,-2.0147,-2.0309,-2.0591,-2.1319,-2.2093,-2.2617,-2.2487,-2.2713,-2.2893,-2.29,0.0,0.0,0.0,0.0,0.0,0.0,-2.4094,-2.4156,-2.3824,0.0,0.0,0.0,0.0,0.0,0.0,0.0,0.0,-2.8235,-2.7586,0.0,-2.9074,-2.8567,-2.8787,-2.9772,-2.9788,-3.0113,-3.0725,-3.16,-3.2785,-3.4175,-3.4192,-3.4695,-3.5475,-3.5337,-3.5412,-3.5672,-3.6402,-3.6783,-3.6997,-3.7863,-3.8192,-3.8317,-0.6808,-0.6764,-0.6741,-0.7051,-0.7625,-0.8061,-0.8061,-0.8842,-0.9449,-0.9449,-0.9705,-1.0139,-1.0761,-1.0246,-1.0332,0.0,-1.18,-1.2406,0.0,-1.361,-1.4033,-1.495,-1.5801,-1.6576,-1.7147,-1.8278,-1.8895,-1.8895,0.0,0.0,0.0,-1.9234,-1.9198,-1.9206,-1.8775,-1.9,-1.977,-1.9998,-2.0399,-2.086,-2.1094,-2.119,-2.1221,-2.1557,-2.1671,-2.1733,-2.2032,-2.2144,-2.2175,-2.2329,-2.239,-2.2298,-2.1827,-2.1671,-2.1608,-2.1285,-2.1253,-2.1396,-2.1687,-2.1842,-2.2007,-2.2463,-2.2573,-2.259,-2.2765,-2.2658,-2.2583,-2.2831,-2.3134,-2.3508,-2.3911,-2.4081,-2.4181,-2.4373,0.0,0.0,0.0,0.0,0.0,0.0,0.0,-2.513,0.0,-2.5841,0.0,0.0,0.0,0.0,0.0,0.0,0.0,0.0,-2.7999,0.0,-2.9097,-2.8935,-2.9173,-2.9793,-2.9793,-3.0375,-3.1491,-3.2871,-3.38,-3.4376,-3.4858,-3.5279,-3.5571,-3.5509,-3.5532,-3.5672,-3.6501,-3.686,-3.6997,-3.788,-3.8553,-3.9043,-0.7874,-0.7778,-0.7753,-0.8097,-0.8623,-0.9017,-0.9017,-0.984,-1.0448,-1.0448,-1.0837,-1.1483,-1.2479,-1.2211,0.0,-1.2485,-1.2991,-1.3584,-1.4405,-1.4817,-1.5311,-1.5842,-1.6739,-1.7432,-1.7997,0.0,0.0,-1.9766,-1.9962,-2.0082,-2.021,-2.0199,-2.0211,-2.0175,-1.9642,-1.9835,-2.0495,-2.0495,-2.088,-2.1431,-2.1285,-2.14,-2.1733,-2.1858,-2.2002,-2.2206,-2.25,-2.2592,-2.2652,-2.2955,-2.3045,-2.3015,-2.2847,-2.2816,-2.2634,-2.1889,-2.1827,-2.2144,-2.2652,-2.2864,-2.3075,-2.3653,-2.38,-2.3859,-2.4063,-2.4131,-2.4162,-2.4188,-2.449,-2.4824,-2.5056,-2.5137,-2.5188,-2.5193,0.0,-2.5325,0.0,0.0,0.0,0.0,0.0,0.0,0.0,-2.6443,0.0,0.0,0.0,0.0,0.0,0.0,0.0,-2.7837,-2.8184,0.0,-2.9113,-2.9325,-2.9661,-3.0135,-3.0504,-3.1416,-3.2809,-3.3839,-3.4521,-3.4869,-3.5341,-3.5549,-3.56,-3.56,-3.56,-3.5689,-3.656,-3.69,-3.6997,-3.788,-3.8716,-3.9441,-0.8762,-0.8759,0.0,0.0,-0.9966,0.0,-1.0009,-1.0794,-1.1402,-1.1391,-1.2376,-1.3311,-1.3904,-1.4351,-1.4358,-1.3623,0.0,0.0,0.0,-1.6116,-1.6739,-1.678,-1.7553,-1.8037,-1.8158,-1.8966,-1.9766,-2.0576,-2.1451,-2.1699,-2.1319,-2.0797,-2.0722,-2.1018,-2.0424,-2.056,-2.119,-2.1221,-2.1494,-2.1846,-2.1463,-2.1827,-2.2592,-2.2187,-2.2329,-2.2713,-2.2743,-2.2774,-2.2864,-2.3623,-2.3888,-2.3917,-2.4192,-2.4321,-2.4105,-2.2847,-2.2786,-2.3195,-2.3509,-2.3585,-2.3657,-2.3888,-2.3946,-2.4034,-2.4337,-2.4879,-2.5315,-2.5453,-2.6041,-2.639,-2.5966,-2.5991,-2.5962,-2.5601,-2.5545,-2.5592,-2.5726,0.0,0.0,0.0,0.0,0.0,0.0,-2.6934,-2.7357,0.0,0.0,0.0,0.0,0.0,-2.8136,-2.7695,-2.8247,-2.8748,-2.9166,-2.9772,-3.0316,-3.0795,-3.1787,-3.3022,-3.4386,-3.4513,-3.4962,-3.56,-3.56,-3.56,-3.56,-3.56,-3.56,-3.5689,-3.656,-3.69,-3.6997,-3.7952,-3.879,-3.9568,0.0,0.0,-0.9618,-0.9879,-1.0491,-1.0971,-1.0971,-1.1752,-1.2287,-1.2093,-1.2451,-1.2985,-1.3681,-1.386,-1.4212,-1.4949,-1.5607,-1.6067,-1.6281,-1.6527,-1.6984,-1.7674,-1.7876,-1.8598,-1.9864,-2.0109,-2.0653,-2.1489,-2.2306,-2.2675,-2.2583,-2.2306,-2.2184,-2.2241,-2.1321,-2.1031,-2.1221,-2.1577,-2.1796,-2.1908,-2.2175,-2.2543,-2.3027,-2.3267,-2.3594,-2.3959,-2.4308,-2.4423,-2.4465,-2.4637,-2.4708,-2.4679,-2.4379,-2.4565,-2.4609,-2.3539,-2.3433,-2.3758,-2.4255,-2.4511,-2.478,-2.5286,-2.5481,-2.5564,-2.566,-2.5947,-2.6203,-2.6229,-2.6592,-2.6841,-2.6747,-2.6832,-2.6927,-2.6931,-2.6926,-2.6961,-2.7111,0.0,0.0,0.0,-2.7219,-2.7269,-2.7219,-2.7606,-2.7975,0.0,0.0,0.0,0.0,0.0,-2.8669,-2.8448,-2.8927,-2.9406,-2.9865,-3.041,-3.1033,-3.1721,-3.316,-3.4049,-3.442,-3.5053,-3.543,-3.56,-3.56,-3.56,-3.56,-3.56,-3.56,-3.5689,-3.656,-3.69,-3.7068,-3.8564,-3.9586,-4.0347,-1.1012,-1.084,-1.0664,-1.1095,-1.1617,-1.1929,-1.1929,-1.2257,-1.2475,-1.233,-1.277,-1.3387,-1.4077,-1.4724,-1.5504,-1.6451,-1.6507,-1.6539,-1.6745,-1.71,-1.754,-1.8016,-1.8377,-1.8954,-1.9876,-2.045,-2.1257,-2.2344,-2.3139,-2.3408,-2.3173,-2.3064,-2.2918,-2.2661,-2.1888,-2.1639,-2.1846,-2.1877,-2.2168,-2.261,-2.2756,-2.3195,-2.3771,-2.3946,-2.4279,-2.465,-2.492,-2.5005,-2.5033,-2.5188,-2.5229,-2.5216,-2.5076,-2.5216,-2.5328,-2.4838,-2.4652,-2.4666,-2.5119,-2.537,-2.5591,-2.5975,-2.6138,-2.6218,-2.6258,-2.6418,-2.6537,-2.6698,-2.6884,-2.7029,-2.7159,-2.7248,-2.7335,-2.7463,-2.7488,-2.7539,-2.76,-2.76,0.0,-2.76,-2.76,-2.765,-2.7765,-2.7905,-2.8177,-2.8518,0.0,0.0,-2.8677,-2.8858,-2.8889,-2.8709,-2.9203,-2.9841,-3.0598,-3.1529,-3.2366,-3.3122,-3.4004,-3.4621,-3.4958,-3.5391,-3.56,-3.56,-3.56,-3.56,-3.56,-3.56,-3.5734,-3.6002,-3.6641,-3.7228,-3.785,-3.8977,-4.0111,-4.1107,-1.1941,-1.1783,-1.1757,-1.2577,-1.2705,-1.2747,-1.2869,-1.2643,-1.25,-1.2622,-1.3326,-1.4055,-1.4682,-1.5915,-1.6917,-1.7585,-1.7086,-1.6802,-1.6968,-1.7774,-1.8267,-1.8267,-1.8976,-1.9433,-1.9637,-2.0839,-2.2051,-2.3187,-2.3854,-2.3975,-2.3536,-2.3423,-2.32,-2.2771,-2.2253,-2.2237,-2.2561,-2.2249,-2.2628,-2.3437,-2.3339,-2.3859,-2.4637,-2.4523,-2.4736,-2.5146,-2.5146,-2.5146,-2.5174,-2.5453,-2.5578,-2.5619,-2.5853,-2.5948,-2.5975,-2.6084,-2.588,-2.5674,-2.5907,-2.6029,-2.6165,-2.6286,-2.6313,-2.6353,-2.6457,-2.6537,-2.6671,-2.6951,-2.7029,-2.7133,-2.735,-2.7427,-2.7488,-2.7685,-2.7635,-2.761,-2.771,0.0,-2.76,-2.76,-2.7625,-2.7715,-2.7955,-2.8005,-2.8152,-2.8444,-2.8493,0.0,0.0,-2.9092,-2.9285,-2.9131,-2.9634,-3.044,-3.1512,-3.2842,-3.3802,-3.4408,-3.458,-3.4996,-3.56,-3.56,-3.56,-3.56,-3.56,-3.56,-3.56,-3.56,-3.5871,-3.6343,-3.6741,-3.7648,-3.8775,-3.9337,-4.0474,-4.1723,-1.3053,-1.2853,-1.2534,-1.2662,-1.2705,-1.2954,-1.3711,-1.3505,-1.3514,-1.4019,-1.4209,-1.4507,-1.5069,-1.5612,-1.6262,-1.6986,-1.7483,-1.7809,-1.7887,-1.8618,-1.9012,-1.9012,-1.9673,-2.0591,-2.1721,-2.3031,-2.3818,-2.4007,-2.4155,-2.4154,-2.4083,-2.3631,-2.3367,-2.3269,-2.2726,-2.2531,-2.2634,-2.3005,-2.3395,-2.3783,-2.4134,-2.4708,-2.5341,-2.5313,-2.5495,-2.5757,-2.5757,-2.5757,-2.5784,-2.5811,-2.5893,-2.6016,-2.6071,-2.6138,-2.6233,-2.626,-2.6233,-2.6179,-2.6233,-2.626,-2.6286,-2.6286,-2.6406,-2.6457,-2.6484,-2.6724,-2.6951,-2.6977,-2.717,-2.735,-2.7401,-2.7488,-2.771,-2.811,-2.787,-2.7735,-2.8134,0.0,-2.76,-2.76,-2.77,-2.779,-2.7815,-2.8039,-2.8341,-2.8803,-2.8943,-2.9143,-2.9566,-3.0248,-3.078,-3.1128,-3.1237,-3.186,-3.3056,-3.3883,-3.4366,-3.4484,-3.5126,-3.5481,-3.56,-3.56,-3.56,-3.56,-3.56,-3.56,-3.56,-3.56,-3.5871,-3.6343,-3.6741,-3.7648,-3.8828,-3.9932,-4.0908,-4.1814,-1.3423,-1.3167,-1.2881,-1.2747,-1.3082,-1.349,-1.3834,-1.3959,-1.4084,-1.4371,-1.4655,-1.4981,-1.5311,-1.5974,-1.6682,-1.7432,-1.7799,-1.8169,-1.8545,-1.8914,-1.9088,-1.9088,-1.9757,-2.0896,-2.2428,-2.3299,-2.3894,-2.4213,-2.4189,-2.405,-2.3776,-2.3781,-2.3636,-2.3392,-2.3147,-2.3185,-2.3424,-2.3573,-2.3826,-2.4221,-2.4793,-2.5216,-2.5522,-2.5647,-2.5798,-2.5893,-2.5893,-2.5948,-2.6002,-2.6002,-2.6084,-2.6206,-2.6206,-2.626,-2.6299,-2.6406,-2.6353,-2.6313,-2.6406,-2.6392,-2.6418,-2.6527,-2.6659,-2.6765,-2.6765,-2.6948,-2.7119,-2.7196,-2.7299,-2.7427,-2.7488,-2.7549,-2.766,-2.7894,-2.7735,0.0,0.0,-2.7735,-2.7625,-2.77,-2.7765,-2.7965,-2.835,-2.8446,-2.8716,-2.9325,-2.9729,-3.009,-3.0383,-3.134,-3.1979,-3.2193,-3.2832,-3.3434,-3.3981,-3.4726,-3.5098,-3.5115,-3.543,-3.56,-3.56,-3.56,-3.56,-3.56,-3.56,-3.56,-3.56,-3.56,-3.6006,-3.6673,-3.7314,-3.842,-3.9806,-4.0782,-4.1705,-4.2522,-1.3915,-1.3686,-1.3464,-1.3415,-1.3898,-1.4352,-1.4448,-1.4599,-1.4744,-1.4948,-1.5294,-1.5648,-1.5991,-1.6707,-1.7432,-1.8172,-1.8398,-1.87,-1.921,-1.9514,-1.9557,-1.9276,-2.0183,-2.1386,-2.2834,-2.3352,-2.3816,-2.429,-2.429,-2.4099,-2.3773,-2.4142,-2.4103,-2.3776,-2.3776,-2.3982,-2.4303,-2.4147,-2.4337,-2.4793,-2.5285,-2.555,-2.5633,-2.5825,-2.5921,-2.5948,-2.5948,-2.6029,-2.6138,-2.6138,-2.6245,-2.6353,-2.6353,-2.6394,-2.6447,-2.6525,-2.6513,-2.6447,-2.6592,-2.6604,-2.6657,-2.6858,-2.6963,-2.7055,-2.7055,-2.7144,-2.7284,-2.7376,-2.7412,-2.7488,-2.7575,-2.76,-2.765,-2.7745,0.0,0.0,0.0,-2.781,-2.786,-2.7999,-2.8131,-2.8493,-2.9194,-2.9218,-2.952,-3.0352,-3.0849,-3.1209,-3.1472,-3.252,-3.3201,-3.3384,-3.4117,-3.4573,-3.4742,-3.5312,-3.56,-3.56,-3.56,-3.56,-3.56,-3.56,-3.56,-3.56,-3.56,-3.56,-3.56,-3.56,-3.6221,-3.7233,-3.785,-3.9194,-4.0854,-4.1524,-4.2322,-4.3104,-1.4975,-1.4788,-1.4782,-1.5365,-1.5401,-1.5585,-1.6372,-1.5915,-1.5794,-1.6619,-1.6599,-1.6777,-1.7457,-1.7765,-1.8206,-1.8877,-1.954,-1.9966,-2.0031,-2.1061,-2.1183,-2.0085,-2.1609,-2.2754,-2.3338,-2.3874,-2.429,-2.4572,-2.4556,-2.4666,-2.4887,-2.4929,-2.4932,-2.4892,-2.4892,-2.4892,-2.492,-2.492,-2.5103,-2.5439,-2.5467,-2.5647,-2.5866,-2.5893,-2.5975,-2.6084,-2.6084,-2.6179,-2.6286,-2.6286,-2.6365,-2.6484,-2.6484,-2.6618,-2.6779,-2.6779,-2.6779,-2.6779,-2.6925,-2.6977,-2.7003,-2.713,-2.7181,-2.7181,-2.7181,-2.7284,-2.7401,-2.7401,-2.7514,-2.76,-2.76,-2.76,-2.7735,-2.8183,0.0,0.0,-2.8359,-2.8415,-2.8487,-2.863,-2.9134,-2.9707,-3.0334,-3.0491,-3.1047,-3.2214,-3.2335,-3.2608,-3.3195,-3.3951,-3.4682,-3.5352,-3.4805,-3.4827,-3.5498,-3.5566,-3.56,-3.56,-3.56,-3.56,-3.56,-3.56,-3.56,-3.56,-3.56,-3.56,-3.56,-3.56,-3.6552,-3.8008,-3.8081,-3.9551,-4.1633,-4.1814,-4.2396,-4.3123,-1.5857,-1.5841,-1.5779,-1.5854,-1.6067,-1.6292,-1.6555,-1.6466,-1.6704,-1.7479,-1.7423,-1.7594,-1.8408,-1.8576,-1.8911,-1.9639,-1.9933,-2.0434,-2.1182,-2.1648,-2.1841,-2.171,-2.2813,-2.352,-2.3722,-2.4368,-2.4741,-2.4855,-2.4848,-2.4892,-2.4987,-2.4986,-2.5005,-2.5005,-2.5005,-2.5005,-2.5005,-2.5216,-2.5369,-2.5522,-2.5785,-2.5935,-2.6029,-2.6111,-2.6179,-2.6233,-2.6233,-2.6326,-2.6418,-2.6418,-2.6539,-2.6686,-2.6686,-2.6738,-2.6806,-2.6899,-2.6925,-2.6977,-2.7196,-2.7133,-2.7029,-2.7155,-2.7258,-2.731,-2.731,-2.7437,-2.7524,-2.7524,-2.7575,-2.76,-2.76,-2.76,-2.766,-2.7845,0.0,-2.8149,-2.8463,-2.8724,-2.9116,-2.9737,-2.9979,-3.0498,-3.1521,-3.1625,-3.1984,-3.2867,-3.3317,-3.3717,-3.4061,-3.4776,-3.5295,-3.5583,-3.5329,-3.5312,-3.56,-3.56,-3.56,-3.56,-3.56,-3.56,-3.56,-3.56,-3.56,-3.56,-3.56,-3.5778,-3.6079,-3.6581,-3.7464,-3.858,-3.9576,-4.0675,-4.1778,-4.2414,-4.2869,-4.3178,-1.6831,-1.6929,-1.6927,-1.696,-1.7065,-1.7184,-1.7325,-1.7297,-1.75,-1.8202,-1.8206,-1.8408,-1.9243,-1.9342,-1.9639,-2.0366,-2.0575,-2.1016,-2.1838,-2.2109,-2.2384,-2.2764,-2.3292,-2.3713,-2.3964,-2.4473,-2.4875,-2.514,-2.5159,-2.5199,-2.5286,-2.5286,-2.5286,-2.5286,-2.5286,-2.5314,-2.537,-2.5592,-2.5702,-2.5785,-2.6043,-2.6165,-2.6179,-2.626,-2.634,-2.6353,-2.6353,-2.6445,-2.6578,-2.6578,-2.6686,-2.6806,-2.6846,-2.6884,-2.6937,-2.7041,-2.7041,-2.7093,-2.735,-2.7273,-2.7144,-2.7284,-2.7372,-2.7463,-2.7463,-2.7524,-2.76,-2.76,-2.76,-2.76,-2.76,-2.771,-2.782,-2.782,-2.8231,-2.8668,-2.906,-2.9452,-3.0053,-3.0974,-3.1156,-3.1655,-3.2786,-3.2863,-3.3121,-3.3866,-3.4348,-3.4678,-3.4844,-3.5329,-3.56,-3.56,-3.56,-3.56,-3.56,-3.56,-3.56,-3.56,-3.56,-3.56,-3.56,-3.56,-3.56,-3.56,-3.56,-3.6007,-3.6719,-3.7275,-3.8254,-3.9558,-4.0685,-4.1492,-4.2158,-4.2849,-4.3142,-4.3233,-1.7979,-1.805,-1.8207,-1.8913,-1.8497,-1.8369,-1.9076,-1.8525,-1.824,-1.8911,-1.9011,-1.9276,-2.0042,-2.0107,-2.041,-2.1138,-2.164,-2.1906,-2.1894,-2.2554,-2.2922,-2.2922,-2.2922,-2.3301,-2.4083,-2.411,-2.4563,-2.548,-2.5503,-2.5647,-2.5893,-2.5893,-2.5893,-2.5893,-2.5893,-2.5975,-2.6084,-2.6084,-2.6179,-2.6313,-2.6313,-2.6313,-2.6313,-2.6313,-2.6406,-2.651,-2.651,-2.6645,-2.6806,-2.6806,-2.6806,-2.6806,-2.6951,-2.7093,-2.7207,-2.7207,-2.7207,-2.7233,-2.7376,-2.7401,-2.7412,-2.7575,-2.76,-2.76,-2.76,-2.76,-2.76,-2.76,-2.76,-2.76,-2.7585,-2.7978,-2.8304,-2.8304,-2.8772,-2.9412,-3.0282,-3.0826,-3.141,-3.221,-3.273,-3.3327,-3.413,-3.4214,-3.4583,-3.5441,-3.5492,-3.552,-3.56,-3.56,-3.56,-3.56,-3.56,-3.56,-3.56,-3.56,-3.56,-3.56,-3.56,-3.56,-3.56,-3.56,-3.56,-3.56,-3.56,-3.6336,-3.7521,-3.7521,-3.8944,-4.1114,-4.1114,-4.1853,-4.2919,-4.3049,-4.3142,-4.3233,-1.8837,-1.8936,-1.9043,-1.9496,-1.9192,-1.9015,-1.9404,-1.9042,-1.8977,-1.9671,-1.977,-2.0063,-2.0796,-2.1177,-2.1457,-2.1665,-2.2157,-2.2612,-2.2934,-2.3364,-2.3643,-2.3749,-2.3922,-2.438,-2.5084,-2.526,-2.5505,-2.5786,-2.5772,-2.5825,-2.5893,-2.5893,-2.5893,-2.5893,-2.5893,-2.5975,-2.6084,-2.6084,-2.6179,-2.6313,-2.6392,-2.6445,-2.6445,-2.6606,-2.6674,-2.6712,-2.6712,-2.6738,-2.6806,-2.6806,-2.6873,-2.6977,-2.7093,-2.7155,-2.7233,-2.731,-2.735,-2.7361,-2.7499,-2.7524,-2.7549,-2.76,-2.76,-2.76,-2.76,-2.76,-2.76,-2.76,-2.76,-2.771,-2.8027,-2.8615,-2.9199,-2.9563,-3.0489,-3.1241,-3.1551,-3.1968,-3.2541,-3.3392,-3.3526,-3.3894,-3.4751,-3.4818,-3.5011,-3.5452,-3.5543,-3.5594,-3.56,-3.56,-3.56,-3.56,-3.56,-3.56,-3.56,-3.56,-3.56,-3.56,-3.56,-3.56,-3.56,-3.56,-3.6094,-3.6921,-3.6921,-3.7787,-3.9224,-3.9792,-4.0608,-4.1573,-4.2133,-4.257,-4.2919,-4.3049,-4.3123,-4.316,-1.9228,-1.9301,-1.9399,-1.9734,-1.9467,-1.9399,-1.9951,-1.9693,-1.9704,-2.0431,-2.0528,-2.0778,-2.1413,-2.1743,-2.1974,-2.2203,-2.2501,-2.2751,-2.2909,-2.3412,-2.3769,-2.3964,-2.4424,-2.4882,-2.5275,-2.5451,-2.5674,-2.5893,-2.5893,-2.5893,-2.5893,-2.5948,-2.5975,-2.5975,-2.6029,-2.6138,-2.6258,-2.6258,-2.6353,-2.65,-2.6592,-2.6618,-2.6645,-2.6738,-2.6806,-2.6806,-2.6873,-2.6873,-2.6899,-2.6937,-2.7041,-2.717,-2.7233,-2.731,-2.7372,-2.7463,-2.7488,-2.7514,-2.7575,-2.76,-2.76,-2.76,-2.76,-2.76,-2.76,-2.76,-2.76,-2.76,-2.7971,-2.8413,-2.8679,-2.9652,-3.0536,-3.0855,-3.1679,-3.2394,-3.2725,-3.2997,-3.3454,-3.4332,-3.4323,-3.4496,-3.5195,-3.5222,-3.5291,-3.552,-3.5594,-3.56,-3.56,-3.56,-3.56,-3.56,-3.56,-3.56,-3.56,-3.56,-3.56,-3.56,-3.56,-3.56,-3.5639,-3.6111,-3.6769,-3.7521,-3.8009,-3.9033,-4.0417,-4.0899,-4.1528,-4.223,-4.2701,-4.2901,-4.2919,-4.2994,-4.3068,-4.316,-1.942,-1.946,-1.9634,-1.9961,-1.9688,-1.9712,-2.0668,-2.0468,-2.0442,-2.1163,-2.1259,-2.1422,-2.1906,-2.2009,-2.2192,-2.2673,-2.2673,-2.2589,-2.2388,-2.3023,-2.3597,-2.3943,-2.4666,-2.509,-2.509,-2.509,-2.5342,-2.5893,-2.5921,-2.5921,-2.5921,-2.6056,-2.6111,-2.6111,-2.626,-2.6379,-2.651,-2.651,-2.6618,-2.6806,-2.6806,-2.6806,-2.6806,-2.6806,-2.6806,-2.6846,-2.6977,-2.7029,-2.7055,-2.7155,-2.7284,-2.7401,-2.7427,-2.7514,-2.76,-2.76,-2.76,-2.76,-2.76,-2.76,-2.76,-2.7675,-2.769,-2.7675,-2.76,-2.7695,-2.775,-2.775,-2.8727,-2.9586,-2.962,-3.0983,-3.2115,-3.2138,-3.2557,-3.3133,-3.3789,-3.3889,-3.4184,-3.4998,-3.497,-3.5041,-3.5446,-3.54,-3.5389,-3.5577,-3.56,-3.56,-3.56,-3.56,-3.56,-3.56,-3.56,-3.5633,-3.5701,-3.5701,-3.5667,-3.56,-3.5667,-3.5723,-3.5808,-3.7045,-3.7685,-3.7879,-3.8982,-4.0152,-4.1262,-4.1262,-4.1908,-4.2901,-4.2901,-4.2919,-4.2919,-4.2919,-4.3031,-4.3214,-2.0226,-2.0798,-2.1346,-2.1623,-2.1321,-2.1142,-2.1587,-2.1253,-2.1136,-2.1676,-2.1766,-2.195,-2.2467,-2.2834,-2.296,-2.2708,-2.2451,-2.2687,-2.3641,-2.3697,-2.4148,-2.5075,-2.5508,-2.5702,-2.5702,-2.5702,-2.5784,-2.5893,-2.6002,-2.6056,-2.6056,-2.6206,-2.626,-2.626,-2.6286,-2.6379,-2.651,-2.651,-2.6618,-2.6806,-2.6806,-2.6806,-2.6806,-2.6925,-2.6951,-2.6977,-2.7119,-2.717,-2.7181,-2.731,-2.7376,-2.7427,-2.7524,-2.7575,-2.76,-2.76,-2.76,-2.76,-2.76,-2.76,-2.772,-2.8248,-2.8368,-2.8233,-2.772,-2.8329,-2.9005,-2.9005,-2.9977,-3.0956,-3.1374,-3.2216,-3.2988,-3.3357,-3.3991,-3.4468,-3.4634,-3.4651,-3.4741,-3.493,-3.4923,-3.5018,-3.5314,-3.5458,-3.5554,-3.56,-3.56,-3.56,-3.56,-3.56,-3.56,-3.56,-3.56,-3.591,-3.6518,-3.6535,-3.6214,-3.56,-3.6231,-3.6729,-3.7106,-3.7974,-3.9072,-4.0337,-4.0615,-4.1391,-4.2515,-4.2515,-4.2662,-4.2901,-4.2901,-4.2957,-4.3067,-4.3067,-4.3123,-4.3214,-2.1116,-2.1489,-2.1874,-2.2143,-2.1794,-2.1603,-2.1864,-2.1491,-2.1293,-2.1525,-2.1571,-2.188,-2.274,-2.308,-2.3297,-2.3437,-2.3288,-2.343,-2.3917,-2.4132,-2.4673,-2.5641,-2.6106,-2.6497,-2.6905,-2.6919,-2.6595,-2.6002,-2.6111,-2.6206,-2.6206,-2.6312,-2.6406,-2.6392,-2.65,-2.658,-2.6645,-2.6645,-2.6712,-2.6806,-2.6873,-2.6873,-2.6806,-2.7015,-2.7055,-2.7029,-2.7222,-2.7335,-2.7397,-2.7488,-2.7488,-2.7514,-2.7575,-2.76,-2.76,-2.76,-2.76,-2.766,-2.8004,-2.8094,-2.8233,-2.8906,-2.9279,-2.9303,-2.8685,-2.925,-2.9873,-2.9873,-3.107,-3.22,-3.2473,-3.3297,-3.4043,-3.4296,-3.4651,-3.4899,-3.4899,-3.4899,-3.4923,-3.4994,-3.4994,-3.5088,-3.5377,-3.5526,-3.56,-3.56,-3.56,-3.56,-3.56,-3.56,-3.5769,-3.6163,-3.618,-3.6535,-3.7313,-3.7313,-3.7233,-3.7035,-3.7467,-3.7791,-3.8057,-3.9258,-4.0262,-4.1114,-4.1704,-4.2313,-4.2901,-4.2901,-4.2901,-4.2901,-4.2901,-4.2938,-4.3012,-4.3086,-4.3178,-4.3323,-2.1993,-2.2107,-2.228,-2.2517,-2.2127,-2.1896,-2.2115,-2.1755,-2.1541,-2.1783,-2.1827,-2.2285,-2.3524,-2.3648,-2.3903,-2.4604,-2.4577,-2.4455,-2.4318,-2.4762,-2.5424,-2.6231,-2.6748,-2.7328,-2.801,-2.8082,-2.7542,-2.6464,-2.66,-2.6681,-2.6681,-2.6802,-2.6868,-2.6895,-2.7045,-2.7125,-2.7125,-2.7125,-2.714,-2.7178,-2.7156,-2.7112,-2.7056,-2.7174,-2.717,-2.7107,-2.735,-2.7514,-2.76,-2.76,-2.76,-2.76,-2.76,-2.775,-2.7901,-2.7901,-2.8052,-2.8314,-2.8774,-2.8977,-2.9195,-2.9753,-3.03,-3.0613,-3.0281,-3.056,-3.0849,-3.0849,-3.2205,-3.3412,-3.3412,-3.4231,-3.4899,-3.4899,-3.4899,-3.4899,-3.4899,-3.4899,-3.4947,-3.5088,-3.5152,-3.5245,-3.5469,-3.5549,-3.56,-3.56,-3.56,-3.565,-3.5785,-3.5825,-3.618,-3.6965,-3.6998,-3.733,-3.8091,-3.8091,-3.8387,-3.8984,-3.9057,-3.9076,-3.9082,-4.0595,-4.1332,-4.1465,-4.246,-4.2901,-4.2901,-4.2901,-4.2901,-4.2901,-4.2901,-4.2901,-4.2938,-4.3086,-4.3251,-4.3412,-2.2841,-2.3409,-2.3911,-2.3916,-2.3483,-2.3176,-2.3177,-2.28,-2.292,-2.4155,-2.4304,-2.4826,-2.6219,-2.5955,-2.5819,-2.6091,-2.5682,-2.57,-2.6364,-2.6484,-2.6882,-2.768,-2.7781,-2.7939,-2.8168,-2.8354,-2.8268,-2.7926,-2.8096,-2.8209,-2.8223,-2.8321,-2.8391,-2.8391,-2.8419,-2.8447,-2.8447,-2.8447,-2.8516,-2.8569,-2.8013,-2.7874,-2.7948,-2.7532,-2.7376,-2.7376,-2.7539,-2.7575,-2.76,-2.76,-2.76,-2.76,-2.76,-2.8313,-2.9156,-2.9156,-2.9897,-3.0638,-3.0243,-3.0503,-3.0886,-3.11,-3.1555,-3.2094,-3.2589,-3.2711,-3.2741,-3.2741,-3.3753,-3.4679,-3.4679,-3.4785,-3.4899,-3.4899,-3.4899,-3.4899,-3.4899,-3.4899,-3.4947,-3.5088,-3.5291,-3.5469,-3.5492,-3.5549,-3.56,-3.56,-3.56,-3.591,-3.6609,-3.6643,-3.6975,-3.7736,-3.7753,-3.8108,-3.8836,-3.8853,-3.9409,-4.0515,-4.0916,-4.1,-4.0793,-4.1658,-4.2277,-4.2681,-4.2827,-4.2901,-4.2901,-4.2901,-4.2901,-4.2901,-4.2901,-4.2975,-4.3104,-4.3287,-4.3376,-4.3412,-2.3666,-2.397,-2.42,-2.42,-2.4178,-2.4163,-2.4163,-2.4205,-2.4431,-2.5059,-2.5129,-2.5527,-2.649,-2.6804,-2.7018,-2.7176,-2.6965,-2.7026,-2.7428,-2.7471,-2.7845,-2.8638,-2.8666,-2.8882,-2.9358,-2.9462,-2.952,-2.955,-2.8929,-2.8624,-2.8624,-2.8681,-2.8722,-2.8792,-2.8792,-2.8848,-2.8918,-2.8918,-2.8974,-2.8985,-2.8815,-2.894,-2.92,-2.9122,-2.9041,-2.899,-2.9103,-2.9367,-2.9602,-2.9602,-2.9602,-2.9602,-2.9602,-2.9977,-3.0425,-3.0425,-3.0777,-3.1232,-3.136,-3.1571,-3.1871,-3.2295,-3.2849,-3.3338,-3.3633,-3.3925,-3.4029,-3.3713,-3.4316,-3.4899,-3.4899,-3.4899,-3.4899,-3.4899,-3.4899,-3.4899,-3.4899,-3.4899,-3.497,-3.5198,-3.5377,-3.5514,-3.5549,-3.5577,-3.5785,-3.6231,-3.6265,-3.6603,-3.7364,-3.7398,-3.7753,-3.8481,-3.8514,-3.887,-3.9622,-3.9859,-4.0403,-4.1208,-4.1674,-4.1834,-4.1736,-4.2316,-4.2692,-4.2901,-4.2901,-4.2901,-4.2901,-4.2901,-4.2901,-4.2901,-4.2901,-4.2975,-4.3104,-4.3196,-4.3251,-4.3286]},{"header":{"parameterUnit":"m.s-1","parameterCategory":1,"la1":30.6,"la2":28.766,"lo1":-90.7593,"lo2":-88.6598,"dx":0.0162,"dy":0.0183,"nx":116,"ny":114,"refTime":"2023-01-27T06:00:00:Z","depth":0,"parameterNumber":3,"parameterNumberName":"V-component_of_WINDS"},"data":[0.0,0.0,0.0,0.0,0.0,0.0,0.0,0.0,0.0,0.0,0.0,0.0,0.0,0.0,0.0,0.0,0.0,0.0,0.0,0.0,0.0,0.0,0.0,0.0,0.0,0.0,0.0,0.0,0.0,0.0,0.0,0.0,0.0,0.0,0.0,0.0,0.0,0.0,0.0,0.0,0.0,0.0,0.0,0.0,0.0,0.0,0.0,0.0,0.0,0.0,0.0,0.0,0.0,0.0,0.0,0.0,0.0,0.0,0.0,0.0,0.0,0.0,0.0,0.0,0.0,0.0,0.0,0.0,0.0,0.0,0.0,0.0,0.0,0.0,0.0,0.0,0.0,0.0,0.0,0.0,0.0,0.0,0.0,0.0,0.0,0.0,0.0,0.0,0.0,0.0,0.0,0.0,0.0,0.0,0.0,0.0,0.0,0.0,0.0,0.0,0.0,0.0,0.0,0.0,0.0,0.0,0.0,0.0,0.0,0.0,0.0,0.0,0.0,0.0,0.0,0.0,0.0,0.0,0.0,0.0,0.0,0.0,0.0,0.0,0.0,0.0,0.0,0.0,0.0,0.0,0.0,0.0,0.0,0.0,0.0,0.0,0.0,0.0,0.0,0.0,0.0,0.0,0.0,0.0,0.0,0.0,0.0,0.0,0.0,0.0,0.0,0.0,0.0,0.0,0.0,0.0,0.0,0.0,0.0,0.0,0.0,0.0,0.0,0.0,0.0,0.0,0.0,0.0,0.0,0.0,0.0,0.0,0.0,0.0,0.0,0.0,0.0,0.0,0.0,0.0,0.0,0.0,0.0,0.0,0.0,0.0,0.0,0.0,0.0,0.0,0.0,0.0,0.0,0.0,0.0,0.0,0.0,0.0,0.0,0.0,0.0,0.0,0.0,0.0,0.0,0.0,0.0,0.0,0.0,0.0,0.0,0.0,0.0,0.0,0.0,0.0,0.0,0.0,0.0,0.0,0.0,0.0,0.0,0.0,0.0,0.0,0.0,0.0,0.0,0.0,0.0,0.0,0.0,0.0,0.0,0.0,0.0,0.0,0.0,0.0,0.0,0.0,0.0,0.0,0.0,0.0,0.0,0.0,0.0,0.0,0.0,0.0,0.0,0.0,0.0,0.0,0.0,0.0,0.0,0.0,0.0,0.0,0.0,0.0,0.0,0.0,0.0,0.0,0.0,0.0,0.0,0.0,0.0,0.0,0.0,0.0,0.0,0.0,0.0,0.0,0.0,0.0,0.0,0.0,0.0,0.0,0.0,0.0,0.0,0.0,0.0,0.0,0.0,0.0,0.0,0.0,0.0,0.0,0.0,0.0,0.0,0.0,0.0,0.0,0.0,0.0,0.0,0.0,0.0,0.0,0.0,0.0,0.0,0.0,0.0,0.0,0.0,0.0,0.0,0.0,0.0,0.0,0.0,0.0,0.0,0.0,0.0,0.0,0.0,0.0,0.0,0.0,0.0,0.0,0.0,0.0,0.0,0.0,0.0,0.0,0.0,0.0,0.0,0.0,0.0,0.0,0.0,0.0,0.0,0.0,0.0,0.0,0.0,0.0,0.0,0.0,0.0,0.0,0.0,0.0,0.0,0.0,0.0,0.0,0.0,0.0,0.0,0.0,0.0,0.0,0.0,0.0,0.0,0.0,0.0,0.0,0.0,0.0,0.0,0.0,0.0,0.0,0.0,0.0,0.0,0.0,0.0,0.0,0.0,0.0,0.0,0.0,0.0,0.0,0.0,0.0,0.0,0.0,0.0,0.0,0.0,0.0,0.0,0.0,0.0,0.0,0.0,0.0,0.0,0.0,0.0,0.0,0.0,0.0,0.0,0.0,0.0,0.0,0.0,0.0,0.0,0.0,0.0,0.0,0.0,0.0,0.0,0.0,0.0,0.0,0.0,0.0,0.0,0.0,0.0,0.0,0.0,0.0,0.0,0.0,0.0,0.0,0.0,0.0,0.0,0.0,0.0,0.0,0.0,0.0,0.0,0.0,0.0,0.0,0.0,0.0,0.0,0.0,0.0,0.0,0.0,0.0,0.0,0.0,0.0,0.0,0.0,0.0,0.0,0.0,0.0,0.0,0.0,0.0,0.0,0.0,0.0,0.0,0.0,0.0,0.0,0.0,0.0,0.0,0.0,0.0,0.0,0.0,0.0,0.0,0.0,0.0,0.0,0.0,0.0,0.0,0.0,0.0,0.0,0.0,0.0,0.0,0.0,0.0,0.0,0.0,0.0,0.0,0.0,0.0,0.0,0.0,0.0,0.0,0.0,0.0,0.0,0.0,0.0,0.0,0.0,0.0,0.0,0.0,0.0,0.0,0.0,0.0,0.0,0.0,0.0,0.0,0.0,0.0,0.0,0.0,0.0,0.0,0.0,0.0,0.0,0.0,0.0,0.0,0.0,0.0,0.0,0.0,0.0,0.0,0.0,0.0,0.0,0.0,0.0,0.0,0.0,0.0,0.0,0.0,0.0,0.0,0.0,0.0,0.0,0.0,0.0,0.0,0.0,0.0,0.0,0.0,0.0,0.0,0.0,0.0,0.0,0.0,0.0,0.0,0.0,0.0,0.0,0.0,0.0,0.0,0.0,0.0,0.0,0.0,0.0,0.0,0.0,0.0,0.0,0.0,0.0,0.0,0.0,0.0,0.0,0.0,0.0,0.0,0.0,0.0,0.0,0.0,0.0,0.0,0.0,0.0,0.0,0.0,0.0,0.0,0.0,0.0,0.0,0.0,0.0,0.0,0.0,0.0,0.0,0.0,0.0,0.0,0.0,0.0,0.0,0.0,0.0,0.0,0.0,0.0,0.0,0.0,0.0,0.0,0.0,0.0,0.0,0.0,0.0,0.0,0.0,0.0,0.0,0.0,0.0,0.0,0.0,0.0,0.0,0.0,0.0,0.0,0.0,0.0,0.0,0.0,0.0,0.0,0.0,0.0,0.0,0.0,0.0,0.0,0.0,0.0,0.0,0.0,0.0,0.0,0.0,0.0,0.0,0.0,0.0,0.0,0.0,0.0,0.0,0.0,0.0,0.0,0.0,0.0,0.0,0.0,0.0,0.0,0.0,0.0,0.0,0.0,0.0,0.0,0.0,0.0,0.0,0.0,0.0,0.0,0.0,0.0,0.0,0.0,0.0,0.0,0.0,0.0,0.0,0.0,0.0,0.0,0.0,0.0,0.0,0.0,0.0,0.0,0.0,0.0,0.0,0.0,0.0,0.0,0.0,0.0,0.0,0.0,0.0,0.0,0.0,0.0,0.0,0.0,0.0,0.0,0.0,0.0,0.0,0.0,0.0,0.0,0.0,0.0,0.0,0.0,0.0,0.0,0.0,0.0,0.0,0.0,0.0,0.0,0.0,0.0,0.0,0.0,0.0,0.0,0.0,0.0,0.0,0.0,0.0,0.0,0.0,0.0,0.0,0.0,0.0,0.0,0.0,0.0,0.0,0.0,0.0,0.0,0.0,0.0,0.0,0.0,0.0,0.0,0.0,0.0,0.0,0.0,0.0,0.0,0.0,0.0,0.0,0.0,0.0,0.0,0.0,0.0,0.0,0.0,0.0,0.0,0.0,0.0,0.0,0.0,0.0,0.0,0.0,0.0,0.0,0.0,0.0,0.0,0.0,0.0,0.0,0.0,0.0,0.0,0.0,0.0,0.0,0.0,0.0,0.0,0.0,0.0,0.0,0.0,0.0,0.0,0.0,0.0,0.0,0.0,0.0,0.0,0.0,0.0,0.0,0.0,0.0,0.0,0.0,0.0,0.0,0.0,0.0,0.0,0.0,0.0,0.0,0.0,0.0,0.0,0.0,0.0,0.0,0.0,0.0,0.0,0.0,0.0,0.0,0.0,0.0,0.0,0.0,0.0,0.0,0.0,0.0,0.0,0.0,0.0,0.0,0.0,0.0,0.0,0.0,0.0,0.0,0.0,0.0,0.0,0.0,0.0,0.0,0.0,0.0,0.0,0.0,0.0,0.0,0.0,0.0,0.0,0.0,0.0,0.0,0.0,0.0,0.0,0.0,0.0,0.0,0.0,0.0,0.0,0.0,0.0,0.0,0.0,0.0,0.0,0.0,0.0,0.0,0.0,0.0,0.0,0.0,0.0,0.0,0.0,0.0,0.0,0.0,0.0,0.0,0.0,0.0,0.0,0.0,0.0,0.0,0.0,0.0,0.0,0.0,0.0,0.0,0.0,0.0,0.0,0.0,0.0,0.0,0.0,0.0,0.0,0.0,0.0,0.0,0.0,0.0,0.0,0.0,0.0,0.0,0.0,0.0,0.0,0.0,0.0,0.0,0.0,0.0,0.0,0.0,0.0,0.0,0.0,0.0,0.0,0.0,0.0,0.0,0.0,0.0,0.0,0.0,0.0,0.0,0.0,0.0,0.0,0.0,0.0,0.0,0.0,0.0,0.0,0.0,0.0,0.0,0.0,0.0,0.0,0.0,0.0,0.0,0.0,0.0,0.0,0.0,0.0,0.0,0.0,0.0,0.0,0.0,0.0,0.0,0.0,0.0,0.0,0.0,0.0,0.0,0.0,0.0,0.0,0.0,0.0,0.0,0.0,0.0,0.0,0.0,0.0,0.0,0.0,0.0,0.0,0.0,0.0,0.0,0.0,0.0,0.0,0.0,0.0,0.0,0.0,0.0,0.0,0.0,0.0,0.0,0.0,0.0,0.0,0.0,0.0,0.0,0.0,0.0,0.0,0.0,0.0,0.0,0.0,0.0,0.0,0.0,0.0,0.0,0.0,0.0,0.0,0.0,0.0,0.0,0.0,0.0,0.0,0.0,0.0,0.0,0.0,0.0,0.0,0.0,0.0,0.0,0.0,0.0,0.0,0.0,0.0,0.0,0.0,0.0,0.0,0.0,0.0,0.0,0.0,0.0,0.0,0.0,0.0,0.0,0.0,0.0,0.0,0.0,0.0,0.0,0.0,0.0,0.0,0.0,0.0,0.0,0.0,0.0,0.0,0.0,0.0,0.0,0.0,0.0,0.0,0.0,0.0,0.0,0.0,0.0,0.0,0.0,0.0,0.0,0.0,0.0,0.0,0.0,0.0,0.0,0.0,0.0,0.0,0.0,0.0,0.0,0.0,0.0,0.0,0.0,0.0,0.0,0.0,0.0,0.0,0.0,0.0,0.0,0.0,0.0,0.0,0.0,0.0,0.0,0.0,0.0,0.0,0.0,0.0,0.0,0.0,0.0,0.0,0.0,0.0,0.0,0.0,0.0,0.0,0.0,0.0,0.0,0.0,0.0,0.0,0.0,0.0,0.0,0.0,0.0,0.0,0.0,0.0,0.0,0.0,0.0,0.0,0.0,0.0,0.0,0.0,0.0,0.0,0.0,0.0,0.0,0.0,0.0,0.0,0.0,0.0,0.0,0.0,0.0,0.0,0.0,0.0,0.0,0.0,0.0,0.0,0.0,0.0,0.0,0.0,0.0,0.0,0.0,0.0,0.0,0.0,0.0,0.0,0.0,0.0,0.0,0.0,0.0,0.0,0.0,0.0,0.0,0.0,0.0,0.0,0.0,0.0,0.0,0.0,0.0,0.0,0.0,0.0,0.0,0.0,0.0,0.0,0.0,0.0,0.0,0.0,0.0,0.0,0.0,0.0,0.0,0.0,0.0,0.0,0.0,0.0,0.0,0.0,0.0,0.0,0.0,0.0,0.0,0.0,0.0,0.0,0.0,0.0,0.0,0.0,0.0,0.0,0.0,0.0,0.0,0.0,0.0,0.0,0.0,0.0,0.0,0.0,0.0,0.0,0.0,0.0,0.0,0.0,0.0,0.0,0.0,0.0,0.0,0.0,0.0,0.0,0.0,0.0,0.0,0.0,0.0,0.0,0.0,0.0,0.0,0.0,0.0,0.0,0.0,0.0,0.0,0.0,0.0,0.0,0.0,0.0,0.0,0.0,0.0,0.0,0.0,0.0,0.0,0.0,0.0,0.0,0.0,0.0,0.0,0.0,0.0,0.0,0.0,0.0,0.0,0.0,0.0,0.0,0.0,0.0,0.0,0.0,0.0,0.0,0.0,0.0,0.0,0.0,0.0,0.0,0.0,0.0,0.0,0.0,0.0,0.0,0.0,0.0,3.7459,0.0,0.0,0.0,0.0,0.0,0.0,0.0,0.0,0.0,0.0,0.0,0.0,0.0,0.0,0.0,0.0,0.0,0.0,0.0,0.0,0.0,0.0,0.0,0.0,0.0,0.0,0.0,0.0,0.0,0.0,0.0,0.0,0.0,0.0,0.0,0.0,0.0,0.0,0.0,3.0506,3.0506,3.0506,3.0568,3.0568,3.0506,0.0,0.0,0.0,0.0,0.0,0.0,0.0,0.0,0.0,0.0,0.0,0.0,0.0,0.0,0.0,0.0,0.0,0.0,0.0,0.0,0.0,0.0,0.0,0.0,0.0,0.0,0.0,0.0,0.0,0.0,0.0,0.0,0.0,0.0,0.0,0.0,0.0,0.0,0.0,0.0,0.0,0.0,0.0,0.0,0.0,0.0,0.0,0.0,0.0,0.0,0.0,0.0,0.0,0.0,0.0,0.0,0.0,0.0,0.0,0.0,0.0,0.0,0.0,0.0,0.0,0.0,0.0,0.0,0.0,0.0,0.0,3.7729,0.0,0.0,0.0,0.0,0.0,0.0,0.0,0.0,0.0,0.0,0.0,0.0,0.0,0.0,0.0,0.0,0.0,0.0,0.0,0.0,0.0,0.0,0.0,0.0,0.0,0.0,0.0,0.0,0.0,0.0,0.0,0.0,0.0,0.0,0.0,3.0547,3.0531,3.0531,3.0531,3.0547,3.0568,3.0671,3.0671,3.0568,3.0568,0.0,0.0,0.0,0.0,0.0,0.0,0.0,0.0,0.0,0.0,0.0,0.0,0.0,0.0,0.0,0.0,0.0,0.0,0.0,0.0,0.0,0.0,0.0,0.0,0.0,0.0,0.0,0.0,0.0,0.0,0.0,0.0,0.0,0.0,0.0,0.0,0.0,0.0,0.0,0.0,0.0,0.0,0.0,0.0,0.0,0.0,0.0,0.0,0.0,0.0,0.0,0.0,0.0,0.0,0.0,0.0,0.0,0.0,0.0,0.0,0.0,0.0,0.0,0.0,0.0,3.8135,3.7928,3.8044,3.8389,3.8044,3.8245,3.8728,0.0,0.0,0.0,0.0,0.0,0.0,0.0,0.0,0.0,0.0,0.0,0.0,0.0,0.0,0.0,0.0,0.0,0.0,0.0,0.0,0.0,0.0,0.0,0.0,0.0,0.0,0.0,0.0,0.0,0.0,0.0,0.0,0.0,0.0,3.0733,3.0671,3.0671,3.0671,3.0733,3.0851,3.0871,3.0871,3.0851,3.0851,3.0851,3.0851,0.0,0.0,0.0,0.0,0.0,0.0,0.0,0.0,0.0,0.0,0.0,0.0,0.0,0.0,0.0,0.0,0.0,0.0,0.0,0.0,0.0,0.0,0.0,0.0,0.0,0.0,0.0,0.0,0.0,0.0,0.0,0.0,0.0,0.0,0.0,0.0,0.0,0.0,0.0,0.0,0.0,3.6487,3.6772,0.0,0.0,0.0,0.0,0.0,0.0,0.0,0.0,0.0,0.0,0.0,0.0,0.0,0.0,3.8685,3.8718,3.8652,3.8446,3.8588,3.8556,3.8366,3.8316,3.8332,3.8415,3.8588,0.0,3.8792,3.8667,0.0,0.0,0.0,0.0,0.0,0.0,0.0,0.0,0.0,0.0,0.0,0.0,0.0,0.0,0.0,0.0,0.0,0.0,0.0,0.0,0.0,0.0,0.0,0.0,0.0,0.0,0.0,0.0,0.0,0.0,0.0,3.0892,3.0892,3.0851,3.0794,3.0794,3.0794,3.0851,3.0892,3.0952,3.0972,3.0955,3.1032,3.1012,3.0892,3.0952,0.0,0.0,0.0,0.0,0.0,0.0,0.0,0.0,0.0,0.0,0.0,0.0,0.0,0.0,0.0,0.0,0.0,0.0,0.0,0.0,0.0,0.0,0.0,0.0,0.0,0.0,0.0,0.0,0.0,0.0,0.0,0.0,0.0,0.0,0.0,0.0,0.0,0.0,0.0,3.5904,3.6201,3.6957,3.6941,3.6827,0.0,0.0,0.0,0.0,0.0,0.0,0.0,0.0,0.0,3.8191,3.8689,3.8829,3.859,3.8713,3.8667,3.8399,3.8528,3.851,3.8399,3.8399,3.8399,3.8399,3.851,3.8652,3.8792,3.8646,3.8457,3.8302,0.0,0.0,0.0,0.0,0.0,3.8269,0.0,0.0,0.0,0.0,0.0,0.0,0.0,0.0,0.0,0.0,0.0,0.0,0.0,0.0,0.0,3.0975,0.0,0.0,0.0,0.0,0.0,0.0,0.0,3.0972,3.0972,3.0952,3.0932,3.0932,3.0932,3.0952,3.0972,3.1032,3.1055,3.1072,3.1151,3.1154,3.1098,3.1055,3.1488,3.2179,0.0,0.0,0.0,0.0,0.0,0.0,0.0,0.0,0.0,0.0,0.0,0.0,0.0,0.0,0.0,0.0,0.0,0.0,0.0,0.0,0.0,0.0,0.0,0.0,0.0,0.0,0.0,0.0,0.0,0.0,0.0,0.0,0.0,0.0,0.0,0.0,0.0,3.6468,3.6649,3.753,3.7517,3.7385,0.0,0.0,0.0,0.0,0.0,0.0,3.7917,3.8627,3.8859,3.851,3.8766,3.8752,3.8399,3.8606,3.8556,3.8302,3.8302,3.8252,3.8203,3.8203,3.8203,3.8203,3.8269,3.8415,3.8606,3.8535,3.8582,3.868,3.838,3.8302,0.0,3.8446,3.8494,3.8544,0.0,0.0,0.0,0.0,0.0,0.0,0.0,0.0,0.0,0.0,0.0,0.0,0.0,0.0,3.1112,3.0932,3.0955,3.0955,0.0,0.0,3.0995,3.0995,3.1112,3.1171,3.1171,3.1055,3.0995,3.0995,3.0995,3.1055,3.119,3.119,3.119,3.119,3.119,3.137,3.1638,3.1312,3.1656,3.2385,3.2385,0.0,0.0,0.0,0.0,0.0,0.0,0.0,0.0,0.0,0.0,0.0,0.0,0.0,0.0,0.0,0.0,0.0,0.0,0.0,0.0,0.0,0.0,0.0,0.0,0.0,0.0,0.0,0.0,0.0,0.0,0.0,0.0,0.0,0.0,0.0,0.0,0.0,0.0,3.931,3.9368,0.0,0.0,0.0,0.0,3.8971,3.9027,3.9027,3.9013,3.8902,3.8788,3.8792,3.8559,3.8415,3.8399,3.8415,3.8285,3.8018,3.8018,3.788,3.7631,3.7631,3.7631,3.7649,3.7897,3.8035,3.8086,3.859,3.8646,3.8434,3.868,3.8494,3.8168,3.8621,3.8792,3.8803,0.0,0.0,0.0,0.0,0.0,0.0,0.0,0.0,0.0,0.0,0.0,0.0,0.0,3.1171,3.1131,3.0992,3.0952,3.0935,3.0955,0.0,3.0975,3.1131,3.1171,3.119,3.119,3.1151,3.1131,3.1131,3.1131,3.1151,3.119,3.119,3.119,3.119,3.119,3.1524,3.2074,3.1675,3.186,3.2419,3.2685,3.2894,0.0,0.0,0.0,0.0,0.0,0.0,0.0,0.0,0.0,0.0,0.0,0.0,0.0,0.0,0.0,0.0,0.0,0.0,0.0,0.0,0.0,0.0,0.0,0.0,0.0,0.0,0.0,0.0,0.0,0.0,0.0,0.0,0.0,0.0,0.0,0.0,0.0,3.9283,3.9305,0.0,0.0,3.9101,3.9101,3.9101,3.9101,3.9101,3.9101,3.9031,3.8935,3.8807,3.8698,3.8478,3.8153,3.8136,3.8001,3.7739,3.7739,3.7954,3.838,3.838,3.8629,3.9093,3.9188,3.9049,3.8778,3.8985,3.8905,3.8661,3.8758,3.877,3.8748,3.8931,3.8989,3.9003,0.0,0.0,0.0,0.0,0.0,0.0,0.0,0.0,0.0,0.0,0.0,3.119,3.119,3.119,3.1151,3.1015,3.0955,3.0955,3.0995,0.0,3.1055,3.1351,3.137,3.131,3.121,3.119,3.119,3.119,3.119,3.119,3.119,3.119,3.121,3.1232,3.1232,3.1674,3.2386,3.2127,3.2317,3.2829,3.3003,3.3175,3.3353,0.0,0.0,0.0,0.0,0.0,0.0,0.0,0.0,0.0,0.0,0.0,0.0,0.0,0.0,0.0,0.0,0.0,0.0,0.0,0.0,0.0,0.0,0.0,0.0,0.0,0.0,0.0,0.0,0.0,0.0,0.0,0.0,0.0,0.0,0.0,3.8765,3.9301,3.9205,3.9101,3.9101,3.9101,3.9101,3.9101,3.9101,3.9101,3.9101,3.9031,3.8906,3.8667,3.8575,3.8318,3.7862,3.8133,3.8187,3.8005,3.8255,3.8665,3.9163,3.9163,3.9431,3.9895,3.9895,3.9724,3.9445,3.9445,3.937,3.9278,3.8934,3.8921,3.9101,3.9101,3.9101,3.9101,0.0,0.0,0.0,0.0,0.0,0.0,0.0,0.0,0.0,0.0,3.1408,3.119,3.119,3.119,3.1151,3.1015,3.0995,3.0995,3.1015,3.1015,3.1218,3.1677,3.1677,3.1543,3.121,3.119,3.119,3.119,3.119,3.119,3.119,3.119,3.1232,3.1295,3.1315,3.1786,3.2606,3.2605,3.3006,3.3591,3.3321,3.3433,3.3793,0.0,0.0,0.0,0.0,0.0,0.0,0.0,0.0,0.0,0.0,0.0,0.0,0.0,0.0,0.0,0.0,0.0,0.0,0.0,0.0,0.0,0.0,0.0,0.0,0.0,0.0,0.0,0.0,0.0,0.0,0.0,0.0,0.0,3.9973,3.9687,3.9519,3.9508,3.9272,3.9101,3.9101,3.9101,3.9101,3.9101,3.9101,3.9101,3.9101,3.8906,3.8701,3.8451,3.8172,3.7916,3.7702,3.8451,3.8825,3.8825,3.9556,3.9912,3.993,3.993,3.9948,3.9966,3.9966,3.9968,3.995,3.995,4.0104,4.0221,3.9237,3.8995,3.9161,3.9175,3.9175,3.9175,0.0,0.0,0.0,0.0,0.0,0.0,0.0,0.0,0.0,0.0,3.1408,3.119,3.119,3.119,3.1151,3.1015,3.0995,3.1117,3.143,0.0,3.1507,3.1677,3.1468,3.1291,3.119,3.119,3.119,3.119,3.119,3.119,3.119,3.119,3.1232,3.1315,3.1548,3.2003,3.2605,3.291,3.3276,3.3657,3.3583,3.3508,3.3465,0.0,0.0,0.0,0.0,0.0,0.0,0.0,0.0,0.0,0.0,0.0,0.0,0.0,0.0,0.0,0.0,0.0,0.0,0.0,0.0,0.0,0.0,0.0,0.0,0.0,0.0,0.0,0.0,0.0,0.0,0.0,0.0,4.0639,4.0381,3.9934,3.9641,3.9648,3.9313,3.9101,3.9101,3.9101,3.9101,3.9101,3.9101,3.9101,3.9101,3.8906,3.9001,3.9475,3.9091,3.9085,3.9535,3.9581,3.9591,3.9591,3.9788,4.0198,4.077,4.077,4.1092,4.1645,4.1645,4.1445,4.1137,4.1137,4.0944,4.0649,4.0364,4.0412,4.0646,4.0844,4.0903,4.0903,0.0,0.0,0.0,0.0,0.0,0.0,0.0,0.0,0.0,0.0,3.186,3.16,3.1428,3.1408,3.1312,3.1095,3.1215,3.1391,3.1638,3.1805,3.1769,3.1506,3.1447,3.1332,3.121,3.119,3.119,3.119,3.119,3.119,3.119,3.1232,3.1291,3.1406,3.1787,3.2214,3.2702,3.3078,3.3451,3.3793,3.3793,3.3694,3.3578,3.3802,3.3881,3.3895,3.3998,3.4049,3.4061,3.4161,0.0,0.0,0.0,0.0,0.0,0.0,0.0,0.0,0.0,0.0,0.0,0.0,0.0,0.0,0.0,0.0,0.0,0.0,0.0,0.0,0.0,0.0,0.0,0.0,4.0759,4.072,4.0489,4.0072,3.9778,3.9754,3.9364,3.9101,3.9101,3.9101,3.9101,3.9101,3.9101,3.925,3.9621,3.9405,3.9574,4.0272,3.9873,3.9806,4.0144,4.0313,4.0414,4.0414,4.0753,4.1145,4.1591,4.1591,4.1859,0.0,4.2308,4.2159,4.1907,4.2004,4.1885,0.0,0.0,0.0,0.0,0.0,4.159,4.159,0.0,0.0,0.0,0.0,0.0,0.0,0.0,0.0,0.0,0.0,0.0,3.2109,3.1805,3.1677,3.1543,3.1271,3.1524,3.1732,3.1823,3.2109,3.2003,3.1349,3.1524,3.1506,3.121,3.1249,3.1269,3.1269,3.1291,3.1329,3.1329,3.1391,3.1504,3.1651,3.2109,3.2519,3.2874,3.3214,3.3564,3.3895,3.3908,3.3908,3.3908,3.3972,3.3998,3.4011,3.4074,3.4124,3.4161,3.4233,0.0,0.0,0.0,0.0,0.0,0.0,0.0,0.0,0.0,0.0,0.0,0.0,0.0,0.0,0.0,0.0,0.0,0.0,0.0,0.0,0.0,0.0,0.0,0.0,4.0797,4.0694,4.043,4.0109,3.9867,3.9786,3.9377,3.9101,3.9101,3.9194,3.925,3.925,3.9324,3.9714,4.049,0.0,0.0,0.0,0.0,4.0324,4.0182,4.0877,4.1234,4.1234,4.1948,4.2308,4.2308,4.2308,4.2308,4.2308,4.2328,4.2369,4.2412,4.2692,4.2789,4.27,4.1557,4.1282,4.1544,4.1775,4.1869,0.0,0.0,0.0,0.0,0.0,0.0,0.0,0.0,0.0,0.0,3.2975,3.2351,3.1968,3.2144,3.1638,3.137,3.1582,3.1658,3.195,3.2551,3.2419,3.2248,3.2092,3.1581,3.1269,3.119,3.1449,3.1601,3.1601,3.1932,3.2092,3.2092,3.2162,3.2266,3.2421,3.2829,3.3078,3.3232,3.355,3.3775,3.3895,3.3959,3.3985,3.3985,3.3998,3.3998,3.4011,3.4074,3.4245,3.4431,3.4494,3.4665,3.4851,3.4916,0.0,0.0,0.0,0.0,0.0,0.0,0.0,0.0,0.0,0.0,0.0,0.0,0.0,0.0,0.0,0.0,0.0,0.0,0.0,0.0,4.079,4.0797,4.0687,4.0351,4.0091,3.9815,3.9587,3.9287,3.9101,3.9101,3.9733,4.0155,4.0155,4.0736,4.1181,4.1349,4.0898,0.0,4.1665,4.121,4.1223,4.1823,4.1984,4.2076,4.2076,0.0,0.0,4.2308,4.2308,4.2308,4.2308,4.2534,4.2787,4.305,4.3303,4.3425,4.3406,4.3145,4.3217,4.346,4.3525,4.354,4.354,0.0,0.0,0.0,0.0,0.0,0.0,0.0,0.0,0.0,0.0,3.2923,3.265,3.2635,3.2266,3.2003,3.2003,3.2162,3.2435,3.2878,3.2684,3.2468,3.2317,3.1749,3.1449,3.1449,3.162,3.1695,3.1695,3.2092,3.2317,3.2351,3.2453,3.2554,3.267,3.3063,3.3258,3.3335,3.3689,3.3881,3.3959,3.4023,3.4074,3.4099,3.4099,3.4099,3.4124,3.4293,3.4443,3.4577,3.4695,3.4906,3.5103,3.5138,3.5299,3.5457,0.0,0.0,0.0,0.0,0.0,0.0,0.0,0.0,0.0,0.0,0.0,0.0,0.0,0.0,4.0797,0.0,0.0,4.0797,4.0797,4.0713,4.0511,4.0146,3.9926,3.9735,3.9519,3.9658,3.9751,3.9751,4.0494,4.0996,4.0996,4.1367,4.1776,4.2184,4.1825,4.1961,4.2732,4.221,4.2081,4.2494,4.2369,4.2308,4.2308,4.2308,4.2308,4.2308,4.2308,4.2371,4.2514,4.2634,4.2883,4.3214,4.3495,4.3681,4.3795,4.3795,4.3795,4.3812,4.3958,4.4005,4.4005,0.0,0.0,0.0,0.0,0.0,0.0,0.0,0.0,0.0,0.0,3.352,3.3357,3.3129,3.2892,3.2666,0.0,3.27,3.2925,3.3099,3.2939,3.2749,3.2469,3.2074,3.186,3.186,3.186,3.186,3.186,3.2196,3.2419,3.2536,3.267,3.2784,3.291,3.3258,3.3422,3.3451,3.3823,3.3992,3.4036,3.4136,3.4185,3.4197,3.4197,3.4197,3.4233,3.4498,3.462,3.4695,3.4916,3.5162,3.5365,3.5372,3.5489,3.5637,3.5679,3.5648,0.0,0.0,0.0,0.0,0.0,0.0,0.0,0.0,0.0,4.0797,4.0797,4.0797,4.0797,4.0797,4.0797,4.079,4.0746,4.0607,4.0337,3.9917,3.9911,3.9882,3.9696,4.0108,4.0471,4.062,4.1349,4.1832,4.1832,4.198,4.2352,4.3002,4.2786,4.2916,4.3577,4.3087,4.2788,4.2788,4.2514,4.2412,4.2472,4.2412,4.2412,4.2472,4.2472,4.2593,4.2807,4.2846,4.305,4.3375,4.3597,4.3812,4.4005,4.4005,4.386,4.3695,4.3908,4.4005,4.4005,0.0,0.0,0.0,0.0,0.0,0.0,0.0,0.0,0.0,0.0,0.0,0.0,0.0,0.0,0.0,3.297,3.3006,3.3129,3.3502,3.325,3.305,3.3019,3.2634,3.2417,3.2417,3.247,3.2505,3.2505,3.2538,3.2719,3.3021,3.3099,3.3294,3.3601,3.3762,3.3829,3.3855,3.4141,3.4189,3.4111,3.4351,3.4351,3.4197,3.4197,3.4197,3.4245,3.4505,3.4705,3.4916,3.5166,3.5386,3.5589,3.5637,3.5673,3.5684,3.5704,0.0,3.5684,3.5704,3.6226,0.0,3.7845,3.8779,3.9694,0.0,0.0,4.0797,4.0797,4.0797,4.0797,4.0797,4.0797,4.0746,4.0566,4.0518,4.0323,3.9789,4.039,4.0715,4.0347,4.0355,4.0694,4.1386,4.2184,4.2667,4.2667,4.3336,4.3763,4.3856,4.3599,4.3522,4.3595,4.3303,4.3142,4.3142,4.2807,4.2788,4.3087,4.2806,4.2825,4.3087,4.3087,4.3105,4.316,4.3409,4.3664,4.3908,4.3939,4.3955,4.4005,4.4005,4.3989,4.3974,4.3989,4.4005,4.4005,0.0,0.0,0.0,0.0,0.0,0.0,0.0,0.0,0.0,0.0,0.0,0.0,0.0,0.0,3.3214,3.3441,3.3401,3.3444,3.3643,3.3502,3.3383,3.3383,3.3032,3.2842,3.2842,3.2878,3.2878,3.2878,3.3083,3.3265,3.3459,3.3469,3.3597,3.3815,3.3868,3.3921,3.3972,3.4111,3.4154,3.4111,3.4257,3.4281,3.4221,3.436,3.4428,3.4461,3.4695,3.4924,0.0,0.0,3.5552,3.5648,3.5684,3.5704,3.5704,3.5704,3.5704,0.0,3.6265,0.0,0.0,0.0,3.9617,4.0352,4.0719,4.0797,4.0797,4.0797,4.0797,4.0797,4.0797,4.0707,4.0607,0.0,4.0307,4.0215,4.0443,4.0628,4.1031,4.1708,4.1794,4.1924,4.2259,4.302,4.3503,4.3503,4.3819,4.4005,4.4005,4.3892,4.3828,4.3828,4.358,4.3426,4.3426,4.3142,4.3068,4.3214,4.3068,4.305,4.3214,4.3214,4.3286,4.3443,4.3714,4.3892,4.4005,4.4005,4.4005,4.402,4.4131,4.4177,4.4162,4.4036,4.4005,4.4005,0.0,0.0,0.0,0.0,0.0,0.0,0.0,0.0,0.0,0.0,0.0,0.0,0.0,0.0,3.3643,3.3726,3.3657,3.3675,3.3726,3.3684,3.3675,3.3675,3.3426,3.3291,3.3291,3.3202,3.3157,3.3157,3.3309,3.3455,3.3611,3.3611,3.3734,3.3934,3.3947,3.3985,3.4036,3.4173,3.4233,3.4245,3.4344,3.439,3.4413,3.4603,3.4725,3.4813,3.4969,3.5135,0.0,0.0,3.5668,3.5704,3.5704,3.5704,3.5704,3.5704,3.5858,3.6168,3.6748,0.0,0.0,3.9346,4.0158,4.0797,4.0797,4.0797,4.0797,4.0797,4.0797,4.0797,4.0797,4.0614,4.0473,4.0439,4.0101,4.0097,4.0849,4.094,4.1409,4.2645,4.3002,4.3132,4.3132,4.3652,4.4005,4.4005,4.4005,4.4005,4.4005,4.4005,4.4005,4.4005,4.3812,4.3714,4.3714,4.3443,4.3357,4.3427,4.3357,4.3357,4.3427,4.3427,4.3529,4.373,4.3926,4.4005,4.4005,4.4051,4.4082,4.4097,4.4281,4.4383,4.4393,4.424,4.4155,4.4082,0.0,0.0,0.0,0.0,0.0,0.0,0.0,0.0,0.0,0.0,0.0,0.0,0.0,0.0,3.3726,3.3793,3.3739,3.3726,3.3775,3.3807,3.3775,3.3775,3.3775,3.3793,3.3793,3.3451,3.3291,3.3291,3.2986,3.3014,3.3419,3.3419,3.3616,3.3998,3.4061,3.4099,3.4124,3.445,3.4572,3.4594,3.4811,3.487,3.4879,3.4889,3.5049,3.5281,3.5295,0.0,0.0,0.0,3.5704,3.5704,3.5704,3.5704,0.0,3.5704,3.6245,0.0,0.0,0.0,3.9462,3.9481,4.0158,4.0797,4.0797,4.0797,4.0797,4.0797,4.0797,4.0797,4.0797,4.0591,4.0378,4.0317,3.9974,3.9962,4.0704,4.1373,4.2025,4.272,4.3485,4.3968,0.0,4.3986,4.4005,4.4005,4.4005,4.4005,4.4005,4.4005,4.4005,4.4005,4.3989,4.3989,4.3989,4.373,4.373,4.3974,4.3714,4.373,4.3974,4.3974,4.3989,4.3989,4.4005,4.4005,4.402,4.4207,4.4285,4.43,4.4444,4.4568,4.4695,4.4676,4.4522,4.4296,0.0,0.0,0.0,0.0,0.0,0.0,0.0,0.0,0.0,0.0,0.0,0.0,0.0,0.0,0.0,0.0,3.378,3.378,3.3807,3.3807,3.3807,3.3807,3.3807,3.3807,3.3807,3.3694,3.3638,3.3638,3.3522,3.3536,3.368,3.3703,3.3823,3.3998,3.4074,3.4124,3.4173,3.4281,3.4439,3.4612,3.4668,3.4782,3.4916,3.5102,3.5212,3.5316,0.0,0.0,0.0,0.0,0.0,0.0,3.5704,0.0,0.0,3.6342,0.0,0.0,0.0,0.0,3.9636,4.0216,4.0584,4.0797,4.0797,4.0797,4.0797,4.0797,4.0797,4.0797,4.0797,4.0466,4.0192,4.0174,3.9893,4.0177,4.1537,4.1805,4.236,4.3699,4.3938,0.0,0.0,0.0,0.0,4.4005,4.4005,4.4005,4.4005,4.4005,4.4005,4.4005,4.4005,4.4005,4.4005,4.3908,4.3908,4.4005,4.3908,4.3908,4.4005,4.4005,4.4005,4.4005,4.4005,4.4085,4.4192,4.427,4.4407,4.457,4.4714,4.4868,4.503,4.503,4.4973,4.4879,0.0,0.0,0.0,0.0,0.0,0.0,0.0,0.0,0.0,0.0,0.0,0.0,0.0,0.0,0.0,0.0,0.0,3.3868,3.3868,3.3842,3.3847,3.3847,3.3802,3.3807,3.3807,3.3807,3.3807,3.3807,3.3807,3.3815,3.3868,3.3908,3.3985,3.4074,3.4124,3.4161,3.4209,3.4305,3.4487,3.4703,3.4802,3.4944,3.5165,3.5348,3.5425,0.0,3.5634,0.0,0.0,0.0,0.0,0.0,0.0,0.0,0.0,0.0,0.0,0.0,0.0,3.9501,4.01,4.0661,4.0797,4.0797,4.0797,4.0797,4.0797,4.0797,4.0797,4.0797,4.0797,4.0458,4.0261,4.052,4.0293,4.0628,4.2271,4.2331,4.2735,4.4096,4.4091,0.0,0.0,0.0,0.0,4.4005,4.4005,4.4005,4.4005,4.4005,4.4005,4.4005,4.4005,4.4005,4.4005,4.4005,4.4005,4.4005,4.4005,4.4005,4.4005,4.4005,4.4005,4.4005,4.4085,4.4203,4.4374,4.4472,4.4662,4.4884,4.503,4.5182,4.5352,4.5352,4.5371,4.5381,0.0,0.0,0.0,0.0,0.0,0.0,0.0,0.0,0.0,0.0,0.0,0.0,0.0,0.0,0.0,0.0,0.0,0.0,3.3998,3.3934,3.3895,3.3895,3.3842,3.382,3.382,3.382,3.382,3.382,3.382,3.3868,3.3998,3.3998,3.4074,3.4197,3.4209,3.4221,3.4245,3.4487,3.4733,3.4934,3.5125,3.5355,3.5604,3.5595,3.5634,3.5702,3.5709,0.0,0.0,0.0,0.0,0.0,0.0,0.0,0.0,0.0,0.0,3.9268,3.8489,3.9514,4.0797,4.0797,4.0797,4.0797,4.0797,4.0797,4.0797,4.0797,4.0797,4.0797,0.0,0.0,4.0524,4.1237,4.0976,4.1197,4.2712,4.2835,4.3066,0.0,0.0,0.0,0.0,0.0,0.0,4.4005,0.0,4.4005,4.4005,4.4005,4.4005,4.4005,4.4005,4.4005,4.4005,4.4005,4.4005,4.4005,4.4005,4.4005,4.402,4.402,4.4036,4.4051,4.4252,4.4416,4.4559,4.4812,4.5041,4.5232,4.5323,4.5426,4.5536,4.5497,4.5565,4.563,0.0,0.0,0.0,0.0,0.0,0.0,0.0,0.0,0.0,0.0,0.0,0.0,0.0,0.0,0.0,0.0,0.0,0.0,3.3957,3.3908,3.3921,3.3972,3.3959,3.3947,3.3947,3.3947,3.3947,3.3947,3.3947,3.3972,3.3998,3.4049,3.4099,3.4136,3.4393,3.4498,3.4516,3.4734,3.4971,3.5192,3.5258,3.5416,3.5595,3.5601,3.5635,3.5707,3.5691,0.0,0.0,0.0,0.0,0.0,0.0,3.5839,3.6071,0.0,0.0,3.8624,3.9056,3.9965,4.0797,4.0797,4.0797,4.0797,4.0797,4.0797,4.0797,4.0797,4.0797,4.0784,0.0,0.0,0.0,4.0562,4.0435,0.0,4.1745,4.2196,0.0,4.3522,0.0,4.4005,4.4005,4.4005,0.0,0.0,4.4005,4.4005,4.4005,4.4005,4.4005,4.4005,4.4005,4.4005,4.4005,4.4005,4.4005,4.4005,4.4005,4.4067,4.424,4.4283,4.4374,4.4538,4.4682,4.4856,4.503,4.5096,4.5264,4.5433,4.4816,4.4696,4.4783,4.4134,4.3909,4.3923,0.0,0.0,0.0,0.0,0.0,0.0,0.0,0.0,0.0,0.0,0.0,0.0,0.0,0.0,0.0,0.0,0.0,0.0,0.0,3.4194,3.3985,3.3998,3.3998,3.3998,3.3998,3.3998,3.3998,3.3998,3.3998,3.4023,3.4049,3.4209,3.4286,3.4325,3.462,3.4753,3.4784,3.4997,3.5157,0.0,0.0,3.5528,3.5643,3.5643,3.5693,3.5732,0.0,0.0,0.0,0.0,0.0,3.5704,3.5704,3.5936,3.6245,3.6342,0.0,3.8309,3.8798,3.9578,4.0313,4.07,4.0797,4.0797,4.0797,4.0797,4.0797,4.0797,4.0797,0.0,4.0707,0.0,0.0,0.0,0.0,0.0,4.1594,4.1945,4.2379,0.0,4.3359,0.0,4.3968,4.4005,4.4048,0.0,4.4064,4.4005,4.4005,4.4005,4.4005,4.4005,4.4005,4.4036,4.4131,4.4131,4.4185,4.4308,4.4308,4.4388,4.4546,4.4587,4.4688,4.4799,0.0,4.49,4.4719,4.4777,4.4722,4.4538,4.4056,4.3938,4.3982,4.3479,4.3305,4.3305,0.0,0.0,0.0,0.0,0.0,0.0,0.0,0.0,0.0,0.0,0.0,0.0,0.0,0.0,0.0,0.0,0.0,0.0,0.0,0.0,3.4074,3.4036,3.4023,3.4023,3.4023,3.4023,3.4023,3.4023,3.4023,3.4074,3.4148,3.4393,3.4542,3.4643,3.4832,3.498,3.5049,3.5247,3.5336,3.5372,3.5544,3.566,3.5709,0.0,0.0,0.0,0.0,0.0,0.0,0.0,3.5694,3.5704,3.5704,3.6187,3.6593,3.5897,3.6806,3.8019,3.8019,3.874,3.9675,4.0448,4.0719,4.0797,4.0797,4.0797,4.0797,4.0797,0.0,4.0784,4.0707,4.0654,4.0788,4.1308,0.0,4.1396,4.1686,4.1757,4.2002,4.2518,4.2694,4.3076,4.3763,4.3977,4.4151,4.4402,4.4236,4.4124,4.4109,4.4106,4.4106,4.4094,4.4094,4.4188,4.4354,4.4364,4.4495,4.4726,4.4726,4.4799,4.4935,4.4832,4.4797,4.4819,0.0,0.0,4.4002,4.4116,4.3824,4.3285,4.3169,4.3131,4.3111,4.3015,4.297,4.2976,0.0,0.0,0.0,0.0,0.0,0.0,0.0,0.0,0.0,0.0,0.0,0.0,0.0,0.0,0.0,0.0,0.0,0.0,0.0,0.0,0.0,3.4161,3.4173,3.4173,3.4173,0.0,0.0,0.0,0.0,3.4221,3.434,3.4404,3.4542,3.4773,3.4972,3.5133,3.5261,3.5464,3.5583,3.5637,3.567,3.5684,3.5695,0.0,0.0,0.0,0.0,0.0,3.5783,3.5725,3.5694,3.5704,3.5704,3.58,3.5878,3.5742,3.6381,3.7135,3.7135,3.8295,3.9539,3.9694,4.0274,4.0797,4.0797,4.0797,0.0,0.0,4.0797,4.0784,4.0707,4.0694,4.0705,4.0757,4.075,0.0,0.0,0.0,4.1279,0.0,0.0,0.0,0.0,0.0,0.0,0.0,0.0,0.0,4.4663,4.4714,4.4688,4.4572,4.4591,4.4604,4.463,4.4738,4.4827,4.4874,4.4874,4.4973,4.5142,4.4517,4.4298,4.4367,0.0,0.0,4.345,4.3457,4.3401,4.3227,4.2512,4.2222,4.2157,4.1546,4.1286,4.1235,0.0,0.0,0.0,0.0,0.0,0.0,0.0,0.0,0.0,0.0,0.0,0.0,0.0,0.0,0.0,0.0,0.0,0.0,0.0,0.0,0.0,0.0,0.0,0.0,0.0,0.0,0.0,0.0,0.0,0.0,0.0,0.0,0.0,0.0,0.0,0.0,0.0,0.0,3.5673,0.0,0.0,0.0,0.0,0.0,0.0,0.0,0.0,0.0,3.5843,3.5765,3.5729,3.5699,3.5706,3.5704,3.5704,3.5704,3.5974,3.6361,3.6787,3.7502,3.8359,3.9268,3.981,4.0236,4.07,0.0,0.0,0.0,4.0797,4.0784,4.0707,4.07,0.0,4.0614,4.0593,4.0557,0.0,0.0,0.0,0.0,0.0,0.0,0.0,0.0,0.0,0.0,0.0,0.0,4.4858,4.4881,4.487,4.4811,4.4811,4.4846,4.4973,4.5014,4.4904,4.4595,4.4595,4.447,4.4209,4.3847,4.3721,4.3762,0.0,0.0,4.2634,4.2658,4.2435,4.2014,4.1626,4.1471,4.1441,4.1077,4.0932,4.0902,0.0,0.0,0.0,0.0,0.0,0.0,0.0,0.0,0.0,0.0,0.0,0.0,0.0,0.0,0.0,0.0,0.0,0.0,0.0,0.0,0.0,0.0,0.0,0.0,0.0,0.0,0.0,0.0,0.0,0.0,0.0,0.0,0.0,0.0,0.0,0.0,0.0,0.0,0.0,0.0,0.0,0.0,0.0,0.0,0.0,0.0,0.0,0.0,0.0,0.0,3.5755,3.5693,3.5692,3.5704,3.5704,3.5704,3.5704,3.5839,3.6477,3.6767,3.7232,3.8611,3.9234,3.9658,4.0155,4.0566,0.0,0.0,4.0696,4.0808,4.0758,4.0726,4.0668,0.0,4.0614,4.0533,4.0383,0.0,0.0,0.0,0.0,0.0,0.0,0.0,0.0,0.0,0.0,0.0,4.5086,4.5063,4.5042,4.5063,4.4862,4.4847,4.5015,4.4853,4.4545,4.4087,4.4087,4.3827,4.3324,4.3131,4.3053,4.3057,0.0,0.0,0.0,4.1835,4.1498,4.0924,4.099,4.099,4.0994,4.1028,4.1003,4.0994,0.0,0.0,0.0,0.0,0.0,0.0,0.0,0.0,0.0,0.0,0.0,0.0,0.0,0.0,0.0,0.0,0.0,0.0,0.0,0.0,0.0,0.0,0.0,0.0,0.0,0.0,0.0,0.0,0.0,0.0,0.0,0.0,0.0,0.0,0.0,0.0,0.0,0.0,0.0,0.0,0.0,0.0,0.0,0.0,0.0,0.0,0.0,0.0,0.0,0.0,0.0,3.5701,3.5709,3.5704,3.5704,3.5704,0.0,0.0,3.5781,3.6342,3.6942,3.7096,3.8364,3.9403,3.8694,0.0,0.0,3.9954,4.0384,4.0893,4.0869,4.0781,4.0694,0.0,4.0628,4.0588,4.0574,4.0407,0.0,0.0,0.0,0.0,0.0,0.0,0.0,0.0,0.0,0.0,0.0,4.5601,4.553,4.5535,4.4776,4.4372,4.438,4.3786,4.3445,4.3381,4.3381,4.3389,4.3363,4.2572,4.2237,4.2256,0.0,0.0,0.0,4.1094,4.1059,4.0984,4.101,4.099,4.1019,4.107,4.1059,4.1,0.0,0.0,0.0,0.0,0.0,0.0,0.0,0.0,0.0,0.0,0.0,0.0,0.0,0.0,0.0,0.0,0.0,0.0,0.0,0.0,0.0,0.0,0.0,0.0,0.0,0.0,0.0,0.0,0.0,0.0,0.0,0.0,0.0,0.0,0.0,0.0,0.0,0.0,0.0,0.0,0.0,0.0,0.0,0.0,0.0,0.0,0.0,0.0,0.0,0.0,0.0,0.0,3.5707,3.5704,0.0,0.0,3.5704,3.5704,3.5704,3.5926,3.63,3.6828,3.754,3.8139,3.833,0.0,3.9484,3.9659,3.9951,4.0342,4.0871,4.0888,4.0826,4.0826,4.0757,4.0713,4.0713,4.0626,0.0,0.0,0.0,0.0,0.0,0.0,0.0,0.0,0.0,0.0,0.0,4.4247,4.4225,4.4221,4.3873,4.3715,4.3757,4.349,4.3119,4.2641,4.2641,4.2406,4.1934,4.1607,4.145,4.1458,0.0,0.0,0.0,4.1033,4.1064,4.1068,4.109,4.1116,4.1117,4.1146,4.1144,4.1119,0.0,0.0,0.0,0.0,0.0,0.0,0.0,0.0,0.0,0.0,0.0,0.0,0.0,0.0,0.0,0.0,0.0,0.0,0.0,0.0,0.0,0.0,0.0,0.0,0.0,0.0,0.0,0.0,0.0,0.0,0.0,0.0,0.0,0.0,0.0,0.0,0.0,0.0,0.0,0.0,0.0,0.0,0.0,0.0,0.0,0.0,0.0,0.0,0.0,0.0,0.0,0.0,3.5718,3.5704,3.5704,0.0,3.5704,3.5695,3.5707,3.5708,3.5857,3.6487,3.6901,3.7213,0.0,0.0,3.8558,3.8911,3.9173,3.9611,4.0471,4.0594,4.0637,4.0889,4.0893,4.0862,4.0862,4.0792,4.0757,0.0,0.0,0.0,0.0,0.0,0.0,0.0,0.0,0.0,0.0,4.2621,4.2836,4.3304,4.3108,4.3008,4.3038,4.2805,4.2412,4.1848,4.1848,4.1568,4.102,4.102,4.105,0.0,0.0,0.0,0.0,4.1114,4.1121,4.1122,4.1171,4.1191,4.1191,4.1191,4.1191,4.1191,0.0,0.0,0.0,0.0,0.0,0.0,0.0,0.0,0.0,0.0,0.0,0.0,0.0,0.0,0.0,0.0,0.0,0.0,0.0,0.0,0.0,0.0,0.0,0.0,0.0,0.0,0.0,0.0,0.0,0.0,0.0,0.0,0.0,0.0,0.0,0.0,0.0,0.0,0.0,0.0,0.0,0.0,0.0,0.0,0.0,0.0,0.0,0.0,0.0,0.0,0.0,0.0,0.0,3.5704,3.5704,3.5704,3.5704,3.5692,3.5691,3.5698,3.5718,3.5794,3.6512,3.6988,0.0,0.0,3.8359,3.75,3.7961,3.8783,3.9642,3.976,3.9991,4.0854,4.101,4.101,4.101,4.0945,0.0,0.0,0.0,0.0,0.0,0.0,0.0,0.0,0.0,0.0,0.0,0.0,4.1751,4.334,4.2638,4.2214,4.2218,4.1419,4.1029,4.101,4.101,4.1044,4.1108,4.1108,0.0,0.0,0.0,0.0,0.0,4.1191,4.1191,4.1191,4.1191,4.1191,4.1191,4.1191,4.1191,4.1191,0.0,0.0,0.0,0.0,0.0,0.0,0.0,0.0,0.0,0.0,0.0,0.0,0.0,0.0,0.0,0.0,0.0,0.0,0.0,0.0,0.0,0.0,0.0,0.0,0.0,0.0,0.0,0.0,0.0,0.0,0.0,0.0,0.0,0.0,0.0,0.0,0.0,0.0,0.0,0.0,0.0,0.0,0.0,0.0,0.0,0.0,0.0,0.0,0.0,0.0,0.0,0.0,0.0,0.0,0.0,3.5704,3.5698,0.0,3.5709,3.5775,3.5841,3.5855,3.6138,3.6306,3.6033,3.6406,3.6914,3.7226,3.7499,3.7946,3.8826,3.9414,3.9858,4.0131,4.0649,4.099,0.0,0.0,0.0,0.0,0.0,0.0,0.0,0.0,0.0,0.0,0.0,0.0,0.0,0.0,4.1281,4.1754,4.1503,4.1401,4.1441,4.1207,4.1083,4.1142,4.1142,4.1111,4.1091,4.1091,0.0,0.0,0.0,0.0,0.0,4.1066,4.1066,4.1064,4.1018,4.0996,4.0996,4.0944,4.0922,4.0922,0.0,0.0,0.0,0.0,0.0,0.0,0.0,0.0,0.0,0.0,0.0,0.0,0.0,0.0,0.0,0.0,0.0,0.0,0.0,0.0,0.0,0.0,0.0,0.0,0.0,0.0,0.0,0.0,0.0,0.0,0.0,0.0,0.0,0.0,0.0,0.0,0.0,0.0,0.0,0.0,0.0,0.0,0.0,0.0,0.0,0.0,0.0,0.0,0.0,0.0,0.0,0.0,0.0,0.0,0.0,0.0,3.5704,0.0,3.5737,3.5808,3.5864,3.5927,3.5975,0.0,0.0,3.5974,3.6126,3.6655,3.6748,3.7018,3.7904,3.8476,3.904,3.9737,4.0268,0.0,0.0,0.0,0.0,0.0,0.0,0.0,0.0,0.0,0.0,0.0,0.0,0.0,0.0,0.0,4.1089,4.1035,4.1062,4.1104,4.1142,4.111,4.1113,4.1168,4.1142,4.1109,4.1066,0.0,0.0,0.0,0.0,0.0,0.0,4.0935,4.0912,4.0912,4.0882,4.0859,4.0859,4.0824,4.0797,4.0797,0.0,0.0,0.0,0.0,0.0,0.0,0.0,0.0,0.0,0.0,0.0,0.0,0.0,0.0,0.0,0.0,0.0,0.0,0.0,0.0,0.0,0.0,0.0,0.0,0.0,0.0,0.0,0.0,3.4728,3.4819,0.0,0.0,0.0,0.0,0.0,0.0,0.0,0.0,0.0,0.0,0.0,0.0,0.0,0.0,0.0,0.0,0.0,0.0,0.0,0.0,0.0,0.0,0.0,0.0,0.0,0.0,0.0,0.0,0.0,0.0,0.0,0.0,0.0,0.0,0.0,3.5958,0.0,3.59,3.5848,3.6061,3.6948,3.7155,3.7737,3.9432,0.0,0.0,0.0,0.0,0.0,0.0,0.0,0.0,0.0,0.0,0.0,0.0,0.0,0.0,0.0,0.0,0.0,4.1085,4.1147,4.1191,4.1191,4.1119,4.1085,4.1085,4.102,4.0987,4.0984,0.0,0.0,0.0,0.0,0.0,0.0,4.0809,4.0781,4.0781,4.0753,4.0768,4.0768,4.074,4.0736,4.0722,0.0,0.0,0.0,0.0,0.0,0.0,0.0,0.0,0.0,0.0,0.0,0.0,0.0,0.0,0.0,0.0,0.0,0.0,0.0,0.0,0.0,0.0,0.0,0.0,0.0,0.0,0.0,3.4758,3.484,3.4992,3.5171,3.5152,0.0,0.0,0.0,0.0,0.0,0.0,0.0,0.0,0.0,0.0,0.0,0.0,0.0,0.0,3.5704,0.0,0.0,0.0,0.0,0.0,0.0,0.0,0.0,0.0,3.5706,0.0,0.0,0.0,0.0,0.0,0.0,0.0,0.0,3.5955,3.5908,3.589,3.5841,3.5872,3.6081,3.6662,3.7262,3.7685,0.0,0.0,0.0,0.0,0.0,0.0,0.0,0.0,0.0,0.0,0.0,0.0,0.0,0.0,0.0,0.0,0.0,4.1014,4.1047,4.1054,4.1054,4.1022,4.1014,4.1014,4.0968,4.0906,4.0858,0.0,0.0,0.0,0.0,0.0,4.0661,4.0655,4.0649,4.0636,4.0414,4.0335,4.0311,4.0105,4.0042,4.0042,0.0,0.0,0.0,0.0,0.0,0.0,0.0,0.0,0.0,0.0,0.0,0.0,0.0,0.0,0.0,0.0,0.0,0.0,0.0,0.0,0.0,0.0,0.0,0.0,0.0,0.0,0.0,0.0,0.0,3.4982,0.0,0.0,0.0,0.0,0.0,0.0,0.0,0.0,0.0,0.0,0.0,0.0,0.0,0.0,0.0,0.0,3.5704,3.5704,0.0,3.5704,3.5704,3.5704,0.0,0.0,0.0,0.0,3.5704,0.0,0.0,0.0,0.0,3.593,3.5976,3.5991,3.5956,3.5877,3.5807,3.5772,3.5737,3.572,3.5749,3.6137,3.6609,0.0,0.0,0.0,0.0,0.0,0.0,0.0,0.0,0.0,0.0,0.0,0.0,0.0,0.0,0.0,0.0,0.0,4.0941,0.0,4.0891,4.0909,4.099,4.0979,4.0937,4.0906,4.083,4.077,4.0711,0.0,0.0,0.0,0.0,0.0,4.0598,4.0564,4.05,4.0394,4.0248,4.012,4.0004,3.9861,3.9808,3.9808,0.0,0.0,0.0,0.0,0.0,0.0,0.0,0.0,0.0,0.0,0.0,0.0,0.0,0.0,0.0,0.0,0.0,0.0,0.0,0.0,0.0,0.0,0.0,0.0,0.0,0.0,0.0,0.0,0.0,0.0,0.0,0.0,0.0,0.0,0.0,0.0,0.0,0.0,0.0,0.0,0.0,0.0,0.0,0.0,0.0,0.0,0.0,0.0,0.0,3.5704,3.5704,3.5704,3.5704,0.0,0.0,0.0,0.0,0.0,0.0,3.5757,3.5836,3.593,3.5976,3.5986,3.5923,3.5811,3.5685,3.5611,3.5602,3.562,3.5674,3.5684,0.0,0.0,0.0,0.0,0.0,0.0,0.0,0.0,0.0,0.0,0.0,0.0,0.0,0.0,0.0,0.0,0.0,0.0,0.0,4.0743,4.0649,4.0655,4.0831,4.0825,4.0773,4.0726,4.0629,4.0557,4.0488,4.0488,0.0,0.0,0.0,0.0,4.0465,4.0414,4.0285,4.0139,4.0101,3.9943,3.9742,3.9709,3.9698,3.9687,0.0,0.0,0.0,0.0,0.0,0.0,0.0,0.0,0.0,0.0,0.0,0.0,0.0,0.0,0.0,0.0,0.0,0.0,0.0,0.0,0.0,0.0,0.0,0.0,0.0,0.0,0.0,0.0,0.0,0.0,3.5253,3.5254,3.5371,0.0,0.0,0.0,0.0,0.0,0.0,0.0,0.0,0.0,0.0,0.0,0.0,0.0,0.0,0.0,0.0,3.5704,3.5704,3.5704,3.5704,0.0,0.0,0.0,0.0,0.0,3.5768,3.5788,3.5792,3.5828,3.5912,3.5986,3.5923,3.5811,3.5681,3.5611,3.5604,3.5604,3.5608,3.5654,3.5725,0.0,0.0,0.0,0.0,0.0,0.0,0.0,0.0,0.0,0.0,0.0,0.0,0.0,0.0,0.0,0.0,0.0,0.0,4.0061,4.0034,4.0034,4.0059,4.0285,4.038,4.0372,4.0148,4.0013,4.0013,3.9954,3.9915,0.0,0.0,3.9913,3.9913,3.9913,3.9882,3.984,3.9679,3.958,3.952,3.9292,3.9219,3.916,0.0,0.0,0.0,0.0,0.0,0.0,0.0,0.0,0.0,0.0,0.0,0.0,0.0,0.0,0.0,0.0,0.0,0.0,0.0,0.0,0.0,0.0,0.0,0.0,0.0,0.0,0.0,0.0,0.0,3.5092,3.5248,3.5323,3.535,3.5397,0.0,0.0,0.0,0.0,0.0,0.0,0.0,0.0,0.0,0.0,0.0,0.0,0.0,0.0,0.0,0.0,3.5693,3.5718,3.5742,0.0,0.0,0.0,0.0,0.0,3.5794,3.583,3.5847,3.585,3.5936,3.5957,3.5816,3.5733,3.5687,3.5607,3.5608,3.5604,3.5602,0.0,3.5788,3.6182,0.0,0.0,0.0,0.0,0.0,0.0,0.0,0.0,0.0,0.0,0.0,0.0,0.0,0.0,0.0,0.0,0.0,0.0,3.9896,3.9905,3.9905,3.9872,3.9943,4.0082,3.9963,3.988,3.984,3.9808,3.9808,3.9808,0.0,3.9808,3.9808,3.9808,3.975,3.9632,3.9532,3.9287,3.899,3.867,3.8551,3.8535,0.0,0.0,0.0,0.0,0.0,0.0,0.0,0.0,0.0,0.0,0.0,0.0,0.0,0.0,0.0,0.0,0.0,0.0,0.0,0.0,0.0,0.0,0.0,0.0,0.0,0.0,0.0,3.5127,3.5101,3.5138,3.5208,3.5308,3.5296,0.0,0.0,0.0,0.0,0.0,0.0,0.0,0.0,0.0,0.0,0.0,0.0,0.0,0.0,0.0,0.0,0.0,0.0,0.0,0.0,0.0,0.0,3.5795,3.5795,3.5795,3.5813,3.5843,3.5878,3.5897,3.5955,3.5953,3.5751,3.5706,3.5687,3.5589,3.5585,3.5578,0.0,3.5602,0.0,0.0,0.0,0.0,0.0,0.0,0.0,0.0,0.0,0.0,0.0,0.0,0.0,0.0,0.0,0.0,0.0,0.0,0.0,0.0,3.9701,3.9717,3.9717,3.9501,3.9537,3.9813,3.9739,3.9694,3.963,3.963,3.9587,3.951,3.951,3.9474,3.9395,3.9395,3.932,3.9163,3.9163,3.8886,3.8439,3.8183,3.8101,3.8085,0.0,0.0,0.0,0.0,0.0,0.0,0.0,0.0,0.0,0.0,0.0,0.0,0.0,0.0,0.0,0.0,0.0,0.0,0.0,0.0,0.0,0.0,0.0,0.0,0.0,3.5138,3.5136,3.5193,3.5136,3.5138,3.52,3.522,3.5218,0.0,0.0,0.0,0.0,0.0,0.0,0.0,0.0,0.0,0.0,0.0,0.0,0.0,0.0,0.0,0.0,0.0,0.0,0.0,0.0,0.0,3.5795,3.5795,3.5795,3.5807,3.5877,3.5847,3.582,3.5871,3.5942,3.5946,3.5756,3.5694,3.5666,3.5526,3.5515,0.0,0.0,3.5602,0.0,0.0,0.0,0.0,0.0,0.0,0.0,0.0,0.0,0.0,0.0,0.0,0.0,0.0,0.0,0.0,0.0,0.0,0.0,0.0,0.0,3.9151,3.9151,3.9142,3.9272,3.952,3.9285,3.9151,3.9151,3.9151,3.898,3.8681,3.8681,3.8499,3.8214,3.8214,3.8198,3.82,3.82,3.8167,3.8135,3.8101,3.8101,3.8051,0.0,0.0,0.0,0.0,0.0,0.0,0.0,0.0,0.0,0.0,0.0,0.0,0.0,0.0,0.0,0.0,0.0,0.0,0.0,0.0,0.0,0.0,0.0,3.5201,3.5204,3.5187,3.5176,3.5209,3.5176,3.5187,3.5204,3.5201,0.0,0.0,0.0,0.0,0.0,0.0,0.0,0.0,0.0,0.0,0.0,0.0,0.0,0.0,0.0,0.0,0.0,0.0,3.5815,3.5823,3.584,3.5853,3.5853,3.5853,3.5852,3.5887,3.5935,3.5934,3.5937,3.5961,3.5957,3.59,3.5682,3.563,3.5616,3.5571,3.5522,0.0,0.0,0.0,0.0,0.0,0.0,0.0,0.0,0.0,0.0,0.0,0.0,0.0,0.0,0.0,0.0,0.0,0.0,0.0,0.0,0.0,0.0,0.0,0.0,3.8998,3.8792,3.8792,3.8748,3.8636,3.8956,3.9101,3.9101,3.888,3.8718,3.8579,3.8378,3.8216,3.8101,3.8101,3.8101,3.8085,3.7826,3.7614,3.7396,3.7188,3.6958,3.6709,0.0,0.0,0.0,0.0,0.0,0.0,0.0,0.0,0.0,0.0,0.0,0.0,0.0,0.0,0.0,0.0,0.0,0.0,0.0,0.0,0.0,0.0,0.0,3.5157,3.5107,3.5107,3.5132,3.5209,3.5193,3.5204,3.5204,0.0,0.0,0.0,0.0,0.0,0.0,0.0,0.0,0.0,0.0,0.0,0.0,0.0,0.0,0.0,0.0,0.0,0.0,0.0,3.5901,3.5908,3.59,3.5908,3.5892,3.5904,3.5906,3.591,3.5972,3.5976,3.593,3.5946,3.5873,3.5752,3.5611,3.557,3.559,3.5572,3.5541,3.5554,3.5584,0.0,0.0,0.0,0.0,0.0,0.0,0.0,0.0,0.0,0.0,0.0,0.0,0.0,0.0,0.0,0.0,0.0,0.0,0.0,0.0,0.0,0.0,0.0,3.7723,3.7723,3.7598,3.7375,3.783,3.8313,3.8781,3.8551,3.8376,3.8245,3.7998,3.7844,3.7756,3.7756,3.7756,3.7703,3.7321,3.7036,3.6801,3.6451,3.6135,3.5907,0.0,0.0,0.0,0.0,0.0,0.0,0.0,0.0,0.0,0.0,0.0,0.0,0.0,0.0,0.0,0.0,0.0,0.0,0.0,0.0,0.0,0.0,0.0,3.5107,3.4917,3.4889,3.5001,3.5201,3.5206,3.52,3.52,0.0,0.0,0.0,0.0,0.0,0.0,0.0,0.0,0.0,0.0,0.0,0.0,0.0,0.0,0.0,0.0,0.0,0.0,0.0,3.5901,3.5908,3.59,3.5892,3.5899,3.5894,3.5903,3.5914,3.5976,3.5906,3.5808,3.5804,3.5706,3.5579,3.5521,3.5552,3.5581,3.5509,3.5547,3.561,3.5601,0.0,0.0,0.0,0.0,0.0,0.0,0.0,0.0,0.0,0.0,0.0,0.0,0.0,0.0,0.0,0.0,0.0,0.0,0.0,0.0,0.0,0.0,0.0,3.581,3.5776,3.5794,3.5794,3.5794,3.6594,3.8083,3.8083,3.7843,3.7487,3.747,3.7283,3.6989,3.6972,3.6972,3.6933,3.6591,3.6468,3.6426,3.6037,3.5851,3.5851,0.0,0.0,0.0,0.0,0.0,0.0,0.0,0.0,0.0,0.0,0.0,0.0,0.0,0.0,0.0,0.0,0.0,0.0,0.0,0.0,0.0,0.0,0.0,0.0,0.0,0.0,3.5072,3.4992,3.5134,3.5196,0.0,0.0,0.0,3.502,0.0,0.0,0.0,0.0,0.0,0.0,0.0,0.0,0.0,0.0,0.0,0.0,0.0,0.0,0.0,0.0,0.0,0.0,3.5906,3.5924,3.5942,3.5858,3.5839,3.5832,3.5843,3.5795,3.5749,3.5858,3.5733,3.5581,3.5568,3.5585,3.5595,3.5579,3.5616,3.5656,3.5606,0.0,0.0,0.0,0.0,0.0,0.0,0.0,0.0,0.0,0.0,0.0,0.0,0.0,0.0,0.0,0.0,0.0,0.0,0.0,0.0,0.0,0.0,0.0,3.5388,3.5388,3.5254,3.5031,3.5031,3.5539,3.6467,3.6188,3.5985,3.5864,3.5633,3.5467,3.5372,3.513,3.5033,3.5014,3.4694,3.4428,3.4105,3.3666,3.335,3.3093,0.0,0.0,0.0,0.0,0.0,0.0,0.0,0.0,0.0,0.0,0.0,0.0,0.0,0.0,0.0,0.0,0.0,0.0,0.0,0.0,0.0,0.0,0.0,0.0,0.0,3.5081,3.5028,0.0,0.0,0.0,0.0,0.0,0.0,3.4955,0.0,0.0,0.0,0.0,0.0,0.0,0.0,0.0,0.0,0.0,0.0,0.0,0.0,0.0,0.0,0.0,0.0,0.0,3.5868,3.5896,3.5898,3.5782,3.5758,3.5756,3.576,3.5723,3.5706,3.5776,3.5687,3.5609,3.5607,3.5589,0.0,0.0,3.5626,3.5668,0.0,0.0,0.0,0.0,0.0,0.0,0.0,0.0,0.0,0.0,0.0,0.0,0.0,0.0,0.0,0.0,0.0,0.0,0.0,0.0,0.0,0.0,0.0,0.0,3.409,3.409,3.3987,3.3775,3.3775,3.4022,3.446,3.4833,3.4925,3.4782,3.4485,3.4332,3.4332,3.4123,3.4044,3.4005,3.3464,3.3148,3.2834,3.2213,3.1859,3.1646,0.0,0.0,0.0,0.0,0.0,0.0,0.0,0.0,0.0,0.0,0.0,0.0,0.0,0.0,0.0,0.0,0.0,0.0,0.0,0.0,0.0,0.0,0.0,0.0,0.0,0.0,0.0,0.0,0.0,0.0,0.0,0.0,3.4491,3.4879,0.0,3.4623,0.0,0.0,0.0,0.0,0.0,0.0,0.0,0.0,0.0,0.0,0.0,0.0,0.0,0.0,0.0,0.0,3.5819,3.5792,3.5782,3.5708,3.5694,3.5664,3.5585,3.5622,3.5654,3.5512,3.5544,3.5585,3.561,3.556,3.5534,3.5595,0.0,0.0,0.0,0.0,0.0,0.0,0.0,0.0,0.0,0.0,0.0,0.0,0.0,0.0,0.0,0.0,0.0,0.0,0.0,0.0,0.0,0.0,0.0,0.0,0.0,0.0,3.2388,3.2406,3.2406,0.0,3.2406,3.2371,3.2406,3.3809,3.4274,3.3937,3.3696,3.3593,3.3593,3.3553,3.3512,3.3393,3.2568,3.2242,3.2091,3.1246,3.0939,3.0898,0.0,0.0,0.0,0.0,0.0,0.0,0.0,0.0,0.0,0.0,0.0,0.0,0.0,0.0,0.0,0.0,0.0,0.0,0.0,0.0,0.0,0.0,0.0,0.0,0.0,0.0,0.0,0.0,0.0,0.0,0.0,0.0,0.0,3.4908,0.0,3.4751,0.0,0.0,0.0,0.0,0.0,0.0,0.0,0.0,0.0,0.0,0.0,0.0,0.0,0.0,0.0,0.0,3.5797,3.5753,3.5709,3.5645,3.5611,3.5471,3.4797,3.5052,3.5399,3.474,3.5054,3.5547,3.5598,3.559,3.5595,3.5648,3.5679,0.0,0.0,0.0,0.0,0.0,0.0,0.0,0.0,0.0,0.0,0.0,0.0,0.0,0.0,0.0,0.0,0.0,0.0,0.0,0.0,0.0,0.0,0.0,0.0,3.2474,3.2406,3.2406,3.2406,0.0,3.2406,3.2249,3.2019,3.235,3.2341,3.2078,3.2019,3.2,3.198,3.1707,3.1388,3.1004,3.056,3.0164,2.9756,2.9154,2.8857,2.8725,0.0,0.0,0.0,0.0,0.0,0.0,0.0,0.0,0.0,0.0,0.0,0.0,0.0,0.0,0.0,0.0,0.0,0.0,0.0,0.0,0.0,0.0,0.0,0.0,0.0,0.0,0.0,0.0,0.0,0.0,0.0,0.0,0.0,3.4936,0.0,3.4699,0.0,0.0,0.0,0.0,0.0,0.0,0.0,0.0,0.0,0.0,0.0,0.0,0.0,0.0,0.0,0.0,0.0,0.0,3.565,3.557,3.527,3.4826,3.4382,3.4256,3.425,3.4248,3.4879,3.5515,3.5572,3.5602,3.5612,3.5679,0.0,0.0,0.0,0.0,0.0,0.0,0.0,0.0,0.0,0.0,0.0,0.0,0.0,0.0,0.0,0.0,0.0,0.0,0.0,0.0,0.0,0.0,0.0,0.0,3.2473,3.2406,3.2406,3.2406,3.2319,3.2161,3.2161,3.1929,3.1468,3.1468,3.1389,3.1252,3.1098,3.0902,3.0683,3.0514,3.014,2.9689,2.9248,2.8927,2.8662,2.8149,2.787,2.7735,0.0,0.0,0.0,0.0,0.0,0.0,0.0,0.0,0.0,0.0,0.0,0.0,0.0,0.0,0.0,0.0,0.0,0.0,0.0,0.0,0.0,0.0,0.0,0.0,0.0,0.0,0.0,0.0,0.0,0.0,0.0,0.0,0.0,3.4992,0.0,0.0,0.0,0.0,0.0,0.0,0.0,0.0,0.0,0.0,0.0,0.0,0.0,0.0,3.5784,3.5794,0.0,0.0,0.0,0.0,3.552,3.5415,3.4777,3.4074,3.3939,3.3281,3.2878,3.3896,3.4699,3.529,3.547,3.5515,3.5534,3.5577,0.0,0.0,0.0,0.0,0.0,0.0,0.0,0.0,0.0,0.0,0.0,0.0,0.0,0.0,0.0,0.0,0.0,0.0,0.0,0.0,0.0,0.0,3.2406,3.2406,3.2406,3.2371,3.2319,3.2319,3.2144,3.1821,3.1766,3.1468,3.0995,3.0855,3.0855,3.0895,3.0531,3.0156,2.9793,2.9705,2.9393,2.8912,2.8456,2.8231,2.81,2.771,2.7397,2.7181,0.0,0.0,0.0,0.0,0.0,0.0,0.0,0.0,0.0,0.0,0.0,0.0,0.0,0.0,0.0,0.0,0.0,0.0,0.0,0.0,0.0,0.0,0.0,0.0,0.0,0.0,0.0,0.0,0.0,0.0,0.0,0.0,0.0,3.5001,0.0,0.0,0.0,0.0,0.0,0.0,0.0,0.0,0.0,0.0,0.0,0.0,0.0,0.0,0.0,3.5785,3.572,0.0,0.0,0.0,0.0,3.5027,3.4365,3.3538,3.2826,3.2141,3.1986,3.3547,3.4059,3.435,0.0,0.0,3.517,0.0,0.0,0.0,0.0,0.0,0.0,0.0,0.0,0.0,0.0,0.0,0.0,0.0,0.0,0.0,0.0,0.0,0.0,0.0,0.0,0.0,0.0,3.2406,3.2406,3.2406,3.2406,3.2249,3.1966,3.1966,3.1839,3.1542,3.1254,3.1075,3.0975,3.0284,3.0177,3.0531,3.0092,2.9875,2.9788,2.9348,2.8873,2.84,2.8328,2.7978,2.7514,2.7437,2.6945,2.6256,0.0,0.0,0.0,0.0,0.0,0.0,0.0,0.0,0.0,0.0,0.0,0.0,0.0,0.0,0.0,0.0,0.0,0.0,0.0,0.0,0.0,0.0,0.0,0.0,0.0,0.0,0.0,0.0,0.0,0.0,0.0,3.5216,3.5147,0.0,0.0,0.0,0.0,0.0,0.0,0.0,0.0,0.0,0.0,0.0,0.0,0.0,0.0,0.0,0.0,0.0,0.0,0.0,0.0,0.0,0.0,0.0,3.359,3.2662,3.1354,3.1108,3.142,3.2162,3.3078,3.3912,3.4262,3.4706,3.5054,0.0,0.0,0.0,0.0,0.0,0.0,0.0,0.0,0.0,0.0,0.0,0.0,0.0,0.0,0.0,0.0,0.0,0.0,0.0,0.0,0.0,3.2423,3.2406,3.2406,3.2406,3.2406,3.2232,3.1894,3.1894,3.1656,3.1232,3.0895,3.0572,3.0326,2.9946,2.9919,3.007,2.9617,2.9241,2.895,2.8732,2.8367,2.7894,2.782,2.7433,2.6893,2.6814,2.6283,2.5591,0.0,0.0,0.0,0.0,0.0,0.0,0.0,0.0,0.0,0.0,0.0,0.0,0.0,0.0,0.0,0.0,0.0,0.0,0.0,0.0,0.0,0.0,0.0,0.0,0.0,0.0,0.0,0.0,0.0,0.0,3.5451,3.5406,3.535,0.0,3.5258,0.0,0.0,0.0,0.0,0.0,0.0,0.0,0.0,0.0,0.0,0.0,0.0,0.0,0.0,0.0,0.0,0.0,0.0,0.0,0.0,0.0,0.0,3.1628,3.0208,3.0272,3.0791,3.0982,3.2037,3.3124,0.0,0.0,0.0,0.0,0.0,0.0,0.0,0.0,0.0,0.0,0.0,0.0,0.0,0.0,0.0,0.0,0.0,0.0,0.0,0.0,0.0,0.0,0.0,0.0,3.2406,3.2406,3.2406,3.2406,3.2319,3.2108,3.1785,3.1581,3.1237,3.0794,3.0468,3.0092,2.9639,2.9528,2.94,2.9309,2.8966,2.8591,2.8192,2.8061,2.782,2.7473,2.7218,2.6814,2.6363,2.6122,2.5536,2.4922,0.0,0.0,0.0,0.0,0.0,0.0,0.0,0.0,0.0,0.0,0.0,0.0,0.0,0.0,0.0,0.0,0.0,0.0,0.0,0.0,0.0,0.0,0.0,0.0,0.0,0.0,0.0,0.0,0.0,0.0,3.5596,3.5596,3.5571,3.5566,3.5449,3.5347,3.5308,0.0,0.0,0.0,0.0,0.0,0.0,0.0,0.0,0.0,0.0,0.0,0.0,0.0,0.0,0.0,0.0,0.0,0.0,0.0,0.0,0.0,2.9814,2.97,2.9934,3.064,3.0988,3.1506,0.0,0.0,0.0,0.0,0.0,0.0,0.0,0.0,0.0,0.0,0.0,0.0,0.0,0.0,0.0,0.0,0.0,0.0,0.0,0.0,0.0,0.0,0.0,0.0,3.2406,3.2406,3.2406,3.2406,3.209,3.1802,3.1523,3.0695,3.0274,3.0231,2.9962,2.9623,2.9219,2.8772,2.8352,2.7997,2.811,2.8061,2.7889,2.7433,2.7244,2.7167,2.659,2.6256,2.6041,2.5481,2.4794,2.4147,0.0,0.0,0.0,0.0,0.0,0.0,0.0,0.0,0.0,0.0,0.0,0.0,0.0,0.0,0.0,0.0,0.0,0.0,0.0,0.0,0.0,0.0,0.0,0.0,0.0,0.0,0.0,0.0,0.0,3.5568,3.5669,3.5669,3.5706,3.5795,3.565,3.5566,3.5508,3.5554,0.0,0.0,0.0,0.0,0.0,0.0,0.0,0.0,0.0,0.0,0.0,0.0,0.0,0.0,0.0,0.0,0.0,0.0,0.0,2.9789,2.9544,2.9423,2.9458,2.9808,3.0255,3.0793,3.1443,0.0,0.0,0.0,0.0,0.0,0.0,0.0,0.0,0.0,0.0,0.0,0.0,0.0,0.0,0.0,0.0,0.0,0.0,0.0,0.0,0.0,0.0,0.0,3.2406,3.2406,3.2301,3.209,3.1966,3.1582,3.0925,3.0267,2.981,2.955,2.9445,2.9042,2.836,2.8192,2.783,2.7321,2.7372,2.7423,2.7433,2.7269,2.6985,2.659,2.6283,2.5673,2.4894,2.4595,2.406,2.3454,0.0,0.0,0.0,0.0,0.0,0.0,0.0,0.0,0.0,0.0,0.0,0.0,0.0,0.0,0.0,0.0,0.0,0.0,0.0,0.0,0.0,0.0,0.0,0.0,0.0,0.0,0.0,0.0,0.0,0.0,0.0,3.5779,3.5813,3.5895,3.5811,3.5722,0.0,0.0,0.0,3.5701,0.0,0.0,3.5794,0.0,0.0,0.0,0.0,0.0,0.0,0.0,0.0,0.0,0.0,0.0,0.0,0.0,0.0,0.0,2.9272,0.0,2.9,0.0,2.9518,3.0032,3.0463,0.0,0.0,0.0,0.0,0.0,0.0,0.0,0.0,0.0,0.0,0.0,0.0,0.0,0.0,0.0,0.0,0.0,0.0,0.0,0.0,0.0,0.0,0.0,3.2232,3.2232,3.2037,3.16,3.1507,3.1145,3.0477,2.9837,2.9371,2.9081,2.8857,2.8408,2.773,2.773,2.7433,2.6925,2.6925,2.6858,2.675,2.675,2.6404,2.5837,2.5536,2.4922,2.4176,2.3839,2.3424,2.3055,0.0,0.0,0.0,0.0,0.0,0.0,0.0,0.0,0.0,0.0,0.0,0.0,0.0,0.0,0.0,0.0,0.0,0.0,0.0,0.0,0.0,0.0,0.0,0.0,0.0,0.0,0.0,0.0,0.0,0.0,0.0,0.0,3.5908,3.5908,3.5898,3.5823,3.5713,0.0,3.5698,3.5711,0.0,3.5808,3.5791,0.0,0.0,0.0,3.5679,3.5607,0.0,0.0,0.0,0.0,0.0,0.0,0.0,0.0,0.0,0.0,0.0,0.0,0.0,0.0,0.0,0.0,0.0,0.0,0.0,0.0,0.0,0.0,0.0,0.0,0.0,0.0,0.0,0.0,0.0,0.0,0.0,0.0,0.0,0.0,0.0,0.0,0.0,0.0,0.0,3.2249,3.1912,3.1876,3.1581,3.0995,3.0703,3.0435,3.0167,2.9319,2.8881,2.8834,2.8207,2.772,2.7376,2.7376,2.717,2.6806,2.6806,2.6447,2.5893,2.5893,2.5536,2.4894,2.4321,2.4073,2.3985,2.3168,2.2891,2.2978,0.0,0.0,0.0,0.0,0.0,0.0,0.0,0.0,0.0,0.0,0.0,0.0,0.0,0.0,0.0,0.0,0.0,0.0,0.0,0.0,0.0,0.0,0.0,0.0,0.0,0.0,0.0,0.0,0.0,0.0,0.0,0.0,0.0,0.0,3.5892,3.5883,3.5843,3.5739,0.0,0.0,3.5777,3.5838,0.0,0.0,0.0,0.0,0.0,3.5546,0.0,0.0,3.4209,3.3686,0.0,0.0,0.0,0.0,0.0,0.0,2.8694,0.0,0.0,0.0,0.0,0.0,0.0,0.0,0.0,0.0,0.0,0.0,0.0,0.0,0.0,0.0,0.0,0.0,0.0,0.0,0.0,0.0,0.0,0.0,0.0,0.0,0.0,0.0,3.2179,3.2002,3.1894,3.13,3.0808,3.0497,3.0054,2.9633,2.925,2.8818,2.8334,2.78,2.7625,2.7335,2.6963,2.6963,2.691,2.6806,2.6806,2.6447,2.5893,2.5893,2.5286,2.4321,2.4018,2.3619,2.3198,2.2878,2.2985,2.3343,0.0,0.0,0.0,0.0,0.0,0.0,0.0,0.0,0.0,0.0,0.0,0.0,0.0,0.0,0.0,0.0,0.0,0.0,0.0,0.0,0.0,0.0,0.0,0.0,0.0,0.0,0.0,0.0,0.0,0.0,0.0,0.0,0.0,0.0,0.0,0.0,0.0,0.0,0.0,0.0,3.5812,0.0,0.0,3.5831,3.5794,0.0,0.0,0.0,3.4635,3.4136,3.3301,0.0,0.0,0.0,0.0,0.0,0.0,0.0,0.0,0.0,0.0,0.0,0.0,0.0,0.0,2.8902,0.0,0.0,0.0,0.0,0.0,0.0,0.0,0.0,0.0,0.0,0.0,0.0,0.0,0.0,0.0,0.0,0.0,0.0,0.0,0.0,3.193,3.162,3.1261,3.0608,3.0208,3.0097,2.97,2.9312,2.8904,2.8463,2.7968,2.7401,2.7222,2.7015,2.6806,2.6806,2.6806,2.6779,2.6659,2.6136,2.5384,2.5286,2.4751,2.3943,2.356,2.3185,2.28,2.2635,2.2929,2.3386,0.0,0.0,0.0,0.0,0.0,0.0,0.0,0.0,0.0,0.0,0.0,0.0,0.0,0.0,0.0,0.0,0.0,0.0,0.0,0.0,0.0,0.0,0.0,0.0,0.0,0.0,0.0,0.0,0.0,0.0,0.0,0.0,0.0,0.0,0.0,0.0,0.0,0.0,0.0,3.5788,3.5851,3.5859,0.0,0.0,3.5645,0.0,3.5412,3.4717,3.3818,3.3614,3.2291,0.0,0.0,0.0,0.0,0.0,2.8504,0.0,0.0,0.0,0.0,0.0,0.0,0.0,2.8384,2.8688,2.898,0.0,0.0,0.0,0.0,0.0,0.0,0.0,0.0,0.0,0.0,0.0,0.0,0.0,0.0,0.0,0.0,0.0,3.2179,3.1876,3.1601,3.1089,3.0267,2.9924,2.9766,2.9705,2.9499,2.9198,2.8787,2.8158,2.767,2.7325,2.6963,2.6806,2.6806,2.6753,2.6727,2.6633,2.6324,2.5605,2.4656,2.4366,2.4018,2.3636,2.3078,2.2769,2.2659,2.2524,2.2814,2.3329,0.0,0.0,0.0,0.0,0.0,0.0,0.0,0.0,0.0,0.0,0.0,0.0,0.0,0.0,0.0,0.0,0.0,0.0,0.0,0.0,0.0,0.0,0.0,0.0,0.0,0.0,0.0,0.0,0.0,0.0,0.0,0.0,0.0,0.0,0.0,0.0,0.0,0.0,0.0,3.5734,3.5789,0.0,3.5797,3.5674,3.5609,3.5505,3.4738,3.4106,3.34,0.0,3.0619,2.9814,0.0,0.0,0.0,0.0,0.0,0.0,0.0,0.0,0.0,0.0,0.0,0.0,2.8129,2.8237,2.8355,0.0,0.0,0.0,0.0,0.0,0.0,0.0,0.0,0.0,0.0,0.0,0.0,0.0,0.0,0.0,0.0,0.0,3.1565,3.1509,3.0911,3.0293,2.9677,2.9605,2.947,2.9236,2.8881,2.8511,2.811,2.771,2.731,2.691,2.6846,2.6806,2.6779,2.6525,2.619,2.5824,2.555,2.5078,2.4498,2.3946,2.3412,2.2878,2.2604,2.2482,2.25,2.2793,2.3224,2.3755,0.0,0.0,0.0,0.0,0.0,0.0,0.0,0.0,0.0,0.0,0.0,0.0,0.0,0.0,0.0,0.0,0.0,0.0,0.0,0.0,0.0,0.0,0.0,0.0,0.0,0.0,0.0,0.0,0.0,0.0,0.0,0.0,0.0,0.0,0.0,0.0,0.0,0.0,3.5675,3.5661,3.573,0.0,3.5657,3.5146,3.4936,3.4769,3.3806,3.2942,3.2025,3.0507,2.9785,0.0,0.0,2.92,2.9082,0.0,2.8298,2.8206,0.0,0.0,0.0,2.7701,0.0,0.0,0.0,2.8102,2.8166,0.0,0.0,0.0,0.0,0.0,0.0,0.0,0.0,0.0,0.0,0.0,0.0,0.0,0.0,0.0,0.0,0.0,3.1036,3.0215,2.9995,2.9582,2.8841,2.9114,2.9152,2.8803,2.8622,2.8222,2.766,2.7488,2.7104,2.6566,2.6566,2.6486,2.634,2.6177,2.5824,2.537,2.5063,2.454,2.3862,2.3429,2.2927,2.2445,2.242,2.2528,2.2732,2.2947,2.3374,2.3876,0.0,0.0,0.0,0.0,0.0,0.0,0.0,0.0,0.0,0.0,0.0,0.0,0.0,0.0,0.0,0.0,0.0,0.0,0.0,0.0,0.0,0.0,0.0,3.5939,0.0,0.0,0.0,0.0,0.0,0.0,0.0,0.0,0.0,0.0,0.0,0.0,0.0,0.0,0.0,3.5276,0.0,3.5311,3.5226,3.4326,3.3954,3.378,3.2737,3.1619,3.0527,2.9683,0.0,2.9283,2.9078,2.8968,0.0,0.0,0.0,0.0,0.0,0.0,0.0,0.0,0.0,2.7757,0.0,0.0,0.0,0.0,0.0,0.0,0.0,0.0,0.0,0.0,0.0,0.0,0.0,0.0,0.0,0.0,0.0,0.0,0.0,0.0,3.0272,2.9036,2.905,2.8869,2.8316,2.8626,2.8709,2.8511,2.8359,2.8008,2.7401,2.7258,2.6893,2.6283,2.6244,2.6123,2.5893,2.5757,2.5425,2.4951,2.4525,2.3859,2.3058,2.2793,2.2451,2.2123,2.2297,2.2573,2.2895,2.299,2.3392,2.3816,4.1107,4.1109,0.0,0.0,0.0,0.0,0.0,0.0,0.0,0.0,0.0,0.0,0.0,0.0,0.0,0.0,0.0,0.0,3.7061,0.0,0.0,0.0,0.0,0.0,3.5991,0.0,0.0,0.0,0.0,0.0,0.0,0.0,0.0,0.0,3.5591,0.0,0.0,0.0,3.4749,0.0,3.3912,3.4056,0.0,3.3259,3.2874,3.2726,3.1539,3.0518,2.9711,0.0,2.9232,2.9037,0.0,2.8803,0.0,0.0,0.0,0.0,0.0,0.0,0.0,0.0,2.7701,0.0,0.0,0.0,0.0,0.0,0.0,0.0,0.0,0.0,0.0,0.0,0.0,0.0,0.0,0.0,0.0,0.0,0.0,0.0,0.0,0.0,0.0,2.9039,2.8246,2.8092,2.8933,2.8154,2.7938,2.8472,2.786,2.7488,2.7401,2.6762,2.6377,2.6283,2.6069,2.5921,2.5866,2.5175,2.4582,2.4108,2.3382,2.2818,2.2297,2.1975,2.1808,2.1788,2.208,2.2309,2.253,2.2989,2.3292,2.3465,4.1101,4.1101,0.0,0.0,0.0,0.0,0.0,0.0,0.0,0.0,0.0,0.0,0.0,0.0,0.0,0.0,0.0,3.8482,0.0,0.0,0.0,0.0,0.0,0.0,0.0,0.0,0.0,0.0,3.5888,0.0,0.0,0.0,0.0,0.0,3.5483,0.0,3.5438,0.0,0.0,0.0,0.0,0.0,0.0,3.1927,3.1307,3.0603,3.0093,2.9626,2.9209,0.0,2.892,0.0,0.0,0.0,0.0,0.0,0.0,0.0,0.0,0.0,0.0,0.0,0.0,0.0,0.0,0.0,2.7291,0.0,0.0,0.0,0.0,0.0,0.0,0.0,0.0,0.0,0.0,0.0,0.0,0.0,0.0,0.0,0.0,0.0,0.0,0.0,0.0,2.7118,2.8223,2.7566,2.7335,2.7784,2.7199,2.6777,2.6539,2.6204,2.5988,2.5839,2.5716,2.5425,2.495,2.4624,2.4047,2.3322,2.2811,2.2334,2.1882,2.1537,2.1411,2.1446,2.1844,2.2243,2.2622,2.3132,2.3396,2.3469,4.1091,0.0,0.0,0.0,0.0,0.0,0.0,0.0,0.0,0.0,0.0,0.0,4.1109,4.1091,0.0,0.0,0.0,3.9527,0.0,0.0,3.7499,0.0,0.0,0.0,0.0,0.0,0.0,0.0,0.0,0.0,0.0,0.0,0.0,0.0,0.0,3.4978,3.4825,0.0,0.0,3.2921,3.1634,3.0851,3.0453,3.0535,2.9973,2.9143,2.9143,2.902,2.8838,2.8682,2.8688,0.0,2.8466,0.0,0.0,0.0,0.0,0.0,2.7701,0.0,0.0,0.0,0.0,0.0,0.0,0.0,0.0,0.0,0.0,0.0,0.0,0.0,0.0,0.0,0.0,0.0,0.0,0.0,0.0,0.0,0.0,0.0,0.0,0.0,0.0,0.0,2.5977,2.6047,2.7171,2.6748,2.6581,2.6823,2.6515,2.6204,2.5893,2.5825,2.5702,2.5494,2.5411,2.4977,2.4292,2.4076,2.3531,2.2744,2.2261,2.1889,2.1537,2.119,2.1031,2.1099,2.1606,2.206,2.2468,2.3037,2.3214,2.3075,4.1108,4.1092,0.0,0.0,0.0,0.0,0.0,0.0,0.0,0.0,0.0,0.0,0.0,0.0,0.0,0.0,0.0,3.9783,3.9762,0.0,3.8157,0.0,0.0,0.0,0.0,0.0,0.0,0.0,0.0,0.0,3.5514,3.5507,0.0,0.0,0.0,3.3934,3.3506,3.2619,3.1704,3.0776,3.0527,2.977,2.8802,0.0,2.9158,2.9003,2.9003,0.0,0.0,2.8892,2.8602,0.0,0.0,0.0,0.0,0.0,0.0,0.0,0.0,0.0,0.0,0.0,0.0,0.0,0.0,0.0,2.7006,0.0,0.0,0.0,0.0,0.0,0.0,0.0,0.0,0.0,0.0,0.0,0.0,0.0,0.0,0.0,0.0,0.0,0.0,2.5925,2.5055,2.4911,2.5994,2.56,2.5443,2.5658,2.5824,2.5921,2.5893,2.5647,2.5494,2.5494,2.5159,2.4765,2.4263,2.3505,2.2877,2.2372,2.1588,2.1221,2.119,2.0764,2.0603,2.0704,2.1359,2.1616,2.1717,2.2544,2.2513,2.2014,0.0,0.0,0.0,0.0,0.0,0.0,0.0,4.1095,0.0,0.0,0.0,0.0,0.0,0.0,4.1029,0.0,0.0,4.0634,4.0596,3.9845,0.0,0.0,0.0,3.6864,0.0,0.0,0.0,0.0,0.0,0.0,3.5564,3.5528,3.5383,3.5171,0.0,3.4082,0.0,0.0,0.0,0.0,0.0,2.9063,2.8748,0.0,0.0,2.8281,2.8321,2.8268,0.0,2.8097,2.8079,2.8075,2.7897,2.7771,2.7701,2.7701,2.7701,0.0,0.0,0.0,2.7686,2.763,0.0,0.0,0.0,0.0,0.0,0.0,0.0,0.0,0.0,0.0,0.0,0.0,0.0,0.0,0.0,0.0,0.0,0.0,0.0,0.0,0.0,0.0,0.0,2.5115,2.4451,2.4522,0.0,2.5257,2.5035,2.5197,2.5272,2.5314,2.5314,2.5216,2.5131,2.5047,2.4934,2.4334,2.3369,2.31,2.2463,2.1588,2.1051,2.0796,2.0775,2.0421,2.0489,2.0842,2.1227,2.1591,2.1951,2.2513,2.228,2.1403,4.1092,0.0,0.0,0.0,0.0,0.0,0.0,0.0,0.0,0.0,4.1012,0.0,4.1001,0.0,4.1007,0.0,4.1041,4.1068,4.1047,4.0521,0.0,3.8923,3.8049,0.0,0.0,0.0,0.0,0.0,0.0,3.5543,3.547,3.5407,3.525,3.4954,0.0,3.3885,3.3899,0.0,3.1294,0.0,0.0,2.8598,0.0,0.0,2.8065,0.0,0.0,2.7897,2.78,2.776,2.7815,2.7901,2.776,2.7701,2.7701,2.7701,2.7701,2.7701,2.7701,2.7701,0.0,0.0,2.7371,0.0,0.0,0.0,0.0,0.0,0.0,0.0,0.0,0.0,0.0,0.0,0.0,0.0,0.0,0.0,0.0,0.0,0.0,0.0,0.0,0.0,2.2815,2.397,2.3499,2.3486,0.0,0.0,2.4445,2.4354,2.4764,2.5005,2.5005,2.4948,2.4892,2.4806,2.4507,2.3855,2.2889,2.2525,2.1846,2.0967,2.0582,2.0388,2.0313,2.014,2.0291,2.0701,2.1048,2.1475,2.1972,2.2408,2.1804,2.0469,0.0,0.0,0.0,0.0,4.1091,0.0,0.0,0.0,4.1097,0.0,4.1042,4.0992,4.1009,4.0995,4.1017,4.1072,4.103,0.0,4.108,4.0961,0.0,0.0,3.8671,3.7732,3.6828,0.0,0.0,0.0,0.0,0.0,3.5209,3.5193,3.4982,3.4575,3.3865,0.0,3.2773,3.1783,3.1166,3.0752,2.9351,2.8371,2.7739,2.7485,0.0,2.8329,2.7978,2.7698,2.7539,2.7858,2.7803,2.7617,2.7672,2.7701,2.7701,2.7701,2.7701,2.7701,2.7701,2.7701,2.7642,2.7465,0.0,0.0,0.0,0.0,2.6503,0.0,0.0,0.0,0.0,0.0,0.0,0.0,0.0,0.0,0.0,0.0,0.0,0.0,0.0,0.0,0.0,2.153,2.1636,2.2581,2.2278,2.2048,0.0,0.0,2.367,2.3215,2.4353,2.4977,2.4977,2.4835,2.4778,2.4721,2.3943,2.331,2.2768,2.1815,2.1071,2.0539,2.0237,2.0009,1.99,1.99,2.007,2.0358,2.0814,2.1282,2.1749,2.212,2.1116,1.9362,4.1093,4.1093,4.1091,0.0,4.1103,4.1099,0.0,0.0,0.0,0.0,4.1013,4.0983,4.0933,4.0937,4.0937,4.0945,4.0988,0.0,0.0,0.0,0.0,3.9424,3.9187,3.836,3.6828,3.6621,0.0,3.5504,0.0,0.0,3.5201,3.5054,3.4831,3.4564,0.0,0.0,3.3214,3.1529,3.0586,3.0134,2.9187,2.8717,0.0,0.0,2.7602,2.7915,2.763,2.7483,2.7438,2.7529,2.7542,2.7542,2.76,2.7615,2.7615,2.7615,2.7674,2.7686,2.7644,2.7615,2.76,2.7572,2.7132,2.6691,0.0,0.0,0.0,0.0,0.0,0.0,0.0,0.0,0.0,0.0,0.0,0.0,0.0,0.0,0.0,0.0,0.0,0.0,0.0,2.1803,2.2133,2.2053,2.2649,2.2681,0.0,0.0,0.0,2.2911,2.4062,2.4706,2.4706,2.4677,2.4334,2.3669,2.3475,2.2743,2.1565,2.1282,2.0784,2.0064,1.9998,1.9846,1.9671,1.9671,2.0128,2.0825,2.0779,2.1172,2.1669,2.0691,1.9904,1.9146,4.1103,0.0,0.0,4.1091,0.0,0.0,4.1097,0.0,0.0,4.1016,4.0999,0.0,4.0943,4.0921,4.0883,4.0854,4.0898,0.0,0.0,0.0,0.0,3.9846,3.9434,3.8777,3.7784,3.7041,0.0,3.5854,0.0,0.0,3.4926,3.4782,3.4564,3.4227,0.0,3.3285,0.0,3.1956,3.0985,3.0295,2.9826,0.0,0.0,2.8485,2.8185,2.803,2.7698,2.7476,2.7362,2.7376,2.7438,2.7467,2.7526,2.7557,2.7557,2.7557,2.7461,2.7334,2.7305,2.7195,2.7084,2.7084,2.6757,2.6437,2.6298,2.6013,2.5754,0.0,0.0,0.0,0.0,0.0,0.0,0.0,0.0,0.0,0.0,0.0,0.0,0.0,0.0,0.0,0.0,0.0,2.1955,2.166,2.1741,0.0,0.0,0.0,0.0,2.2804,2.3683,2.4305,2.4591,2.393,2.3505,2.3284,2.2592,2.1834,2.1019,2.0624,2.0215,1.9769,1.9769,1.9638,1.9494,1.9705,2.0144,2.0768,2.1047,2.1416,2.1645,2.043,1.9708,1.9097,0.0,0.0,0.0,0.0,0.0,0.0,0.0,4.1091,0.0,4.1013,0.0,4.0988,4.0988,4.0926,4.0864,4.0805,0.0,4.075,4.0665,4.0506,4.043,4.0466,3.9634,3.9088,3.8946,3.753,0.0,0.0,0.0,3.4965,3.4572,3.4431,3.4154,3.378,0.0,0.0,0.0,3.2536,3.1777,0.0,3.0749,3.023,2.9558,2.9455,2.8973,2.8339,2.7995,2.7606,2.7297,2.7313,2.7313,2.7312,2.7388,2.7371,2.734,2.734,2.7083,2.6822,2.6806,2.6607,2.6368,2.6368,2.6333,2.6211,2.5979,2.5888,2.585,2.5721,2.5607,0.0,0.0,0.0,0.0,0.0,0.0,0.0,0.0,0.0,0.0,0.0,0.0,0.0,0.0,0.0,0.0,0.0,0.0,0.0,0.0,0.0,0.0,2.2711,2.3329,0.0,2.4376,0.0,2.264,2.2942,2.1616,2.0892,2.0711,1.9966,1.9572,1.955,1.955,1.944,1.9316,1.9787,2.0174,2.056,2.1466,2.1807,2.1683,2.0779,1.9933,1.9137,0.0,0.0,0.0,0.0,0.0,4.1034,4.1091,4.1056,4.1016,4.0994,4.0953,0.0,4.0921,4.0853,4.0818,4.0798,4.0694,0.0,0.0,0.0,0.0,4.0336,4.0176,3.9633,3.8693,3.8449,3.7545,0.0,3.566,3.5166,3.4506,3.393,3.3684,3.3698,0.0,0.0,3.2127,3.2038,0.0,3.1559,3.0956,3.0378,2.9861,2.9251,2.8693,2.8225,2.8149,2.7771,2.725,2.6941,2.6825,2.6825,2.6907,2.6691,2.6437,2.6437,2.6454,2.6471,2.6351,2.6264,2.6246,2.6246,2.5946,2.5652,2.5596,2.5365,2.5166,2.5146,2.5123,2.5084,2.5025,0.0,0.0,0.0,0.0,0.0,0.0,0.0,0.0,0.0,0.0,0.0,0.0,0.0,0.0,0.0,0.0,0.0,0.0,0.0,0.0,0.0,0.0,0.0,0.0,0.0,0.0,2.1089,2.1365,2.0901,1.9835,1.9671,1.9506,1.9341,1.9341,1.9274,1.9173,1.964,2.028,2.1041,2.159,2.1807,2.1683,2.0644,1.9728,1.8859,0.0,0.0,0.0,0.0,0.0,0.0,0.0,4.0929,0.0,4.0949,4.0854,4.0779,4.0749,4.0718,4.0662,4.06,4.053,4.0446,4.0342,4.0353,4.0317,4.031,4.0166,0.0,3.9286,3.8734,3.7781,3.6411,3.5871,3.5051,0.0,0.0,0.0,3.3114,0.0,3.2232,0.0,0.0,0.0,3.1803,3.1166,3.0768,3.0507,2.9923,2.9323,2.8758,2.8575,2.8177,2.7735,2.754,2.7485,2.7419,2.7105,2.6864,2.6637,2.6257,2.6052,2.5926,2.5855,2.5707,2.5591,2.5591,2.5422,2.523,2.523,2.5127,2.5005,2.5005,2.4946,2.4766,2.4359,2.376,0.0,0.0,0.0,0.0,0.0,0.0,0.0,0.0,0.0,0.0,0.0,0.0,0.0,0.0,0.0,0.0,0.0,0.0,0.0,0.0,0.0,0.0,0.0,0.0,0.0,2.1624,2.1207,2.0645,1.9987,1.9561,1.9274,1.9208,1.9208,1.931,1.9523,2.0172,2.0855,2.1497,2.1714,2.1443,2.0924,2.0401,1.9286,1.802,0.0,4.1078,0.0,0.0,4.0956,0.0,0.0,4.0754,4.0771,4.0873,4.0779,4.068,4.0629,4.0596,4.0523,4.0414,4.04,4.0334,4.0215,4.0206,4.0186,4.0137,3.9924,3.9785,3.9728,3.877,3.7828,0.0,3.606,0.0,0.0,0.0,0.0,0.0,0.0,0.0,0.0,0.0,3.1766,3.1693,3.1181,3.0908,3.0788,3.046,2.9889,2.9214,2.8951,2.8658,2.8396,2.8396,2.8243,2.7981,2.7438,2.7252,2.706,2.6473,2.6086,2.5822,2.5644,2.5412,2.5175,2.5053,2.5005,2.5005,2.5005,2.4966,2.4946,2.4946,2.4842,2.4503,2.3782,2.329,0.0,0.0,0.0,0.0,0.0,0.0,0.0,0.0,0.0,0.0,0.0,0.0,0.0,0.0,0.0,0.0,1.9884,2.0327,0.0,0.0,0.0,2.2675,2.3125,0.0,2.2021,0.0,2.1049,2.0399,2.0107,1.9429,1.9108,1.9108,1.9212,1.953,2.0075,2.0788,2.1319,2.1655,2.153,2.0924,2.009,1.9679,1.8563,1.7212,0.0,0.0,0.0,0.0,0.0,0.0,0.0,4.0642,4.0607,4.0782,4.0742,4.0707,4.0688,4.0571,4.0489,4.0406,4.0344,4.0206,3.9946,3.9935,3.9837,3.9587,3.9563,3.9408,3.9178,3.8703,3.7998,0.0,0.0,0.0,0.0,0.0,0.0,0.0,0.0,0.0,0.0,3.1504,3.1295,3.1142,3.0707,3.0309,2.9924,2.9881,2.954,2.9102,2.9095,2.9048,2.9007,2.9007,2.8398,2.7644,2.7579,2.7345,2.7095,2.7015,2.6978,2.6794,2.6134,2.5918,2.5756,2.5144,2.5005,2.5005,2.5005,2.4922,2.4822,2.4822,2.4661,2.4219,2.326,2.3216,2.286,0.0,0.0,0.0,0.0,0.0,0.0,0.0,0.0,0.0,0.0,0.0,0.0,0.0,0.0,0.0,1.9116,1.9312,2.0091,2.1665,0.0,2.1861,2.1608,2.2671,0.0,2.0355,2.0805,2.0387,1.9231,1.9131,1.9108,1.9129,1.9554,2.0112,2.0743,2.1009,2.1169,2.1205,2.0576,2.0168,1.9689,1.7963,1.7196,1.6887,0.0,0.0,0.0,0.0,0.0,0.0,0.0,4.0559,4.0527,4.0602,4.0605,4.0554,4.0527,4.0436,4.0304,4.012,4.008,3.9954,3.9682,3.967,3.9623,3.9495,3.9117,3.8849,3.8737,3.8192,3.7479,0.0,0.0,0.0,0.0,0.0,0.0,0.0,0.0,3.1801,3.1485,3.1276,3.1004,3.0686,3.0267,2.9968,2.9788,2.9477,2.9266,2.9098,2.9098,2.9098,2.9098,2.9098,2.8833,2.8433,2.804,2.782,2.762,2.7225,2.7099,2.7036,2.6751,2.6672,2.6572,2.6246,2.6146,2.6125,2.6041,2.5665,2.5342,2.5342,2.4673,2.3824,2.2987,2.2672,2.2296,0.0,0.0,0.0,0.0,0.0,0.0,0.0,0.0,0.0,0.0,0.0,0.0,0.0,0.0,0.0,1.8329,1.9362,2.0074,2.0429,0.0,2.2365,2.1834,2.2763,2.2567,2.129,2.1155,2.0613,1.9682,1.9297,1.9197,1.9394,2.0088,2.0492,2.0663,2.1011,2.1197,2.1118,2.0343,1.9571,1.8771,1.7479,1.6609,1.5974,4.0829,0.0,4.0749,0.0,4.0636,4.0602,4.0512,4.0457,4.0406,4.0406,4.0341,4.0307,4.0307,4.0261,4.0139,3.9867,3.981,3.9693,3.9439,3.9401,3.935,3.9272,3.8693,0.0,3.8384,3.7685,3.7055,3.6541,3.6417,0.0,0.0,0.0,0.0,0.0,3.1654,3.1428,3.1044,3.0825,3.0543,3.0246,2.9772,2.9589,2.9566,2.9236,2.9098,2.9098,2.9098,2.9098,2.9075,2.8943,2.892,2.8865,2.8507,2.8395,2.83,2.7841,2.7699,2.7668,2.7446,2.7399,2.7314,2.6963,2.6895,2.6851,2.6736,2.6296,2.5874,2.5685,2.4752,2.3724,2.2919,2.2399,2.1939,0.0,0.0,0.0,0.0,0.0,0.0,0.0,0.0,1.9604,1.9734,0.0,0.0,0.0,0.0,0.0,0.0,1.9342,0.0,0.0,0.0,0.0,0.0,2.2463,2.2372,2.151,2.1017,2.042,1.9715,1.931,1.9363,1.9814,2.0443,2.0686,2.0649,2.1036,2.1128,2.0925,1.9864,1.8939,1.806,1.6935,1.6057,1.5396,4.0879,4.07,4.0655,4.0527,4.0496,4.0496,4.0496,4.033,4.0205,4.0205,3.9973,3.9872,4.0081,4.0101,3.9991,3.9728,3.9647,3.9489,3.9224,3.9142,3.8993,0.0,0.0,3.8101,3.8101,3.7321,3.69,3.6882,0.0,0.0,3.5166,0.0,3.2395,3.1123,3.1257,3.1004,3.0477,3.0011,2.9815,2.9788,2.9289,2.9098,2.9098,2.9098,2.9098,2.9098,2.9098,2.9098,2.9029,2.8646,2.8511,2.8574,2.8967,2.9098,2.9098,2.9082,2.9082,2.8925,2.8268,2.8079,2.7898,2.7111,2.6895,2.6851,2.6736,2.6588,2.6296,2.5633,2.4917,2.4095,2.3084,2.2614,2.2011,2.0801,0.0,0.0,0.0,0.0,0.0,0.0,1.9251,1.9172,1.9552,0.0,0.0,0.0,0.0,0.0,0.0,0.0,0.0,2.201,2.1699,0.0,2.1123,2.1772,2.1447,2.0128,2.0139,1.9649,1.8828,1.9081,1.965,2.0484,2.0494,2.0641,2.0896,2.1128,2.0964,2.044,1.8899,1.8189,1.7796,1.6072,1.5431,1.5433,4.1516,4.0969,4.0557,4.0504,4.04,4.0295,4.0295,4.0091,3.9932,3.9932,3.9851,3.9742,3.964,3.9796,3.9773,0.0,3.9363,3.9197,0.0,3.8837,3.8686,3.832,3.7913,3.756,3.7302,3.6761,3.6492,3.6492,0.0,0.0,0.0,3.3482,3.2349,3.1341,3.094,3.0481,3.0011,2.9859,2.9611,2.9312,2.9167,2.9098,2.9075,2.8803,2.8693,2.8646,2.8391,2.828,2.8255,2.8134,2.8085,2.8158,2.8574,2.8693,2.874,2.9029,2.9052,2.885,2.8263,2.802,2.7791,2.7069,2.6901,2.6862,2.6713,2.6238,2.5526,2.4483,2.4008,2.3559,2.284,2.2603,2.2353,2.1706,0.0,0.0,0.0,0.0,0.0,0.0,0.0,2.0762,0.0,2.0189,0.0,0.0,0.0,0.0,0.0,0.0,0.0,0.0,2.1582,0.0,2.1092,2.1313,2.0953,2.0096,2.0096,1.982,1.9298,1.9848,2.0159,2.0299,2.0635,2.0729,2.0693,2.076,2.0722,2.044,1.8749,1.8078,1.7796,1.6031,1.5528,1.5774,4.1724,4.0967,4.0356,4.0248,4.0139,4.0052,4.0052,3.9838,3.9683,3.9683,3.9578,3.9396,3.9132,3.9176,0.0,3.9151,3.8966,3.8763,3.8528,3.835,3.8135,3.7896,3.7487,3.717,3.69,0.0,0.0,3.6028,3.592,3.5314,3.4224,3.3206,3.2188,3.1216,3.0537,2.9968,2.9544,2.9544,2.9273,2.8897,2.9029,2.892,2.8646,2.855,2.8415,2.8231,2.7972,2.7898,2.7849,2.76,2.7525,2.755,2.7715,2.774,2.7889,2.8527,2.8574,2.828,2.7849,2.7675,2.75,2.703,2.6901,2.6849,2.6666,2.6048,2.5295,2.4507,2.4066,2.3609,2.2959,2.2783,2.258,2.2045,0.0,2.1773,0.0,0.0,0.0,0.0,0.0,0.0,0.0,2.0846,0.0,0.0,0.0,0.0,0.0,0.0,0.0,2.1408,2.1822,0.0,2.1103,2.0773,2.0291,1.9616,1.9621,1.9679,1.9762,2.0132,2.0284,2.0386,2.0662,2.0731,2.0605,2.0605,2.0605,2.045,1.8678,1.7997,1.7796,1.6031,1.5593,1.5935,4.1667,4.0769,0.0,0.0,3.9786,0.0,3.9775,3.959,3.9439,3.9402,3.9104,3.8795,3.8462,3.8256,3.8274,3.8604,0.0,0.0,0.0,3.7738,3.7487,3.7469,3.7113,3.688,3.6821,3.6433,3.6028,3.5549,3.5005,3.4391,3.3707,3.2881,3.1909,3.0797,3.0067,2.9499,2.9098,2.9075,2.885,2.8535,2.8873,2.8574,2.7898,2.8271,2.8134,2.7799,2.7775,2.775,2.7675,2.7056,2.6823,2.6797,2.6575,2.6484,2.6654,2.7715,2.7765,2.7399,2.7104,2.7012,2.6975,2.6823,2.6771,2.6692,2.6443,2.5933,2.5481,2.5342,2.4766,2.4076,2.338,2.3147,2.2768,2.1962,2.1817,2.1762,2.1634,0.0,0.0,0.0,0.0,0.0,0.0,2.1233,2.1422,0.0,0.0,0.0,0.0,0.0,2.0915,2.2932,2.2218,2.1565,2.0996,2.0128,1.9407,1.8825,1.8958,1.9403,2.0205,2.0026,2.0185,2.0605,2.0605,2.0605,2.0605,2.0605,2.0605,2.045,1.8678,1.7997,1.7796,1.6061,1.5672,1.5987,0.0,0.0,3.9872,3.9808,3.9671,3.9561,3.9561,3.9357,3.8968,3.8353,3.8177,3.771,3.6713,3.6583,3.6427,3.6089,3.7105,3.7737,3.7667,3.756,3.7377,3.7055,3.6958,3.66,3.5929,3.5815,3.5504,3.4981,3.4513,3.4178,3.3958,3.2305,3.139,3.1037,2.9822,2.9213,2.9075,2.8764,2.8598,2.8487,2.8255,2.7963,2.7565,2.7363,2.7082,2.6785,2.6469,2.6363,2.6351,2.619,2.615,2.6177,2.6431,2.6285,2.6217,2.7078,2.7195,2.6912,2.6412,2.6228,2.6055,2.5564,2.537,2.5286,2.5216,2.4893,2.4595,2.4567,2.4261,2.3956,2.3768,2.3583,2.3356,2.3052,2.2997,2.2926,2.2749,0.0,0.0,0.0,2.2588,2.2528,2.2588,2.2455,2.2153,0.0,0.0,0.0,0.0,0.0,2.1311,2.1928,2.1259,2.059,1.9955,1.9187,1.8924,1.9107,1.963,2.0007,2.0224,2.034,2.0507,2.0605,2.0605,2.0605,2.0605,2.0605,2.0605,2.045,1.8678,1.7997,1.7829,1.632,1.5994,1.6353,4.22,4.0811,3.9625,3.9507,3.9377,3.9324,3.9324,3.8875,3.8395,3.7949,3.735,3.6655,3.5851,3.5548,3.5236,3.4782,3.5705,3.6292,3.6219,3.6053,3.5862,3.5647,3.5396,3.5091,3.46,3.4718,3.4688,3.4488,3.3984,3.3585,3.3249,3.1672,3.0761,3.0416,2.9311,2.8716,2.8535,2.8511,2.831,2.7984,2.779,2.7399,2.6927,2.6771,2.6496,2.6204,2.5975,2.5893,2.5866,2.5743,2.573,2.5716,2.5797,2.566,2.555,2.5946,2.6149,2.6163,2.5673,2.5481,2.5314,2.492,2.475,2.4664,2.4593,2.4421,2.4263,2.4144,2.3995,2.3861,2.3713,2.3582,2.345,2.33,2.3271,2.321,2.3108,2.3108,0.0,2.3108,2.3108,2.3047,2.2939,2.28,2.2463,2.1932,0.0,0.0,2.1757,2.1451,2.1376,2.1585,2.0878,2.027,1.9871,1.9274,1.9208,1.9657,1.993,2.019,2.0387,2.0536,2.0605,2.0605,2.0605,2.0605,2.0605,2.0605,2.0372,1.9854,1.8519,1.7857,1.7499,1.6345,1.6206,1.6661,4.1987,4.059,3.9376,3.9142,3.9101,3.9087,3.9027,3.834,3.777,3.7586,3.649,3.5566,3.5121,3.4623,3.421,3.3871,3.4082,3.4353,3.4598,3.4235,3.3997,3.3997,3.3539,3.3322,3.3338,3.3593,3.3794,3.3975,3.3365,3.2772,3.2173,3.0943,3.0031,2.9475,2.874,2.8207,2.7923,2.8222,2.7944,2.7321,2.7327,2.6849,2.619,2.6297,2.6123,2.5757,2.5757,2.5757,2.5729,2.5508,2.5411,2.5341,2.5075,2.4948,2.492,2.4806,2.5047,2.5285,2.5018,2.4863,2.4721,2.462,2.4591,2.452,2.435,2.4263,2.4173,2.3949,2.3861,2.3743,2.3463,2.3373,2.3271,2.2975,2.3035,2.3065,2.2944,0.0,2.3108,2.3108,2.3078,2.3,2.2739,2.2678,2.2494,2.2123,2.2061,0.0,0.0,2.1331,2.1131,2.1311,2.0606,2.0148,2.0075,1.9782,1.9811,2.0167,2.0066,2.0205,2.0605,2.0605,2.0605,2.0605,2.0605,2.0605,2.0605,2.0605,2.0089,1.9222,1.8318,1.7655,1.7112,1.6294,1.6352,1.691,4.1716,4.0305,3.9156,3.9115,3.9101,3.8998,3.8718,3.8004,3.7129,3.6167,3.5168,3.4177,3.3162,3.2824,3.2528,3.22,3.1867,3.2378,3.4088,3.3761,3.3518,3.3518,3.3067,3.2872,3.3052,3.3276,3.3391,3.3424,3.2421,3.1908,3.1742,3.0043,2.918,2.9058,2.8316,2.7947,2.7889,2.766,2.7331,2.6941,2.6628,2.615,2.5619,2.5647,2.5439,2.5146,2.5146,2.5146,2.5118,2.509,2.5005,2.4905,2.4848,2.475,2.4677,2.4649,2.4677,2.4734,2.4677,2.4649,2.462,2.462,2.4463,2.435,2.4321,2.4115,2.3949,2.392,2.3671,2.3463,2.3403,2.3271,2.2944,2.2359,2.272,2.2914,2.2329,0.0,2.3108,2.3108,2.2987,2.2909,2.2878,2.2604,2.2192,2.1557,2.1368,2.1028,2.0463,2.0643,2.0518,2.0022,1.9852,1.9667,1.9423,1.9711,1.9891,1.9959,2.0331,2.0537,2.0605,2.0605,2.0605,2.0605,2.0605,2.0605,2.0605,2.0605,2.0089,1.9222,1.8318,1.7655,1.7135,1.6541,1.658,1.6894,4.1619,4.0224,3.9064,3.9087,3.8956,3.863,3.801,3.7089,3.61,3.5017,3.4008,3.316,3.2556,3.2214,3.1875,3.1449,3.122,3.139,3.2121,3.195,3.1846,3.1846,3.1389,3.1421,3.203,3.2514,3.2662,3.2426,3.1955,3.1201,3.0227,2.9171,2.8482,2.8126,2.777,2.7509,2.7306,2.7178,2.693,2.6549,2.6069,2.5716,2.5467,2.5313,2.5131,2.5005,2.5005,2.4948,2.4892,2.4892,2.4806,2.4706,2.4706,2.4649,2.4578,2.4463,2.452,2.4591,2.4463,2.445,2.4421,2.4361,2.4216,2.4099,2.4099,2.3894,2.373,2.3641,2.3522,2.3373,2.3271,2.3168,2.3005,2.2689,2.2914,0.0,0.0,2.2914,2.3078,2.2987,2.2939,2.2696,2.2149,2.2025,2.1639,2.0773,2.0913,2.0874,2.0445,2.045,2.0324,2.0019,1.9874,1.9743,1.9619,2.0049,2.0264,2.0273,2.0507,2.0605,2.0605,2.0605,2.0605,2.0605,2.0605,2.0605,2.0605,2.0605,1.9805,1.8585,1.8351,1.7661,1.6743,1.6684,1.6797,1.6965,4.1437,4.003,3.8826,3.8822,3.8444,3.788,3.7153,3.6021,3.4947,3.4072,3.3081,3.2352,3.2162,3.184,3.1449,3.1004,3.0848,3.0666,3.0372,3.041,3.0405,3.033,3.0206,3.0542,3.1428,3.1921,3.1967,3.1584,3.1089,3.0094,2.8647,2.808,2.7545,2.7052,2.7052,2.687,2.658,2.6642,2.6443,2.6069,2.5674,2.5439,2.5355,2.5103,2.4977,2.4948,2.4948,2.4863,2.475,2.475,2.4635,2.452,2.452,2.4505,2.4447,2.4305,2.4347,2.4447,2.4261,2.4218,2.416,2.4024,2.3907,2.3832,2.3832,2.37,2.3509,2.3433,2.336,2.3271,2.3138,2.3108,2.3047,2.2871,0.0,0.0,0.0,2.2823,2.2763,2.2622,2.2427,2.2061,2.1455,2.1423,2.1105,2.028,2.0661,2.0755,2.039,2.0271,2.0246,2.0358,2.0046,1.9961,2.0059,2.0439,2.0605,2.0605,2.0605,2.0605,2.0605,2.0605,2.0605,2.0605,2.0605,2.0605,2.0605,2.0605,1.9615,1.816,1.841,1.7707,1.6558,1.6724,1.6885,1.6979,4.1003,3.9552,3.8259,3.8029,3.7297,3.6605,3.6239,3.4923,3.3775,3.3333,3.249,3.1803,3.1413,3.124,3.0985,3.058,3.0161,2.9881,2.9837,3.0078,3.0112,2.9848,3.0648,3.1462,3.2196,3.1899,3.1584,3.124,2.9265,2.8064,2.7579,2.6559,2.6045,2.6002,2.6002,2.6002,2.5975,2.5975,2.5825,2.555,2.5522,2.5313,2.5033,2.5005,2.492,2.4806,2.4806,2.4734,2.462,2.462,2.4478,2.4321,2.4321,2.4232,2.4112,2.4112,2.4112,2.4112,2.3979,2.392,2.3891,2.3688,2.3628,2.3628,2.3628,2.3509,2.3403,2.3403,2.3241,2.3108,2.3108,2.3108,2.2914,2.2267,0.0,0.0,2.2106,2.2002,2.1908,2.1721,2.0974,2.0705,2.124,2.1152,2.0892,2.0572,2.06,2.0277,1.9456,1.975,2.0124,2.0565,2.0145,2.0107,2.0546,2.0586,2.0605,2.0605,2.0605,2.0605,2.0605,2.0605,2.0605,2.0605,2.0605,2.0605,2.0605,2.0605,1.9743,1.8487,1.8471,1.7816,1.6821,1.6629,1.6754,1.6932,3.9873,3.8721,3.7859,3.7807,3.6951,3.6061,3.5402,3.4234,3.305,3.2025,3.1677,3.1336,3.0865,3.0764,3.0559,3.0097,2.9903,2.9871,3.0041,3.0141,3.0339,3.0648,3.062,3.0722,3.0985,3.043,2.9748,2.8909,2.8086,2.7285,2.6504,2.6101,2.5893,2.5893,2.5893,2.5893,2.5893,2.5716,2.5592,2.5467,2.5173,2.499,2.4863,2.4778,2.4734,2.4677,2.4677,2.4549,2.4421,2.4421,2.4319,2.4187,2.4187,2.4128,2.4083,2.4008,2.3979,2.392,2.3641,2.3743,2.3861,2.3658,2.3539,2.348,2.348,2.333,2.3198,2.3198,2.3138,2.3108,2.3108,2.3108,2.3005,2.275,0.0,2.2341,2.1939,2.1596,2.1397,2.1407,2.1236,2.1108,2.1062,2.1081,2.082,2.0042,2.0317,2.0259,1.9715,2.0078,2.0429,2.0595,2.0449,2.0439,2.0605,2.0605,2.0605,2.0605,2.0605,2.0605,2.0605,2.0605,2.0605,2.0605,2.0605,2.0294,1.9794,2.0017,1.914,1.7735,1.814,1.7739,1.6879,1.6814,1.6778,1.6683,3.894,3.8023,3.736,3.7323,3.6285,3.5232,3.4465,3.3316,3.2147,3.1055,3.0985,3.0865,3.0351,3.0288,3.0097,2.9633,2.9797,3.0014,3.0196,3.0361,3.0669,3.1117,3.0699,3.0351,3.0127,2.936,2.8427,2.7376,2.7039,2.6438,2.5619,2.5619,2.5619,2.5619,2.5619,2.5591,2.5536,2.5369,2.5257,2.5173,2.4877,2.4721,2.4734,2.4649,2.4563,2.452,2.452,2.4392,2.4247,2.4247,2.4187,2.4083,2.4067,2.3995,2.3936,2.3819,2.3819,2.376,2.3463,2.3552,2.37,2.3509,2.3378,2.33,2.33,2.3198,2.3108,2.3108,2.3108,2.3108,2.3108,2.2944,2.2781,2.2781,2.2206,2.18,2.1799,2.13,2.0995,2.1139,2.1114,2.1002,2.0837,2.0936,2.0746,2.0048,2.0384,2.0478,2.0117,2.0449,2.0605,2.0605,2.0605,2.0605,2.0605,2.0605,2.0605,2.0605,2.0605,2.0605,2.0605,2.0605,2.0605,2.0605,2.0605,2.0165,1.9472,1.9715,1.8917,1.7561,1.8008,1.7719,1.7033,1.6987,1.6831,1.6541,3.8337,3.7525,3.6818,3.6527,3.5157,3.392,3.346,3.2087,3.0965,3.0559,3.0497,3.033,2.9853,2.981,2.9627,2.916,2.9785,3.022,3.0204,3.069,3.0977,3.0977,3.0977,3.0643,3.0007,2.8925,2.7947,2.7086,2.6008,2.5313,2.5005,2.5005,2.5005,2.5005,2.5005,2.492,2.4806,2.4806,2.4734,2.4591,2.4591,2.4591,2.4591,2.4591,2.4463,2.4292,2.4292,2.4203,2.4083,2.4083,2.4083,2.4083,2.3949,2.376,2.3599,2.3599,2.3599,2.3569,2.3433,2.3403,2.336,2.3138,2.3108,2.3108,2.3108,2.3108,2.3108,2.3108,2.3108,2.3108,2.3095,2.2555,2.2113,2.2113,2.1534,2.1223,2.155,2.094,2.0593,2.0867,2.0303,2.0075,2.0558,2.0609,2.0677,2.0876,2.0906,2.0819,2.0605,2.0605,2.0605,2.0605,2.0605,2.0605,2.0605,2.0605,2.0605,2.0605,2.0605,2.0605,2.0605,2.0605,2.0605,2.0605,2.0605,2.0297,1.9793,1.9793,1.9152,1.8198,1.8198,1.7819,1.7286,1.7066,1.6831,1.6541,3.707,3.6669,3.6195,3.5262,3.4269,3.327,3.2294,3.1304,3.0518,3.0075,3.0011,2.9815,2.9357,2.9757,3.0013,2.9888,3.0496,3.0768,3.0504,3.0448,3.0058,2.9197,2.8955,2.8545,2.7981,2.6677,2.5897,2.5617,2.5326,2.5103,2.5005,2.5005,2.5005,2.5005,2.5005,2.492,2.4806,2.4806,2.4734,2.4591,2.445,2.4392,2.4392,2.4274,2.4229,2.4157,2.4157,2.4128,2.4083,2.4083,2.4037,2.392,2.376,2.3658,2.3569,2.348,2.3463,2.342,2.3228,2.3198,2.3168,2.3108,2.3108,2.3108,2.3108,2.3108,2.3108,2.3108,2.3108,2.2944,2.2494,2.2508,2.2456,2.1975,2.1597,2.1371,2.1332,2.081,2.0532,2.0866,2.0797,2.0872,2.1192,2.1232,2.1141,2.0935,2.078,2.0654,2.0605,2.0605,2.0605,2.0605,2.0605,2.0605,2.0605,2.0605,2.0605,2.0605,2.0605,2.0605,2.0605,2.0605,2.0369,2.0046,2.0046,1.9409,1.8342,1.8556,1.8133,1.7326,1.7506,1.747,1.7286,1.7066,1.6932,1.6838,3.645,3.6301,3.5916,3.4703,3.3889,3.2934,3.1544,3.069,3.0054,2.9589,2.9522,2.9537,2.954,2.9927,3.0315,3.0559,3.097,3.0957,3.0401,2.9966,2.9156,2.7873,2.7365,2.6976,2.6635,2.5786,2.523,2.5005,2.5005,2.5005,2.5005,2.4948,2.492,2.492,2.4863,2.475,2.4593,2.4593,2.452,2.439,2.4261,2.4232,2.4203,2.4128,2.4083,2.4083,2.4037,2.4037,2.4008,2.3936,2.3819,2.3671,2.3569,2.348,2.3378,2.33,2.3271,2.3241,2.3138,2.3108,2.3108,2.3108,2.3108,2.3108,2.3108,2.3108,2.3108,2.3108,2.3058,2.2855,2.2457,2.2345,2.2135,2.1756,2.1317,2.1087,2.115,2.087,2.0803,2.109,2.1292,2.1347,2.1252,2.132,2.1205,2.0819,2.0654,2.0605,2.0605,2.0605,2.0605,2.0605,2.0605,2.0605,2.0605,2.0605,2.0605,2.0605,2.0605,2.0605,2.0576,2.0379,2.012,1.9793,1.9576,1.888,1.7889,1.8103,1.7735,1.7062,1.7252,1.7279,1.7286,1.7153,1.7019,1.6784,3.6237,3.6216,3.5788,3.4573,3.376,3.2725,3.1079,3.0202,2.9605,2.9262,2.9193,2.9485,3.022,3.0362,3.0615,3.1135,3.1135,3.0737,2.9913,2.9204,2.8184,2.6826,2.6163,2.5811,2.5811,2.5811,2.5564,2.5005,2.4977,2.4977,2.4977,2.4835,2.4778,2.4778,2.4649,2.4492,2.4292,2.4292,2.4232,2.4083,2.4083,2.4083,2.4083,2.4083,2.4083,2.4067,2.392,2.3861,2.3832,2.3658,2.3509,2.3403,2.3373,2.3241,2.3108,2.3108,2.3108,2.3108,2.3108,2.3108,2.3108,2.317,2.3183,2.317,2.3108,2.3085,2.308,2.308,2.2901,2.2754,2.2677,2.2049,2.1509,2.1474,2.0942,2.0653,2.1114,2.1176,2.1257,2.1499,2.1693,2.1578,2.0984,2.1061,2.1002,2.0644,2.0605,2.0605,2.0605,2.0605,2.0605,2.0605,2.0605,2.0625,2.0664,2.0664,2.0644,2.0605,2.0644,2.0625,2.0518,2.0062,1.9775,1.9614,1.9118,1.8617,1.8102,1.8102,1.7789,1.7279,1.7279,1.7286,1.7286,1.7286,1.7005,1.6588,3.5749,3.5397,3.4748,3.3536,3.2754,3.1867,3.0544,2.9727,2.9427,2.9903,2.9959,3.0212,3.0923,3.1501,3.1675,3.1255,3.062,2.9834,2.8807,2.7869,2.6878,2.5853,2.5397,2.5202,2.5202,2.5202,2.5118,2.5005,2.4892,2.4835,2.4835,2.4706,2.4649,2.4649,2.462,2.4492,2.4292,2.4292,2.4232,2.4083,2.4083,2.4083,2.4083,2.3979,2.3949,2.392,2.373,2.3671,2.3628,2.348,2.3433,2.3373,2.3198,2.3138,2.3108,2.3108,2.3108,2.3108,2.3108,2.3108,2.3208,2.3703,2.3803,2.369,2.3208,2.2991,2.2865,2.2865,2.2692,2.2388,2.1866,2.1883,2.1783,2.1251,2.1343,2.1538,2.1642,2.1652,2.1656,2.1721,2.1769,2.1617,2.1167,2.0886,2.0683,2.0605,2.0605,2.0605,2.0605,2.0605,2.0605,2.0605,2.0605,2.0732,2.1084,2.1094,2.0908,2.0605,2.0918,2.0675,1.999,2.0191,1.964,1.8542,1.8402,1.8051,1.7502,1.7502,1.7399,1.7279,1.7279,1.7192,1.7073,1.7073,1.6878,1.6588,3.523,3.4981,3.4418,3.3218,3.2464,3.158,3.0371,2.958,2.924,2.9627,2.969,3.0046,3.1013,3.0908,3.0499,2.9797,2.9343,2.8677,2.7758,2.6919,2.6343,2.6092,2.5654,2.5532,2.57,2.5713,2.5459,2.4892,2.4778,2.4706,2.4706,2.4536,2.4463,2.445,2.439,2.4303,2.4203,2.4203,2.4157,2.4083,2.4037,2.4037,2.4083,2.3848,2.3832,2.3861,2.3611,2.345,2.3348,2.3271,2.3271,2.3241,2.3138,2.3108,2.3108,2.3108,2.3108,2.3158,2.3446,2.3521,2.369,2.4255,2.4082,2.3836,2.391,2.3528,2.3182,2.3182,2.2729,2.2182,2.1852,2.1882,2.1845,2.1483,2.1652,2.1807,2.1807,2.1807,2.1769,2.1655,2.1655,2.1502,2.1099,2.077,2.0605,2.0605,2.0605,2.0605,2.0605,2.0605,2.0703,2.0879,2.0889,2.1094,2.1543,2.1543,2.1173,2.0529,2.0715,2.0572,2.0076,1.9573,1.8935,1.8198,1.7918,1.7581,1.7279,1.7279,1.7279,1.7279,1.7279,1.7239,1.7106,1.7026,1.6737,1.6359,3.469,3.4617,3.4227,3.3226,3.2498,3.171,3.0719,2.9943,2.9446,2.9438,2.943,2.9844,3.0866,2.993,2.8996,2.8429,2.8272,2.7886,2.7067,2.6554,2.6385,2.6635,2.6227,2.6161,2.6465,2.6417,2.5965,2.5058,2.4914,2.4826,2.4826,2.4667,2.4566,2.4537,2.4459,2.437,2.437,2.437,2.4383,2.4311,2.4131,2.4092,2.4096,2.3726,2.3671,2.3772,2.3463,2.3241,2.3108,2.3108,2.3108,2.3108,2.3108,2.308,2.3051,2.3051,2.3021,2.3133,2.3772,2.3834,2.3907,2.4581,2.4155,2.3757,2.4521,2.3984,2.3352,2.3352,2.2655,2.2063,2.2063,2.1913,2.1807,2.1807,2.1807,2.1807,2.1807,2.1807,2.1731,2.1502,2.1436,2.1282,2.0945,2.0731,2.0605,2.0605,2.0605,2.0635,2.0713,2.0684,2.0889,2.1288,2.1307,2.1553,2.1992,2.1992,2.1553,2.0619,2.044,2.0233,1.9967,1.8822,1.8186,1.8029,1.7533,1.7279,1.7279,1.7279,1.7279,1.7279,1.7279,1.7279,1.7239,1.6972,1.6602,1.6177,3.4184,3.3822,3.3445,3.3297,3.2695,3.2193,3.2048,3.1381,3.0905,3.0848,3.083,3.0864,3.0903,3.0256,2.9702,2.949,2.8965,2.8293,2.754,2.7425,2.7117,2.6556,2.6479,2.6398,2.6325,2.6153,2.6074,2.6098,2.5915,2.5792,2.5805,2.5669,2.562,2.562,2.5589,2.5558,2.5558,2.5558,2.5452,2.5275,2.4783,2.4498,2.4295,2.3671,2.3433,2.3433,2.321,2.3138,2.3108,2.3108,2.3108,2.3108,2.3108,2.2979,2.283,2.283,2.2734,2.2723,2.3469,2.3195,2.3011,2.4244,2.3941,2.3479,2.4059,2.3225,2.2292,2.2292,2.2077,2.1828,2.1828,2.1842,2.1807,2.1807,2.1807,2.1807,2.1807,2.1807,2.1731,2.1502,2.1205,2.0945,2.0906,2.0731,2.0605,2.0605,2.0605,2.0732,2.1083,2.1103,2.1348,2.1787,2.1797,2.2002,2.2422,2.2432,2.2126,2.1485,2.0624,1.9611,1.8483,1.8656,1.8218,1.7407,1.7358,1.7279,1.7279,1.7279,1.7279,1.7279,1.7279,1.72,1.6979,1.6508,1.6272,1.6177,3.3642,3.345,3.3309,3.3309,3.2379,3.1632,3.1632,3.0635,2.9902,2.9864,2.9881,2.9954,3.0206,2.9638,2.891,2.8141,2.7802,2.7442,2.7012,2.6996,2.6948,2.6881,2.6908,2.6992,2.7139,2.7056,2.6991,2.6959,2.622,2.5887,2.5887,2.5824,2.5749,2.5641,2.5641,2.5579,2.5528,2.5528,2.5465,2.5363,2.4994,2.4608,2.4178,2.3688,2.357,2.3633,2.3462,2.3099,2.2766,2.2766,2.2766,2.2766,2.2766,2.2692,2.2616,2.2616,2.2567,2.2639,2.3258,2.3202,2.3155,2.4061,2.3702,2.3181,2.3441,2.2668,2.2046,2.2527,2.2179,2.1807,2.1807,2.1807,2.1807,2.1807,2.1807,2.1807,2.1807,2.1807,2.1693,2.1359,2.1099,2.0867,2.0731,2.0644,2.0713,2.0918,2.0937,2.1133,2.1572,2.1592,2.1797,2.2217,2.2236,2.2441,2.2818,2.2322,2.1653,2.0827,1.9877,1.912,1.8528,1.8126,1.7738,1.7279,1.7279,1.7279,1.7279,1.7279,1.7279,1.7279,1.7279,1.72,1.6979,1.6744,1.6548,1.64]}]]